<?xml version="1.0" encoding="UTF-8" standalone="no" ?>
<gpx xmlns="http://www.topografix.com/GPX/1/1" xmlns:xsi="http://www.w3.org/2001/XMLSchema-instance" xsi:schemaLocation="http://www.topografix.com/GPX/1/1 http://www.topografix.com/GPX/1/1/gpx.xsd" version="1.1" creator="VisuGPX - https://www.visugpx.com">
  <metadata>
    <name>failed hérisson</name>
    <desc><![CDATA[une belle rando foireuse !! :) (à refaire)]]></desc>
  </metadata>
  <trk>
    <name><![CDATA[ACTIVE LOG 004]]></name>
    <trkseg>
      <trkpt lat="46.60787" lon="5.90318">
        <ele>279.40026855469</ele>
        <time>2012-07-18T09:05:34Z</time>
      </trkpt>
      <trkpt lat="46.60735" lon="5.90365">
        <ele>586.06079101562</ele>
        <time>2012-07-18T09:05:57Z</time>
      </trkpt>
      <trkpt lat="46.60712" lon="5.90389">
        <ele>754.29174804688</ele>
        <time>2012-07-18T09:06:03Z</time>
      </trkpt>
      <trkpt lat="46.60694" lon="5.90401">
        <ele>868.20776367188</ele>
        <time>2012-07-18T09:06:10Z</time>
      </trkpt>
      <trkpt lat="46.60697" lon="5.90404">
        <ele>872.05297851562</ele>
        <time>2012-07-18T09:06:12Z</time>
      </trkpt>
      <trkpt lat="46.60701" lon="5.90401">
        <ele>876.37915039062</ele>
        <time>2012-07-18T09:06:19Z</time>
      </trkpt>
      <trkpt lat="46.60716" lon="5.90401">
        <ele>883.10815429688</ele>
        <time>2012-07-18T09:06:28Z</time>
      </trkpt>
      <trkpt lat="46.60727" lon="5.90401">
        <ele>883.10815429688</ele>
        <time>2012-07-18T09:06:39Z</time>
      </trkpt>
      <trkpt lat="46.60729" lon="5.90401">
        <ele>883.10815429688</ele>
        <time>2012-07-18T09:06:40Z</time>
      </trkpt>
      <trkpt lat="46.60748" lon="5.90397">
        <ele>886.47290039062</ele>
        <time>2012-07-18T09:06:51Z</time>
      </trkpt>
      <trkpt lat="46.6075" lon="5.90395">
        <ele>885.9921875</ele>
        <time>2012-07-18T09:06:54Z</time>
      </trkpt>
      <trkpt lat="46.60757" lon="5.90395">
        <ele>885.51147460938</ele>
        <time>2012-07-18T09:06:59Z</time>
      </trkpt>
      <trkpt lat="46.60765" lon="5.90393">
        <ele>885.03100585938</ele>
        <time>2012-07-18T09:07:07Z</time>
      </trkpt>
      <trkpt lat="46.60772" lon="5.90389">
        <ele>883.5888671875</ele>
        <time>2012-07-18T09:07:12Z</time>
      </trkpt>
      <trkpt lat="46.60784" lon="5.90389">
        <ele>882.62768554688</ele>
        <time>2012-07-18T09:07:20Z</time>
      </trkpt>
      <trkpt lat="46.60793" lon="5.90391">
        <ele>884.06958007812</ele>
        <time>2012-07-18T09:07:35Z</time>
      </trkpt>
      <trkpt lat="46.60793" lon="5.90391">
        <ele>885.51147460938</ele>
        <time>2012-07-18T09:07:41Z</time>
      </trkpt>
      <trkpt lat="46.60795" lon="5.90384">
        <ele>885.51147460938</ele>
        <time>2012-07-18T09:07:45Z</time>
      </trkpt>
      <trkpt lat="46.608" lon="5.90374">
        <ele>885.9921875</ele>
        <time>2012-07-18T09:07:51Z</time>
      </trkpt>
      <trkpt lat="46.60806" lon="5.90361">
        <ele>882.62768554688</ele>
        <time>2012-07-18T09:08:01Z</time>
      </trkpt>
      <trkpt lat="46.60806" lon="5.90352">
        <ele>885.51147460938</ele>
        <time>2012-07-18T09:08:11Z</time>
      </trkpt>
      <trkpt lat="46.60808" lon="5.9035">
        <ele>886.95336914062</ele>
        <time>2012-07-18T09:08:20Z</time>
      </trkpt>
      <trkpt lat="46.60804" lon="5.9035">
        <ele>886.47290039062</ele>
        <time>2012-07-18T09:08:26Z</time>
      </trkpt>
      <trkpt lat="46.608" lon="5.90367">
        <ele>885.03100585938</ele>
        <time>2012-07-18T09:08:36Z</time>
      </trkpt>
      <trkpt lat="46.60797" lon="5.90367">
        <ele>884.06958007812</ele>
        <time>2012-07-18T09:08:39Z</time>
      </trkpt>
      <trkpt lat="46.60784" lon="5.90374">
        <ele>883.5888671875</ele>
        <time>2012-07-18T09:08:44Z</time>
      </trkpt>
      <trkpt lat="46.60767" lon="5.90376">
        <ele>884.55029296875</ele>
        <time>2012-07-18T09:08:52Z</time>
      </trkpt>
      <trkpt lat="46.60765" lon="5.9038">
        <ele>885.51147460938</ele>
        <time>2012-07-18T09:09:00Z</time>
      </trkpt>
      <trkpt lat="46.60757" lon="5.90376">
        <ele>887.91479492188</ele>
        <time>2012-07-18T09:09:09Z</time>
      </trkpt>
      <trkpt lat="46.60754" lon="5.90378">
        <ele>888.87622070312</ele>
        <time>2012-07-18T09:09:11Z</time>
      </trkpt>
      <trkpt lat="46.60748" lon="5.90386">
        <ele>890.31811523438</ele>
        <time>2012-07-18T09:09:17Z</time>
      </trkpt>
      <trkpt lat="46.60735" lon="5.90391">
        <ele>888.87622070312</ele>
        <time>2012-07-18T09:09:23Z</time>
      </trkpt>
      <trkpt lat="46.60724" lon="5.90395">
        <ele>886.47290039062</ele>
        <time>2012-07-18T09:09:34Z</time>
      </trkpt>
      <trkpt lat="46.60722" lon="5.90397">
        <ele>885.51147460938</ele>
        <time>2012-07-18T09:09:36Z</time>
      </trkpt>
      <trkpt lat="46.60716" lon="5.90401">
        <ele>884.06958007812</ele>
        <time>2012-07-18T09:09:45Z</time>
      </trkpt>
      <trkpt lat="46.60716" lon="5.90401">
        <ele>884.06958007812</ele>
        <time>2012-07-18T09:10:08Z</time>
      </trkpt>
      <trkpt lat="46.60703" lon="5.90406">
        <ele>883.10815429688</ele>
        <time>2012-07-18T09:10:18Z</time>
      </trkpt>
      <trkpt lat="46.60701" lon="5.90406">
        <ele>883.10815429688</ele>
        <time>2012-07-18T09:10:20Z</time>
      </trkpt>
      <trkpt lat="46.60701" lon="5.90399">
        <ele>882.62768554688</ele>
        <time>2012-07-18T09:10:30Z</time>
      </trkpt>
      <trkpt lat="46.60703" lon="5.90399">
        <ele>882.62768554688</ele>
        <time>2012-07-18T09:10:34Z</time>
      </trkpt>
      <trkpt lat="46.60718" lon="5.90395">
        <ele>882.14697265625</ele>
        <time>2012-07-18T09:10:38Z</time>
      </trkpt>
      <trkpt lat="46.60802" lon="5.9038">
        <ele>882.62768554688</ele>
        <time>2012-07-18T09:10:46Z</time>
      </trkpt>
      <trkpt lat="46.60875" lon="5.9035">
        <ele>882.62768554688</ele>
        <time>2012-07-18T09:10:52Z</time>
      </trkpt>
      <trkpt lat="46.60898" lon="5.90331">
        <ele>883.10815429688</ele>
        <time>2012-07-18T09:10:54Z</time>
      </trkpt>
      <trkpt lat="46.60954" lon="5.90236">
        <ele>883.10815429688</ele>
        <time>2012-07-18T09:11:00Z</time>
      </trkpt>
      <trkpt lat="46.60956" lon="5.90157">
        <ele>882.14697265625</ele>
        <time>2012-07-18T09:11:05Z</time>
      </trkpt>
      <trkpt lat="46.60939" lon="5.90135">
        <ele>882.14697265625</ele>
        <time>2012-07-18T09:11:07Z</time>
      </trkpt>
      <trkpt lat="46.6089" lon="5.90067">
        <ele>882.62768554688</ele>
        <time>2012-07-18T09:11:12Z</time>
      </trkpt>
      <trkpt lat="46.60827" lon="5.89874">
        <ele>880.22436523438</ele>
        <time>2012-07-18T09:11:22Z</time>
      </trkpt>
      <trkpt lat="46.60772" lon="5.8964">
        <ele>875.89819335938</ele>
        <time>2012-07-18T09:11:34Z</time>
      </trkpt>
      <trkpt lat="46.60772" lon="5.89625">
        <ele>875.41748046875</ele>
        <time>2012-07-18T09:11:35Z</time>
      </trkpt>
      <trkpt lat="46.60793" lon="5.89586">
        <ele>872.53369140625</ele>
        <time>2012-07-18T09:11:39Z</time>
      </trkpt>
      <trkpt lat="46.6083" lon="5.89607">
        <ele>867.72705078125</ele>
        <time>2012-07-18T09:11:44Z</time>
      </trkpt>
      <trkpt lat="46.609" lon="5.89715">
        <ele>861.47875976562</ele>
        <time>2012-07-18T09:11:52Z</time>
      </trkpt>
      <trkpt lat="46.60954" lon="5.89745">
        <ele>857.63330078125</ele>
        <time>2012-07-18T09:11:56Z</time>
      </trkpt>
      <trkpt lat="46.60993" lon="5.89762">
        <ele>855.22998046875</ele>
        <time>2012-07-18T09:11:59Z</time>
      </trkpt>
      <trkpt lat="46.61057" lon="5.89749">
        <ele>851.384765625</ele>
        <time>2012-07-18T09:12:04Z</time>
      </trkpt>
      <trkpt lat="46.61091" lon="5.89725">
        <ele>848.9814453125</ele>
        <time>2012-07-18T09:12:07Z</time>
      </trkpt>
      <trkpt lat="46.61134" lon="5.89633">
        <ele>843.69409179688</ele>
        <time>2012-07-18T09:12:13Z</time>
      </trkpt>
      <trkpt lat="46.61141" lon="5.89597">
        <ele>842.25219726562</ele>
        <time>2012-07-18T09:12:15Z</time>
      </trkpt>
      <trkpt lat="46.61149" lon="5.89545">
        <ele>839.3681640625</ele>
        <time>2012-07-18T09:12:18Z</time>
      </trkpt>
      <trkpt lat="46.61169" lon="5.89515">
        <ele>835.52294921875</ele>
        <time>2012-07-18T09:12:22Z</time>
      </trkpt>
      <trkpt lat="46.61235" lon="5.89502">
        <ele>828.31323242188</ele>
        <time>2012-07-18T09:12:30Z</time>
      </trkpt>
      <trkpt lat="46.61383" lon="5.89485">
        <ele>818.21923828125</ele>
        <time>2012-07-18T09:12:42Z</time>
      </trkpt>
      <trkpt lat="46.61413" lon="5.89481">
        <ele>815.81616210938</ele>
        <time>2012-07-18T09:12:45Z</time>
      </trkpt>
      <trkpt lat="46.61437" lon="5.89442">
        <ele>810.0478515625</ele>
        <time>2012-07-18T09:12:50Z</time>
      </trkpt>
      <trkpt lat="46.614" lon="5.8941">
        <ele>806.20263671875</ele>
        <time>2012-07-18T09:12:54Z</time>
      </trkpt>
      <trkpt lat="46.61299" lon="5.89359">
        <ele>798.99291992188</ele>
        <time>2012-07-18T09:13:03Z</time>
      </trkpt>
      <trkpt lat="46.61282" lon="5.89303">
        <ele>794.66674804688</ele>
        <time>2012-07-18T09:13:08Z</time>
      </trkpt>
      <trkpt lat="46.61306" lon="5.89271">
        <ele>791.78295898438</ele>
        <time>2012-07-18T09:13:11Z</time>
      </trkpt>
      <trkpt lat="46.614" lon="5.8917">
        <ele>784.5732421875</ele>
        <time>2012-07-18T09:13:20Z</time>
      </trkpt>
      <trkpt lat="46.61478" lon="5.89138">
        <ele>779.76635742188</ele>
        <time>2012-07-18T09:13:27Z</time>
      </trkpt>
      <trkpt lat="46.61501" lon="5.89138">
        <ele>777.36328125</ele>
        <time>2012-07-18T09:13:30Z</time>
      </trkpt>
      <trkpt lat="46.61516" lon="5.89108">
        <ele>774.47924804688</ele>
        <time>2012-07-18T09:13:35Z</time>
      </trkpt>
      <trkpt lat="46.61499" lon="5.89082">
        <ele>773.03735351562</ele>
        <time>2012-07-18T09:13:38Z</time>
      </trkpt>
      <trkpt lat="46.61475" lon="5.89056">
        <ele>772.07592773438</ele>
        <time>2012-07-18T09:13:41Z</time>
      </trkpt>
      <trkpt lat="46.61437" lon="5.88992">
        <ele>770.1533203125</ele>
        <time>2012-07-18T09:13:47Z</time>
      </trkpt>
      <trkpt lat="46.61428" lon="5.88919">
        <ele>768.23071289062</ele>
        <time>2012-07-18T09:13:52Z</time>
      </trkpt>
      <trkpt lat="46.6143" lon="5.88833">
        <ele>766.78881835938</ele>
        <time>2012-07-18T09:13:57Z</time>
      </trkpt>
      <trkpt lat="46.61454" lon="5.88698">
        <ele>765.34692382812</ele>
        <time>2012-07-18T09:14:07Z</time>
      </trkpt>
      <trkpt lat="46.6146" lon="5.88668">
        <ele>765.82763671875</ele>
        <time>2012-07-18T09:14:16Z</time>
      </trkpt>
      <trkpt lat="46.61458" lon="5.88646">
        <ele>765.82763671875</ele>
        <time>2012-07-18T09:14:22Z</time>
      </trkpt>
      <trkpt lat="46.6145" lon="5.8864">
        <ele>765.34692382812</ele>
        <time>2012-07-18T09:14:28Z</time>
      </trkpt>
      <trkpt lat="46.61448" lon="5.88638">
        <ele>765.34692382812</ele>
        <time>2012-07-18T09:14:30Z</time>
      </trkpt>
      <trkpt lat="46.61437" lon="5.88625">
        <ele>766.30810546875</ele>
        <time>2012-07-18T09:14:39Z</time>
      </trkpt>
      <trkpt lat="46.61435" lon="5.88625">
        <ele>769.19213867188</ele>
        <time>2012-07-18T09:14:59Z</time>
      </trkpt>
      <trkpt lat="46.61437" lon="5.88627">
        <ele>770.63403320312</ele>
        <time>2012-07-18T09:15:10Z</time>
      </trkpt>
      <trkpt lat="46.61443" lon="5.88631">
        <ele>771.11474609375</ele>
        <time>2012-07-18T09:15:17Z</time>
      </trkpt>
      <trkpt lat="46.61452" lon="5.88631">
        <ele>770.63403320312</ele>
        <time>2012-07-18T09:15:24Z</time>
      </trkpt>
      <trkpt lat="46.61454" lon="5.88631">
        <ele>769.6728515625</ele>
        <time>2012-07-18T09:15:28Z</time>
      </trkpt>
      <trkpt lat="46.61456" lon="5.88627">
        <ele>769.19213867188</ele>
        <time>2012-07-18T09:15:33Z</time>
      </trkpt>
      <trkpt lat="46.61458" lon="5.88623">
        <ele>770.63403320312</ele>
        <time>2012-07-18T09:15:39Z</time>
      </trkpt>
      <trkpt lat="46.61465" lon="5.88612">
        <ele>773.03735351562</ele>
        <time>2012-07-18T09:15:46Z</time>
      </trkpt>
      <trkpt lat="46.61473" lon="5.88605">
        <ele>774.9599609375</ele>
        <time>2012-07-18T09:15:54Z</time>
      </trkpt>
      <trkpt lat="46.61475" lon="5.88601">
        <ele>775.92114257812</ele>
        <time>2012-07-18T09:15:58Z</time>
      </trkpt>
      <trkpt lat="46.61482" lon="5.88586">
        <ele>774.9599609375</ele>
        <time>2012-07-18T09:16:04Z</time>
      </trkpt>
      <trkpt lat="46.6149" lon="5.88571">
        <ele>772.556640625</ele>
        <time>2012-07-18T09:16:14Z</time>
      </trkpt>
      <trkpt lat="46.61493" lon="5.88565">
        <ele>773.03735351562</ele>
        <time>2012-07-18T09:16:26Z</time>
      </trkpt>
      <trkpt lat="46.61493" lon="5.8856">
        <ele>772.556640625</ele>
        <time>2012-07-18T09:16:42Z</time>
      </trkpt>
      <trkpt lat="46.61482" lon="5.88554">
        <ele>772.556640625</ele>
        <time>2012-07-18T09:16:54Z</time>
      </trkpt>
      <trkpt lat="46.61482" lon="5.88554">
        <ele>773.03735351562</ele>
        <time>2012-07-18T09:17:08Z</time>
      </trkpt>
      <trkpt lat="46.61484" lon="5.88556">
        <ele>773.03735351562</ele>
        <time>2012-07-18T09:17:15Z</time>
      </trkpt>
      <trkpt lat="46.61486" lon="5.88558">
        <ele>773.51806640625</ele>
        <time>2012-07-18T09:17:19Z</time>
      </trkpt>
      <trkpt lat="46.61493" lon="5.88554">
        <ele>773.51806640625</ele>
        <time>2012-07-18T09:17:25Z</time>
      </trkpt>
      <trkpt lat="46.6151" lon="5.88552">
        <ele>771.11474609375</ele>
        <time>2012-07-18T09:17:39Z</time>
      </trkpt>
      <trkpt lat="46.61512" lon="5.88554">
        <ele>771.59521484375</ele>
        <time>2012-07-18T09:17:53Z</time>
      </trkpt>
      <trkpt lat="46.6151" lon="5.88554">
        <ele>771.11474609375</ele>
        <time>2012-07-18T09:18:05Z</time>
      </trkpt>
      <trkpt lat="46.61508" lon="5.88556">
        <ele>769.6728515625</ele>
        <time>2012-07-18T09:18:11Z</time>
      </trkpt>
      <trkpt lat="46.61503" lon="5.88554">
        <ele>768.71142578125</ele>
        <time>2012-07-18T09:18:19Z</time>
      </trkpt>
      <trkpt lat="46.61484" lon="5.88562">
        <ele>773.51806640625</ele>
        <time>2012-07-18T09:18:30Z</time>
      </trkpt>
      <trkpt lat="46.61475" lon="5.88558">
        <ele>772.556640625</ele>
        <time>2012-07-18T09:18:36Z</time>
      </trkpt>
      <trkpt lat="46.61471" lon="5.88556">
        <ele>771.11474609375</ele>
        <time>2012-07-18T09:18:43Z</time>
      </trkpt>
      <trkpt lat="46.61463" lon="5.88543">
        <ele>769.19213867188</ele>
        <time>2012-07-18T09:18:53Z</time>
      </trkpt>
      <trkpt lat="46.61443" lon="5.88537">
        <ele>772.556640625</ele>
        <time>2012-07-18T09:19:02Z</time>
      </trkpt>
      <trkpt lat="46.61439" lon="5.88537">
        <ele>781.68920898438</ele>
        <time>2012-07-18T09:19:14Z</time>
      </trkpt>
      <trkpt lat="46.61424" lon="5.88535">
        <ele>786.01513671875</ele>
        <time>2012-07-18T09:19:20Z</time>
      </trkpt>
      <trkpt lat="46.61415" lon="5.8853">
        <ele>788.89916992188</ele>
        <time>2012-07-18T09:19:29Z</time>
      </trkpt>
      <trkpt lat="46.61409" lon="5.88528">
        <ele>787.93774414062</ele>
        <time>2012-07-18T09:19:32Z</time>
      </trkpt>
      <trkpt lat="46.61394" lon="5.88509">
        <ele>784.09252929688</ele>
        <time>2012-07-18T09:19:41Z</time>
      </trkpt>
      <trkpt lat="46.6139" lon="5.88502">
        <ele>779.28564453125</ele>
        <time>2012-07-18T09:19:47Z</time>
      </trkpt>
      <trkpt lat="46.61383" lon="5.88496">
        <ele>776.88256835938</ele>
        <time>2012-07-18T09:19:51Z</time>
      </trkpt>
      <trkpt lat="46.61377" lon="5.88487">
        <ele>774.47924804688</ele>
        <time>2012-07-18T09:20:01Z</time>
      </trkpt>
      <trkpt lat="46.6137" lon="5.88483">
        <ele>774.47924804688</ele>
        <time>2012-07-18T09:20:05Z</time>
      </trkpt>
      <trkpt lat="46.61362" lon="5.88477">
        <ele>775.4404296875</ele>
        <time>2012-07-18T09:20:17Z</time>
      </trkpt>
      <trkpt lat="46.61351" lon="5.88472">
        <ele>773.03735351562</ele>
        <time>2012-07-18T09:20:27Z</time>
      </trkpt>
      <trkpt lat="46.6134" lon="5.8847">
        <ele>771.59521484375</ele>
        <time>2012-07-18T09:20:34Z</time>
      </trkpt>
      <trkpt lat="46.6133" lon="5.88466">
        <ele>769.19213867188</ele>
        <time>2012-07-18T09:20:43Z</time>
      </trkpt>
      <trkpt lat="46.61321" lon="5.88462">
        <ele>767.75</ele>
        <time>2012-07-18T09:20:48Z</time>
      </trkpt>
      <trkpt lat="46.6131" lon="5.88451">
        <ele>764.38549804688</ele>
        <time>2012-07-18T09:20:56Z</time>
      </trkpt>
      <trkpt lat="46.61302" lon="5.88444">
        <ele>760.5400390625</ele>
        <time>2012-07-18T09:21:07Z</time>
      </trkpt>
      <trkpt lat="46.61284" lon="5.88432">
        <ele>759.09814453125</ele>
        <time>2012-07-18T09:21:18Z</time>
      </trkpt>
      <trkpt lat="46.61276" lon="5.88419">
        <ele>758.13696289062</ele>
        <time>2012-07-18T09:21:27Z</time>
      </trkpt>
      <trkpt lat="46.61265" lon="5.88408">
        <ele>755.73364257812</ele>
        <time>2012-07-18T09:21:35Z</time>
      </trkpt>
      <trkpt lat="46.61254" lon="5.88402">
        <ele>752.36889648438</ele>
        <time>2012-07-18T09:21:44Z</time>
      </trkpt>
      <trkpt lat="46.6125" lon="5.88397">
        <ele>751.40771484375</ele>
        <time>2012-07-18T09:21:48Z</time>
      </trkpt>
      <trkpt lat="46.61235" lon="5.88387">
        <ele>749.48510742188</ele>
        <time>2012-07-18T09:21:59Z</time>
      </trkpt>
      <trkpt lat="46.61229" lon="5.8838">
        <ele>748.52368164062</ele>
        <time>2012-07-18T09:22:03Z</time>
      </trkpt>
      <trkpt lat="46.61224" lon="5.88374">
        <ele>748.04321289062</ele>
        <time>2012-07-18T09:22:12Z</time>
      </trkpt>
      <trkpt lat="46.6122" lon="5.88367">
        <ele>744.19775390625</ele>
        <time>2012-07-18T09:22:23Z</time>
      </trkpt>
      <trkpt lat="46.61216" lon="5.88365">
        <ele>743.236328125</ele>
        <time>2012-07-18T09:22:31Z</time>
      </trkpt>
      <trkpt lat="46.61214" lon="5.88359">
        <ele>740.8330078125</ele>
        <time>2012-07-18T09:22:40Z</time>
      </trkpt>
      <trkpt lat="46.61203" lon="5.88354">
        <ele>736.02661132812</ele>
        <time>2012-07-18T09:22:52Z</time>
      </trkpt>
      <trkpt lat="46.61199" lon="5.88354">
        <ele>730.25854492188</ele>
        <time>2012-07-18T09:23:02Z</time>
      </trkpt>
      <trkpt lat="46.61199" lon="5.88356">
        <ele>728.81665039062</ele>
        <time>2012-07-18T09:23:05Z</time>
      </trkpt>
      <trkpt lat="46.61199" lon="5.88369">
        <ele>725.45190429688</ele>
        <time>2012-07-18T09:23:16Z</time>
      </trkpt>
      <trkpt lat="46.61196" lon="5.88374">
        <ele>724.97143554688</ele>
        <time>2012-07-18T09:23:19Z</time>
      </trkpt>
      <trkpt lat="46.61194" lon="5.88384">
        <ele>725.45190429688</ele>
        <time>2012-07-18T09:23:34Z</time>
      </trkpt>
      <trkpt lat="46.61192" lon="5.88382">
        <ele>725.45190429688</ele>
        <time>2012-07-18T09:23:39Z</time>
      </trkpt>
      <trkpt lat="46.61192" lon="5.8838">
        <ele>725.45190429688</ele>
        <time>2012-07-18T09:23:43Z</time>
      </trkpt>
      <trkpt lat="46.61194" lon="5.88372">
        <ele>721.12622070312</ele>
        <time>2012-07-18T09:23:52Z</time>
      </trkpt>
      <trkpt lat="46.61196" lon="5.88369">
        <ele>713.916015625</ele>
        <time>2012-07-18T09:24:10Z</time>
      </trkpt>
      <trkpt lat="46.61196" lon="5.88369">
        <ele>711.99365234375</ele>
        <time>2012-07-18T09:26:08Z</time>
      </trkpt>
      <trkpt lat="46.61196" lon="5.88369">
        <ele>711.99365234375</ele>
        <time>2012-07-18T09:26:31Z</time>
      </trkpt>
      <trkpt lat="46.61196" lon="5.88361">
        <ele>712.95483398438</ele>
        <time>2012-07-18T09:27:00Z</time>
      </trkpt>
      <trkpt lat="46.61199" lon="5.88356">
        <ele>714.39672851562</ele>
        <time>2012-07-18T09:27:14Z</time>
      </trkpt>
      <trkpt lat="46.61194" lon="5.88356">
        <ele>715.35815429688</ele>
        <time>2012-07-18T09:27:33Z</time>
      </trkpt>
      <trkpt lat="46.61192" lon="5.88359">
        <ele>715.35815429688</ele>
        <time>2012-07-18T09:27:36Z</time>
      </trkpt>
      <trkpt lat="46.61186" lon="5.88363">
        <ele>715.35815429688</ele>
        <time>2012-07-18T09:27:40Z</time>
      </trkpt>
      <trkpt lat="46.61184" lon="5.88363">
        <ele>715.35815429688</ele>
        <time>2012-07-18T09:27:43Z</time>
      </trkpt>
      <trkpt lat="46.61181" lon="5.88374">
        <ele>713.435546875</ele>
        <time>2012-07-18T09:27:52Z</time>
      </trkpt>
      <trkpt lat="46.61177" lon="5.88384">
        <ele>711.51293945312</ele>
        <time>2012-07-18T09:28:09Z</time>
      </trkpt>
      <trkpt lat="46.61166" lon="5.88397">
        <ele>716.31958007812</ele>
        <time>2012-07-18T09:28:47Z</time>
      </trkpt>
      <trkpt lat="46.61169" lon="5.88389">
        <ele>715.8388671875</ele>
        <time>2012-07-18T09:28:52Z</time>
      </trkpt>
      <trkpt lat="46.61169" lon="5.88384">
        <ele>712.47412109375</ele>
        <time>2012-07-18T09:28:57Z</time>
      </trkpt>
      <trkpt lat="46.61171" lon="5.88384">
        <ele>711.51293945312</ele>
        <time>2012-07-18T09:28:59Z</time>
      </trkpt>
      <trkpt lat="46.61175" lon="5.88378">
        <ele>710.07080078125</ele>
        <time>2012-07-18T09:29:03Z</time>
      </trkpt>
      <trkpt lat="46.61177" lon="5.88376">
        <ele>710.07080078125</ele>
        <time>2012-07-18T09:29:05Z</time>
      </trkpt>
      <trkpt lat="46.61179" lon="5.88374">
        <ele>710.07080078125</ele>
        <time>2012-07-18T09:29:07Z</time>
      </trkpt>
      <trkpt lat="46.61184" lon="5.88369">
        <ele>709.10961914062</ele>
        <time>2012-07-18T09:29:11Z</time>
      </trkpt>
      <trkpt lat="46.61188" lon="5.88365">
        <ele>708.1484375</ele>
        <time>2012-07-18T09:29:15Z</time>
      </trkpt>
      <trkpt lat="46.61196" lon="5.88361">
        <ele>706.70629882812</ele>
        <time>2012-07-18T09:29:23Z</time>
      </trkpt>
      <trkpt lat="46.61203" lon="5.88363">
        <ele>705.26440429688</ele>
        <time>2012-07-18T09:29:38Z</time>
      </trkpt>
      <trkpt lat="46.61201" lon="5.88361">
        <ele>705.26440429688</ele>
        <time>2012-07-18T09:29:46Z</time>
      </trkpt>
      <trkpt lat="46.61192" lon="5.88354">
        <ele>710.55151367188</ele>
        <time>2012-07-18T09:29:54Z</time>
      </trkpt>
      <trkpt lat="46.61186" lon="5.88346">
        <ele>711.99365234375</ele>
        <time>2012-07-18T09:30:03Z</time>
      </trkpt>
      <trkpt lat="46.61184" lon="5.88344">
        <ele>712.47412109375</ele>
        <time>2012-07-18T09:30:05Z</time>
      </trkpt>
      <trkpt lat="46.61175" lon="5.88335">
        <ele>719.20361328125</ele>
        <time>2012-07-18T09:30:11Z</time>
      </trkpt>
      <trkpt lat="46.61164" lon="5.88326">
        <ele>722.56811523438</ele>
        <time>2012-07-18T09:30:20Z</time>
      </trkpt>
      <trkpt lat="46.61162" lon="5.88324">
        <ele>722.56811523438</ele>
        <time>2012-07-18T09:30:22Z</time>
      </trkpt>
      <trkpt lat="46.61164" lon="5.88311">
        <ele>722.08740234375</ele>
        <time>2012-07-18T09:30:30Z</time>
      </trkpt>
      <trkpt lat="46.61164" lon="5.88311">
        <ele>721.60668945312</ele>
        <time>2012-07-18T09:30:31Z</time>
      </trkpt>
      <trkpt lat="46.61166" lon="5.88292">
        <ele>719.68432617188</ele>
        <time>2012-07-18T09:30:39Z</time>
      </trkpt>
      <trkpt lat="46.61164" lon="5.88279">
        <ele>718.72290039062</ele>
        <time>2012-07-18T09:30:50Z</time>
      </trkpt>
      <trkpt lat="46.6116" lon="5.88258">
        <ele>720.6455078125</ele>
        <time>2012-07-18T09:30:59Z</time>
      </trkpt>
      <trkpt lat="46.61156" lon="5.88241">
        <ele>719.20361328125</ele>
        <time>2012-07-18T09:31:08Z</time>
      </trkpt>
      <trkpt lat="46.61156" lon="5.88236">
        <ele>719.20361328125</ele>
        <time>2012-07-18T09:31:11Z</time>
      </trkpt>
      <trkpt lat="46.61149" lon="5.88226">
        <ele>717.76147460938</ele>
        <time>2012-07-18T09:31:19Z</time>
      </trkpt>
      <trkpt lat="46.61143" lon="5.88215">
        <ele>717.28100585938</ele>
        <time>2012-07-18T09:31:29Z</time>
      </trkpt>
      <trkpt lat="46.61134" lon="5.88204">
        <ele>717.76147460938</ele>
        <time>2012-07-18T09:31:35Z</time>
      </trkpt>
      <trkpt lat="46.61126" lon="5.88189">
        <ele>717.76147460938</ele>
        <time>2012-07-18T09:31:48Z</time>
      </trkpt>
      <trkpt lat="46.61124" lon="5.88189">
        <ele>717.76147460938</ele>
        <time>2012-07-18T09:31:49Z</time>
      </trkpt>
      <trkpt lat="46.61117" lon="5.88183">
        <ele>717.76147460938</ele>
        <time>2012-07-18T09:31:59Z</time>
      </trkpt>
      <trkpt lat="46.61106" lon="5.88174">
        <ele>720.6455078125</ele>
        <time>2012-07-18T09:32:07Z</time>
      </trkpt>
      <trkpt lat="46.61096" lon="5.88159">
        <ele>721.12622070312</ele>
        <time>2012-07-18T09:32:20Z</time>
      </trkpt>
      <trkpt lat="46.61091" lon="5.88155">
        <ele>721.12622070312</ele>
        <time>2012-07-18T09:32:25Z</time>
      </trkpt>
      <trkpt lat="46.61091" lon="5.8814">
        <ele>721.12622070312</ele>
        <time>2012-07-18T09:32:31Z</time>
      </trkpt>
      <trkpt lat="46.61089" lon="5.88129">
        <ele>721.60668945312</ele>
        <time>2012-07-18T09:32:40Z</time>
      </trkpt>
      <trkpt lat="46.61089" lon="5.88114">
        <ele>721.60668945312</ele>
        <time>2012-07-18T09:32:46Z</time>
      </trkpt>
      <trkpt lat="46.61091" lon="5.88093">
        <ele>722.56811523438</ele>
        <time>2012-07-18T09:32:56Z</time>
      </trkpt>
      <trkpt lat="46.61093" lon="5.88084">
        <ele>724.49072265625</ele>
        <time>2012-07-18T09:32:59Z</time>
      </trkpt>
      <trkpt lat="46.61096" lon="5.88082">
        <ele>724.97143554688</ele>
        <time>2012-07-18T09:33:01Z</time>
      </trkpt>
      <trkpt lat="46.61104" lon="5.88069">
        <ele>725.45190429688</ele>
        <time>2012-07-18T09:33:11Z</time>
      </trkpt>
      <trkpt lat="46.61115" lon="5.8806">
        <ele>727.85522460938</ele>
        <time>2012-07-18T09:33:21Z</time>
      </trkpt>
      <trkpt lat="46.61121" lon="5.88052">
        <ele>730.25854492188</ele>
        <time>2012-07-18T09:33:29Z</time>
      </trkpt>
      <trkpt lat="46.61128" lon="5.88037">
        <ele>733.62329101562</ele>
        <time>2012-07-18T09:33:39Z</time>
      </trkpt>
      <trkpt lat="46.6113" lon="5.88028">
        <ele>733.62329101562</ele>
        <time>2012-07-18T09:33:44Z</time>
      </trkpt>
      <trkpt lat="46.61132" lon="5.88009">
        <ele>734.58471679688</ele>
        <time>2012-07-18T09:33:51Z</time>
      </trkpt>
      <trkpt lat="46.61136" lon="5.88005">
        <ele>735.0654296875</ele>
        <time>2012-07-18T09:33:54Z</time>
      </trkpt>
      <trkpt lat="46.61141" lon="5.88">
        <ele>735.0654296875</ele>
        <time>2012-07-18T09:33:59Z</time>
      </trkpt>
      <trkpt lat="46.61147" lon="5.87994">
        <ele>736.98779296875</ele>
        <time>2012-07-18T09:34:18Z</time>
      </trkpt>
      <trkpt lat="46.61143" lon="5.87994">
        <ele>736.98779296875</ele>
        <time>2012-07-18T09:34:29Z</time>
      </trkpt>
      <trkpt lat="46.61141" lon="5.87977">
        <ele>735.5458984375</ele>
        <time>2012-07-18T09:34:46Z</time>
      </trkpt>
      <trkpt lat="46.61141" lon="5.8797">
        <ele>736.98779296875</ele>
        <time>2012-07-18T09:34:54Z</time>
      </trkpt>
      <trkpt lat="46.61139" lon="5.87975">
        <ele>736.50732421875</ele>
        <time>2012-07-18T09:35:00Z</time>
      </trkpt>
      <trkpt lat="46.61141" lon="5.87983">
        <ele>735.0654296875</ele>
        <time>2012-07-18T09:35:09Z</time>
      </trkpt>
      <trkpt lat="46.61143" lon="5.87981">
        <ele>734.58471679688</ele>
        <time>2012-07-18T09:35:11Z</time>
      </trkpt>
      <trkpt lat="46.61154" lon="5.8797">
        <ele>733.142578125</ele>
        <time>2012-07-18T09:35:19Z</time>
      </trkpt>
      <trkpt lat="46.61164" lon="5.87964">
        <ele>731.70043945312</ele>
        <time>2012-07-18T09:35:29Z</time>
      </trkpt>
      <trkpt lat="46.61173" lon="5.87955">
        <ele>731.21997070312</ele>
        <time>2012-07-18T09:35:34Z</time>
      </trkpt>
      <trkpt lat="46.61181" lon="5.87947">
        <ele>731.21997070312</ele>
        <time>2012-07-18T09:35:43Z</time>
      </trkpt>
      <trkpt lat="46.61184" lon="5.87947">
        <ele>730.7392578125</ele>
        <time>2012-07-18T09:35:45Z</time>
      </trkpt>
      <trkpt lat="46.6119" lon="5.87929">
        <ele>728.3359375</ele>
        <time>2012-07-18T09:35:54Z</time>
      </trkpt>
      <trkpt lat="46.6119" lon="5.87925">
        <ele>727.37475585938</ele>
        <time>2012-07-18T09:35:58Z</time>
      </trkpt>
      <trkpt lat="46.61194" lon="5.87904">
        <ele>724.97143554688</ele>
        <time>2012-07-18T09:36:09Z</time>
      </trkpt>
      <trkpt lat="46.61194" lon="5.87902">
        <ele>724.97143554688</ele>
        <time>2012-07-18T09:36:10Z</time>
      </trkpt>
      <trkpt lat="46.61192" lon="5.87895">
        <ele>724.49072265625</ele>
        <time>2012-07-18T09:36:14Z</time>
      </trkpt>
      <trkpt lat="46.61192" lon="5.87889">
        <ele>724.01000976562</ele>
        <time>2012-07-18T09:36:17Z</time>
      </trkpt>
      <trkpt lat="46.61199" lon="5.87876">
        <ele>723.52954101562</ele>
        <time>2012-07-18T09:36:27Z</time>
      </trkpt>
      <trkpt lat="46.61201" lon="5.87872">
        <ele>724.01000976562</ele>
        <time>2012-07-18T09:36:30Z</time>
      </trkpt>
      <trkpt lat="46.61209" lon="5.87861">
        <ele>723.52954101562</ele>
        <time>2012-07-18T09:36:39Z</time>
      </trkpt>
      <trkpt lat="46.61211" lon="5.87859">
        <ele>722.56811523438</ele>
        <time>2012-07-18T09:36:42Z</time>
      </trkpt>
      <trkpt lat="46.61214" lon="5.87854">
        <ele>722.08740234375</ele>
        <time>2012-07-18T09:36:44Z</time>
      </trkpt>
      <trkpt lat="46.61211" lon="5.8785">
        <ele>721.60668945312</ele>
        <time>2012-07-18T09:36:46Z</time>
      </trkpt>
      <trkpt lat="46.61218" lon="5.87835">
        <ele>722.56811523438</ele>
        <time>2012-07-18T09:36:53Z</time>
      </trkpt>
      <trkpt lat="46.6122" lon="5.87829">
        <ele>722.56811523438</ele>
        <time>2012-07-18T09:36:57Z</time>
      </trkpt>
      <trkpt lat="46.61229" lon="5.87809">
        <ele>722.08740234375</ele>
        <time>2012-07-18T09:37:08Z</time>
      </trkpt>
      <trkpt lat="46.61231" lon="5.87799">
        <ele>721.60668945312</ele>
        <time>2012-07-18T09:37:16Z</time>
      </trkpt>
      <trkpt lat="46.61235" lon="5.87781">
        <ele>720.6455078125</ele>
        <time>2012-07-18T09:37:23Z</time>
      </trkpt>
      <trkpt lat="46.61239" lon="5.87766">
        <ele>718.72290039062</ele>
        <time>2012-07-18T09:37:34Z</time>
      </trkpt>
      <trkpt lat="46.61246" lon="5.87751">
        <ele>716.31958007812</ele>
        <time>2012-07-18T09:37:43Z</time>
      </trkpt>
      <trkpt lat="46.6125" lon="5.87741">
        <ele>714.87744140625</ele>
        <time>2012-07-18T09:37:50Z</time>
      </trkpt>
      <trkpt lat="46.61252" lon="5.87723">
        <ele>711.99365234375</ele>
        <time>2012-07-18T09:38:01Z</time>
      </trkpt>
      <trkpt lat="46.61254" lon="5.87717">
        <ele>711.51293945312</ele>
        <time>2012-07-18T09:38:04Z</time>
      </trkpt>
      <trkpt lat="46.61263" lon="5.87702">
        <ele>710.07080078125</ele>
        <time>2012-07-18T09:38:14Z</time>
      </trkpt>
      <trkpt lat="46.61269" lon="5.87685">
        <ele>709.59033203125</ele>
        <time>2012-07-18T09:38:22Z</time>
      </trkpt>
      <trkpt lat="46.61274" lon="5.87666">
        <ele>709.59033203125</ele>
        <time>2012-07-18T09:38:32Z</time>
      </trkpt>
      <trkpt lat="46.6128" lon="5.87651">
        <ele>710.07080078125</ele>
        <time>2012-07-18T09:38:41Z</time>
      </trkpt>
      <trkpt lat="46.61276" lon="5.87625">
        <ele>709.59033203125</ele>
        <time>2012-07-18T09:38:55Z</time>
      </trkpt>
      <trkpt lat="46.6128" lon="5.87601">
        <ele>708.62890625</ele>
        <time>2012-07-18T09:39:07Z</time>
      </trkpt>
      <trkpt lat="46.61287" lon="5.87588">
        <ele>708.62890625</ele>
        <time>2012-07-18T09:39:16Z</time>
      </trkpt>
      <trkpt lat="46.61287" lon="5.87571">
        <ele>709.59033203125</ele>
        <time>2012-07-18T09:39:26Z</time>
      </trkpt>
      <trkpt lat="46.61287" lon="5.87554">
        <ele>710.55151367188</ele>
        <time>2012-07-18T09:39:35Z</time>
      </trkpt>
      <trkpt lat="46.61291" lon="5.87545">
        <ele>711.99365234375</ele>
        <time>2012-07-18T09:39:42Z</time>
      </trkpt>
      <trkpt lat="46.61297" lon="5.8753">
        <ele>715.8388671875</ele>
        <time>2012-07-18T09:39:48Z</time>
      </trkpt>
      <trkpt lat="46.61304" lon="5.8752">
        <ele>719.68432617188</ele>
        <time>2012-07-18T09:39:55Z</time>
      </trkpt>
      <trkpt lat="46.61312" lon="5.87511">
        <ele>720.16479492188</ele>
        <time>2012-07-18T09:40:05Z</time>
      </trkpt>
      <trkpt lat="46.61334" lon="5.87496">
        <ele>721.60668945312</ele>
        <time>2012-07-18T09:40:18Z</time>
      </trkpt>
      <trkpt lat="46.61336" lon="5.87492">
        <ele>721.60668945312</ele>
        <time>2012-07-18T09:40:24Z</time>
      </trkpt>
      <trkpt lat="46.61345" lon="5.87477">
        <ele>721.60668945312</ele>
        <time>2012-07-18T09:40:35Z</time>
      </trkpt>
      <trkpt lat="46.61342" lon="5.87475">
        <ele>724.49072265625</ele>
        <time>2012-07-18T09:40:42Z</time>
      </trkpt>
      <trkpt lat="46.61342" lon="5.87475">
        <ele>725.45190429688</ele>
        <time>2012-07-18T09:40:49Z</time>
      </trkpt>
      <trkpt lat="46.61342" lon="5.87472">
        <ele>726.41333007812</ele>
        <time>2012-07-18T09:40:53Z</time>
      </trkpt>
      <trkpt lat="46.61342" lon="5.87472">
        <ele>727.37475585938</ele>
        <time>2012-07-18T09:41:01Z</time>
      </trkpt>
      <trkpt lat="46.61347" lon="5.87468">
        <ele>727.85522460938</ele>
        <time>2012-07-18T09:41:05Z</time>
      </trkpt>
      <trkpt lat="46.61349" lon="5.87468">
        <ele>728.3359375</ele>
        <time>2012-07-18T09:41:09Z</time>
      </trkpt>
      <trkpt lat="46.61353" lon="5.87457">
        <ele>728.81665039062</ele>
        <time>2012-07-18T09:41:17Z</time>
      </trkpt>
      <trkpt lat="46.61355" lon="5.87451">
        <ele>728.3359375</ele>
        <time>2012-07-18T09:41:21Z</time>
      </trkpt>
      <trkpt lat="46.61357" lon="5.8744">
        <ele>727.37475585938</ele>
        <time>2012-07-18T09:41:26Z</time>
      </trkpt>
      <trkpt lat="46.61366" lon="5.87434">
        <ele>727.37475585938</ele>
        <time>2012-07-18T09:41:37Z</time>
      </trkpt>
      <trkpt lat="46.61368" lon="5.87432">
        <ele>726.89404296875</ele>
        <time>2012-07-18T09:41:40Z</time>
      </trkpt>
      <trkpt lat="46.61375" lon="5.87423">
        <ele>725.45190429688</ele>
        <time>2012-07-18T09:41:47Z</time>
      </trkpt>
      <trkpt lat="46.61375" lon="5.87399">
        <ele>723.048828125</ele>
        <time>2012-07-18T09:41:56Z</time>
      </trkpt>
      <trkpt lat="46.6137" lon="5.87389">
        <ele>721.60668945312</ele>
        <time>2012-07-18T09:42:02Z</time>
      </trkpt>
      <trkpt lat="46.61364" lon="5.87372">
        <ele>718.72290039062</ele>
        <time>2012-07-18T09:42:14Z</time>
      </trkpt>
      <trkpt lat="46.61357" lon="5.87365">
        <ele>718.2421875</ele>
        <time>2012-07-18T09:42:18Z</time>
      </trkpt>
      <trkpt lat="46.61355" lon="5.8735">
        <ele>718.2421875</ele>
        <time>2012-07-18T09:42:32Z</time>
      </trkpt>
      <trkpt lat="46.61351" lon="5.87329">
        <ele>717.76147460938</ele>
        <time>2012-07-18T09:42:43Z</time>
      </trkpt>
      <trkpt lat="46.61347" lon="5.87314">
        <ele>716.80029296875</ele>
        <time>2012-07-18T09:42:52Z</time>
      </trkpt>
      <trkpt lat="46.61342" lon="5.87296">
        <ele>717.76147460938</ele>
        <time>2012-07-18T09:43:01Z</time>
      </trkpt>
      <trkpt lat="46.6134" lon="5.87281">
        <ele>718.72290039062</ele>
        <time>2012-07-18T09:43:08Z</time>
      </trkpt>
      <trkpt lat="46.61336" lon="5.8726">
        <ele>720.6455078125</ele>
        <time>2012-07-18T09:43:21Z</time>
      </trkpt>
      <trkpt lat="46.6133" lon="5.87239">
        <ele>722.56811523438</ele>
        <time>2012-07-18T09:43:32Z</time>
      </trkpt>
      <trkpt lat="46.6133" lon="5.87221">
        <ele>724.49072265625</ele>
        <time>2012-07-18T09:43:42Z</time>
      </trkpt>
      <trkpt lat="46.6133" lon="5.87206">
        <ele>726.41333007812</ele>
        <time>2012-07-18T09:43:52Z</time>
      </trkpt>
      <trkpt lat="46.61332" lon="5.87191">
        <ele>723.52954101562</ele>
        <time>2012-07-18T09:43:59Z</time>
      </trkpt>
      <trkpt lat="46.61334" lon="5.87181">
        <ele>719.20361328125</ele>
        <time>2012-07-18T09:44:08Z</time>
      </trkpt>
      <trkpt lat="46.61338" lon="5.87146">
        <ele>711.51293945312</ele>
        <time>2012-07-18T09:44:26Z</time>
      </trkpt>
      <trkpt lat="46.61338" lon="5.87136">
        <ele>709.10961914062</ele>
        <time>2012-07-18T09:44:32Z</time>
      </trkpt>
      <trkpt lat="46.61336" lon="5.87116">
        <ele>707.18701171875</ele>
        <time>2012-07-18T09:44:41Z</time>
      </trkpt>
      <trkpt lat="46.61334" lon="5.87106">
        <ele>707.18701171875</ele>
        <time>2012-07-18T09:44:47Z</time>
      </trkpt>
      <trkpt lat="46.61334" lon="5.87088">
        <ele>704.30322265625</ele>
        <time>2012-07-18T09:44:55Z</time>
      </trkpt>
      <trkpt lat="46.61336" lon="5.8708">
        <ele>701.41918945312</ele>
        <time>2012-07-18T09:45:01Z</time>
      </trkpt>
      <trkpt lat="46.61336" lon="5.87073">
        <ele>699.97705078125</ele>
        <time>2012-07-18T09:45:05Z</time>
      </trkpt>
      <trkpt lat="46.61336" lon="5.87065">
        <ele>698.53491210938</ele>
        <time>2012-07-18T09:45:08Z</time>
      </trkpt>
      <trkpt lat="46.6134" lon="5.87045">
        <ele>694.68969726562</ele>
        <time>2012-07-18T09:45:15Z</time>
      </trkpt>
      <trkpt lat="46.6134" lon="5.87041">
        <ele>693.24780273438</ele>
        <time>2012-07-18T09:45:17Z</time>
      </trkpt>
      <trkpt lat="46.61345" lon="5.8703">
        <ele>690.84448242188</ele>
        <time>2012-07-18T09:45:25Z</time>
      </trkpt>
      <trkpt lat="46.61345" lon="5.87015">
        <ele>691.3251953125</ele>
        <time>2012-07-18T09:45:34Z</time>
      </trkpt>
      <trkpt lat="46.61349" lon="5.86996">
        <ele>692.28662109375</ele>
        <time>2012-07-18T09:45:46Z</time>
      </trkpt>
      <trkpt lat="46.61353" lon="5.86981">
        <ele>693.24780273438</ele>
        <time>2012-07-18T09:45:54Z</time>
      </trkpt>
      <trkpt lat="46.61353" lon="5.86975">
        <ele>694.20922851562</ele>
        <time>2012-07-18T09:45:57Z</time>
      </trkpt>
      <trkpt lat="46.61353" lon="5.8697">
        <ele>695.65112304688</ele>
        <time>2012-07-18T09:45:59Z</time>
      </trkpt>
      <trkpt lat="46.61355" lon="5.86951">
        <ele>700.4580078125</ele>
        <time>2012-07-18T09:46:07Z</time>
      </trkpt>
      <trkpt lat="46.61357" lon="5.86936">
        <ele>704.30322265625</ele>
        <time>2012-07-18T09:46:17Z</time>
      </trkpt>
      <trkpt lat="46.6136" lon="5.86932">
        <ele>705.26440429688</ele>
        <time>2012-07-18T09:46:23Z</time>
      </trkpt>
      <trkpt lat="46.61366" lon="5.86919">
        <ele>707.18701171875</ele>
        <time>2012-07-18T09:46:30Z</time>
      </trkpt>
      <trkpt lat="46.61375" lon="5.86912">
        <ele>709.10961914062</ele>
        <time>2012-07-18T09:46:40Z</time>
      </trkpt>
      <trkpt lat="46.61385" lon="5.86895">
        <ele>711.99365234375</ele>
        <time>2012-07-18T09:46:52Z</time>
      </trkpt>
      <trkpt lat="46.61394" lon="5.8688">
        <ele>711.99365234375</ele>
        <time>2012-07-18T09:47:03Z</time>
      </trkpt>
      <trkpt lat="46.614" lon="5.86874">
        <ele>713.435546875</ele>
        <time>2012-07-18T09:47:14Z</time>
      </trkpt>
      <trkpt lat="46.61405" lon="5.86869">
        <ele>715.35815429688</ele>
        <time>2012-07-18T09:47:44Z</time>
      </trkpt>
      <trkpt lat="46.61405" lon="5.86857">
        <ele>715.8388671875</ele>
        <time>2012-07-18T09:48:04Z</time>
      </trkpt>
      <trkpt lat="46.61413" lon="5.86842">
        <ele>717.76147460938</ele>
        <time>2012-07-18T09:48:37Z</time>
      </trkpt>
      <trkpt lat="46.61417" lon="5.86822">
        <ele>722.56811523438</ele>
        <time>2012-07-18T09:48:59Z</time>
      </trkpt>
      <trkpt lat="46.61422" lon="5.86807">
        <ele>724.01000976562</ele>
        <time>2012-07-18T09:49:10Z</time>
      </trkpt>
      <trkpt lat="46.61422" lon="5.86807">
        <ele>724.01000976562</ele>
        <time>2012-07-18T09:49:11Z</time>
      </trkpt>
      <trkpt lat="46.61426" lon="5.86801">
        <ele>725.45190429688</ele>
        <time>2012-07-18T09:49:17Z</time>
      </trkpt>
      <trkpt lat="46.61426" lon="5.86797">
        <ele>725.9326171875</ele>
        <time>2012-07-18T09:49:19Z</time>
      </trkpt>
      <trkpt lat="46.61428" lon="5.8679">
        <ele>725.45190429688</ele>
        <time>2012-07-18T09:49:27Z</time>
      </trkpt>
      <trkpt lat="46.61433" lon="5.86784">
        <ele>725.45190429688</ele>
        <time>2012-07-18T09:49:35Z</time>
      </trkpt>
      <trkpt lat="46.61441" lon="5.86771">
        <ele>724.49072265625</ele>
        <time>2012-07-18T09:49:47Z</time>
      </trkpt>
      <trkpt lat="46.61443" lon="5.8676">
        <ele>724.49072265625</ele>
        <time>2012-07-18T09:49:57Z</time>
      </trkpt>
      <trkpt lat="46.6145" lon="5.86739">
        <ele>724.01000976562</ele>
        <time>2012-07-18T09:50:09Z</time>
      </trkpt>
      <trkpt lat="46.6145" lon="5.86736">
        <ele>724.01000976562</ele>
        <time>2012-07-18T09:50:10Z</time>
      </trkpt>
      <trkpt lat="46.61448" lon="5.8673">
        <ele>724.01000976562</ele>
        <time>2012-07-18T09:50:13Z</time>
      </trkpt>
      <trkpt lat="46.61456" lon="5.86711">
        <ele>723.52954101562</ele>
        <time>2012-07-18T09:50:24Z</time>
      </trkpt>
      <trkpt lat="46.6146" lon="5.86704">
        <ele>724.49072265625</ele>
        <time>2012-07-18T09:50:28Z</time>
      </trkpt>
      <trkpt lat="46.61467" lon="5.86691">
        <ele>725.9326171875</ele>
        <time>2012-07-18T09:50:35Z</time>
      </trkpt>
      <trkpt lat="46.6148" lon="5.86674">
        <ele>724.49072265625</ele>
        <time>2012-07-18T09:50:46Z</time>
      </trkpt>
      <trkpt lat="46.6149" lon="5.86672">
        <ele>721.60668945312</ele>
        <time>2012-07-18T09:50:57Z</time>
      </trkpt>
      <trkpt lat="46.61497" lon="5.8667">
        <ele>718.72290039062</ele>
        <time>2012-07-18T09:51:08Z</time>
      </trkpt>
      <trkpt lat="46.61508" lon="5.86657">
        <ele>710.55151367188</ele>
        <time>2012-07-18T09:51:15Z</time>
      </trkpt>
      <trkpt lat="46.61508" lon="5.86657">
        <ele>704.30322265625</ele>
        <time>2012-07-18T09:51:36Z</time>
      </trkpt>
      <trkpt lat="46.61501" lon="5.86659">
        <ele>700.9384765625</ele>
        <time>2012-07-18T09:51:50Z</time>
      </trkpt>
      <trkpt lat="46.61497" lon="5.86651">
        <ele>698.53491210938</ele>
        <time>2012-07-18T09:52:02Z</time>
      </trkpt>
      <trkpt lat="46.61499" lon="5.86648">
        <ele>698.05444335938</ele>
        <time>2012-07-18T09:52:06Z</time>
      </trkpt>
      <trkpt lat="46.61503" lon="5.8664">
        <ele>696.61254882812</ele>
        <time>2012-07-18T09:52:19Z</time>
      </trkpt>
      <trkpt lat="46.61503" lon="5.86636">
        <ele>695.65112304688</ele>
        <time>2012-07-18T09:52:25Z</time>
      </trkpt>
      <trkpt lat="46.61503" lon="5.86625">
        <ele>693.728515625</ele>
        <time>2012-07-18T09:52:38Z</time>
      </trkpt>
      <trkpt lat="46.61503" lon="5.86629">
        <ele>693.24780273438</ele>
        <time>2012-07-18T09:52:49Z</time>
      </trkpt>
      <trkpt lat="46.61505" lon="5.86625">
        <ele>693.24780273438</ele>
        <time>2012-07-18T09:53:15Z</time>
      </trkpt>
      <trkpt lat="46.6151" lon="5.86631">
        <ele>695.17041015625</ele>
        <time>2012-07-18T09:54:02Z</time>
      </trkpt>
      <trkpt lat="46.61512" lon="5.86636">
        <ele>695.17041015625</ele>
        <time>2012-07-18T09:54:14Z</time>
      </trkpt>
      <trkpt lat="46.61505" lon="5.86625">
        <ele>685.55737304688</ele>
        <time>2012-07-18T09:54:26Z</time>
      </trkpt>
      <trkpt lat="46.61508" lon="5.86621">
        <ele>665.36962890625</ele>
        <time>2012-07-18T09:55:05Z</time>
      </trkpt>
      <trkpt lat="46.61497" lon="5.86612">
        <ele>668.25366210938</ele>
        <time>2012-07-18T09:55:29Z</time>
      </trkpt>
      <trkpt lat="46.61495" lon="5.86601">
        <ele>671.1376953125</ele>
        <time>2012-07-18T09:55:43Z</time>
      </trkpt>
      <trkpt lat="46.61495" lon="5.86588">
        <ele>674.98291015625</ele>
        <time>2012-07-18T09:55:55Z</time>
      </trkpt>
      <trkpt lat="46.61499" lon="5.86576">
        <ele>677.86669921875</ele>
        <time>2012-07-18T09:56:03Z</time>
      </trkpt>
      <trkpt lat="46.61503" lon="5.8656">
        <ele>681.2314453125</ele>
        <time>2012-07-18T09:56:12Z</time>
      </trkpt>
      <trkpt lat="46.61508" lon="5.86548">
        <ele>683.63452148438</ele>
        <time>2012-07-18T09:56:22Z</time>
      </trkpt>
      <trkpt lat="46.61505" lon="5.86545">
        <ele>683.63452148438</ele>
        <time>2012-07-18T09:56:23Z</time>
      </trkpt>
      <trkpt lat="46.61505" lon="5.86533">
        <ele>686.51879882812</ele>
        <time>2012-07-18T09:56:32Z</time>
      </trkpt>
      <trkpt lat="46.61503" lon="5.86511">
        <ele>689.40258789062</ele>
        <time>2012-07-18T09:56:47Z</time>
      </trkpt>
      <trkpt lat="46.61501" lon="5.86492">
        <ele>691.3251953125</ele>
        <time>2012-07-18T09:57:13Z</time>
      </trkpt>
      <trkpt lat="46.61505" lon="5.86483">
        <ele>692.28662109375</ele>
        <time>2012-07-18T09:57:23Z</time>
      </trkpt>
      <trkpt lat="46.61508" lon="5.86479">
        <ele>694.68969726562</ele>
        <time>2012-07-18T09:57:27Z</time>
      </trkpt>
      <trkpt lat="46.61512" lon="5.86468">
        <ele>696.61254882812</ele>
        <time>2012-07-18T09:57:31Z</time>
      </trkpt>
      <trkpt lat="46.61514" lon="5.8646">
        <ele>699.015625</ele>
        <time>2012-07-18T09:57:38Z</time>
      </trkpt>
      <trkpt lat="46.61514" lon="5.8646">
        <ele>699.015625</ele>
        <time>2012-07-18T09:57:39Z</time>
      </trkpt>
      <trkpt lat="46.61514" lon="5.86457">
        <ele>700.9384765625</ele>
        <time>2012-07-18T09:57:58Z</time>
      </trkpt>
      <trkpt lat="46.6151" lon="5.86462">
        <ele>700.9384765625</ele>
        <time>2012-07-18T09:58:11Z</time>
      </trkpt>
      <trkpt lat="46.61512" lon="5.8646">
        <ele>700.9384765625</ele>
        <time>2012-07-18T09:58:20Z</time>
      </trkpt>
      <trkpt lat="46.61516" lon="5.86451">
        <ele>700.9384765625</ele>
        <time>2012-07-18T09:58:30Z</time>
      </trkpt>
      <trkpt lat="46.61525" lon="5.86434">
        <ele>699.49633789062</ele>
        <time>2012-07-18T09:59:30Z</time>
      </trkpt>
      <trkpt lat="46.61527" lon="5.86427">
        <ele>699.49633789062</ele>
        <time>2012-07-18T09:59:38Z</time>
      </trkpt>
      <trkpt lat="46.61529" lon="5.86417">
        <ele>697.57373046875</ele>
        <time>2012-07-18T09:59:53Z</time>
      </trkpt>
      <trkpt lat="46.61531" lon="5.86389">
        <ele>699.49633789062</ele>
        <time>2012-07-18T10:01:00Z</time>
      </trkpt>
      <trkpt lat="46.61531" lon="5.86387">
        <ele>699.97705078125</ele>
        <time>2012-07-18T10:01:13Z</time>
      </trkpt>
      <trkpt lat="46.6154" lon="5.86374">
        <ele>704.78369140625</ele>
        <time>2012-07-18T10:01:29Z</time>
      </trkpt>
      <trkpt lat="46.6154" lon="5.86363">
        <ele>706.2255859375</ele>
        <time>2012-07-18T10:01:37Z</time>
      </trkpt>
      <trkpt lat="46.6154" lon="5.86357">
        <ele>705.7451171875</ele>
        <time>2012-07-18T10:01:44Z</time>
      </trkpt>
      <trkpt lat="46.6154" lon="5.8635">
        <ele>703.82250976562</ele>
        <time>2012-07-18T10:01:50Z</time>
      </trkpt>
      <trkpt lat="46.61542" lon="5.86335">
        <ele>697.09301757812</ele>
        <time>2012-07-18T10:01:56Z</time>
      </trkpt>
      <trkpt lat="46.61544" lon="5.86318">
        <ele>687.96069335938</ele>
        <time>2012-07-18T10:02:03Z</time>
      </trkpt>
      <trkpt lat="46.61544" lon="5.86312">
        <ele>683.63452148438</ele>
        <time>2012-07-18T10:02:08Z</time>
      </trkpt>
      <trkpt lat="46.61548" lon="5.86297">
        <ele>676.90551757812</ele>
        <time>2012-07-18T10:02:16Z</time>
      </trkpt>
      <trkpt lat="46.61551" lon="5.86297">
        <ele>676.4248046875</ele>
        <time>2012-07-18T10:02:17Z</time>
      </trkpt>
      <trkpt lat="46.61551" lon="5.86292">
        <ele>674.98291015625</ele>
        <time>2012-07-18T10:02:21Z</time>
      </trkpt>
      <trkpt lat="46.61546" lon="5.86282">
        <ele>670.65698242188</ele>
        <time>2012-07-18T10:02:31Z</time>
      </trkpt>
      <trkpt lat="46.61544" lon="5.86275">
        <ele>669.21508789062</ele>
        <time>2012-07-18T10:02:37Z</time>
      </trkpt>
      <trkpt lat="46.61536" lon="5.86267">
        <ele>666.33081054688</ele>
        <time>2012-07-18T10:02:47Z</time>
      </trkpt>
      <trkpt lat="46.61516" lon="5.8626">
        <ele>661.5244140625</ele>
        <time>2012-07-18T10:03:04Z</time>
      </trkpt>
      <trkpt lat="46.61503" lon="5.86249">
        <ele>657.19848632812</ele>
        <time>2012-07-18T10:03:20Z</time>
      </trkpt>
      <trkpt lat="46.61499" lon="5.86221">
        <ele>654.79516601562</ele>
        <time>2012-07-18T10:03:36Z</time>
      </trkpt>
      <trkpt lat="46.61497" lon="5.86183">
        <ele>644.220703125</ele>
        <time>2012-07-18T10:04:13Z</time>
      </trkpt>
      <trkpt lat="46.61501" lon="5.86164">
        <ele>641.33666992188</ele>
        <time>2012-07-18T10:04:24Z</time>
      </trkpt>
      <trkpt lat="46.61495" lon="5.86129">
        <ele>634.607421875</ele>
        <time>2012-07-18T10:04:48Z</time>
      </trkpt>
      <trkpt lat="46.61486" lon="5.86088">
        <ele>625.95556640625</ele>
        <time>2012-07-18T10:06:44Z</time>
      </trkpt>
      <trkpt lat="46.61484" lon="5.86084">
        <ele>626.9169921875</ele>
        <time>2012-07-18T10:06:59Z</time>
      </trkpt>
      <trkpt lat="46.6148" lon="5.86076">
        <ele>629.32006835938</ele>
        <time>2012-07-18T10:07:22Z</time>
      </trkpt>
      <trkpt lat="46.61475" lon="5.86052">
        <ele>636.04956054688</ele>
        <time>2012-07-18T10:07:37Z</time>
      </trkpt>
      <trkpt lat="46.61473" lon="5.86052">
        <ele>639.4140625</ele>
        <time>2012-07-18T10:08:00Z</time>
      </trkpt>
      <trkpt lat="46.61465" lon="5.8603">
        <ele>650.94970703125</ele>
        <time>2012-07-18T10:08:14Z</time>
      </trkpt>
      <trkpt lat="46.61452" lon="5.86026">
        <ele>657.19848632812</ele>
        <time>2012-07-18T10:08:25Z</time>
      </trkpt>
      <trkpt lat="46.61443" lon="5.86018">
        <ele>662.00512695312</ele>
        <time>2012-07-18T10:08:36Z</time>
      </trkpt>
      <trkpt lat="46.61439" lon="5.86007">
        <ele>665.36962890625</ele>
        <time>2012-07-18T10:08:52Z</time>
      </trkpt>
      <trkpt lat="46.61433" lon="5.86">
        <ele>665.36962890625</ele>
        <time>2012-07-18T10:09:02Z</time>
      </trkpt>
      <trkpt lat="46.61424" lon="5.85981">
        <ele>663.44702148438</ele>
        <time>2012-07-18T10:09:20Z</time>
      </trkpt>
      <trkpt lat="46.61424" lon="5.85977">
        <ele>662.48559570312</ele>
        <time>2012-07-18T10:09:24Z</time>
      </trkpt>
      <trkpt lat="46.61428" lon="5.85958">
        <ele>659.60180664062</ele>
        <time>2012-07-18T10:09:39Z</time>
      </trkpt>
      <trkpt lat="46.61422" lon="5.85949">
        <ele>658.64038085938</ele>
        <time>2012-07-18T10:09:46Z</time>
      </trkpt>
      <trkpt lat="46.61402" lon="5.8594">
        <ele>657.19848632812</ele>
        <time>2012-07-18T10:09:59Z</time>
      </trkpt>
      <trkpt lat="46.61392" lon="5.85912">
        <ele>654.31469726562</ele>
        <time>2012-07-18T10:10:40Z</time>
      </trkpt>
      <trkpt lat="46.61383" lon="5.85891">
        <ele>652.39184570312</ele>
        <time>2012-07-18T10:11:00Z</time>
      </trkpt>
      <trkpt lat="46.6137" lon="5.85876">
        <ele>648.06591796875</ele>
        <time>2012-07-18T10:11:18Z</time>
      </trkpt>
      <trkpt lat="46.61366" lon="5.85794">
        <ele>627.39770507812</ele>
        <time>2012-07-18T10:13:38Z</time>
      </trkpt>
      <trkpt lat="46.61364" lon="5.85773">
        <ele>624.03295898438</ele>
        <time>2012-07-18T10:13:58Z</time>
      </trkpt>
      <trkpt lat="46.61366" lon="5.85758">
        <ele>621.14916992188</ele>
        <time>2012-07-18T10:14:08Z</time>
      </trkpt>
      <trkpt lat="46.6137" lon="5.85713">
        <ele>615.86181640625</ele>
        <time>2012-07-18T10:14:58Z</time>
      </trkpt>
      <trkpt lat="46.61379" lon="5.85661">
        <ele>604.326171875</ele>
        <time>2012-07-18T10:15:44Z</time>
      </trkpt>
      <trkpt lat="46.61392" lon="5.85627">
        <ele>594.23217773438</ele>
        <time>2012-07-18T10:16:24Z</time>
      </trkpt>
      <trkpt lat="46.614" lon="5.8561">
        <ele>588.46435546875</ele>
        <time>2012-07-18T10:16:39Z</time>
      </trkpt>
      <trkpt lat="46.61398" lon="5.85606">
        <ele>586.06079101562</ele>
        <time>2012-07-18T10:16:44Z</time>
      </trkpt>
      <trkpt lat="46.61398" lon="5.85593">
        <ele>580.77368164062</ele>
        <time>2012-07-18T10:16:56Z</time>
      </trkpt>
      <trkpt lat="46.61398" lon="5.8558">
        <ele>578.37036132812</ele>
        <time>2012-07-18T10:17:02Z</time>
      </trkpt>
      <trkpt lat="46.614" lon="5.85569">
        <ele>583.1767578125</ele>
        <time>2012-07-18T10:17:11Z</time>
      </trkpt>
      <trkpt lat="46.614" lon="5.85565">
        <ele>584.13818359375</ele>
        <time>2012-07-18T10:17:14Z</time>
      </trkpt>
      <trkpt lat="46.614" lon="5.85554">
        <ele>585.580078125</ele>
        <time>2012-07-18T10:17:22Z</time>
      </trkpt>
      <trkpt lat="46.61398" lon="5.85543">
        <ele>587.02197265625</ele>
        <time>2012-07-18T10:17:26Z</time>
      </trkpt>
      <trkpt lat="46.61394" lon="5.85531">
        <ele>587.9833984375</ele>
        <time>2012-07-18T10:17:33Z</time>
      </trkpt>
      <trkpt lat="46.61394" lon="5.85528">
        <ele>587.9833984375</ele>
        <time>2012-07-18T10:17:34Z</time>
      </trkpt>
      <trkpt lat="46.61394" lon="5.85526">
        <ele>588.46435546875</ele>
        <time>2012-07-18T10:17:50Z</time>
      </trkpt>
      <trkpt lat="46.61409" lon="5.85535">
        <ele>586.54150390625</ele>
        <time>2012-07-18T10:19:21Z</time>
      </trkpt>
      <trkpt lat="46.61417" lon="5.85537">
        <ele>583.65747070312</ele>
        <time>2012-07-18T10:19:31Z</time>
      </trkpt>
      <trkpt lat="46.6143" lon="5.85522">
        <ele>573.56396484375</ele>
        <time>2012-07-18T10:19:51Z</time>
      </trkpt>
      <trkpt lat="46.61441" lon="5.85498">
        <ele>560.10522460938</ele>
        <time>2012-07-18T10:20:16Z</time>
      </trkpt>
      <trkpt lat="46.61456" lon="5.85479">
        <ele>544.24365234375</ele>
        <time>2012-07-18T10:20:50Z</time>
      </trkpt>
      <trkpt lat="46.61458" lon="5.8546">
        <ele>537.99499511719</ele>
        <time>2012-07-18T10:21:05Z</time>
      </trkpt>
      <trkpt lat="46.61458" lon="5.85432">
        <ele>535.11096191406</ele>
        <time>2012-07-18T10:21:24Z</time>
      </trkpt>
      <trkpt lat="46.61458" lon="5.85417">
        <ele>535.59155273438</ele>
        <time>2012-07-18T10:21:32Z</time>
      </trkpt>
      <trkpt lat="46.61458" lon="5.85404">
        <ele>537.99499511719</ele>
        <time>2012-07-18T10:21:42Z</time>
      </trkpt>
      <trkpt lat="46.61439" lon="5.85421">
        <ele>533.18835449219</ele>
        <time>2012-07-18T10:22:43Z</time>
      </trkpt>
      <trkpt lat="46.61439" lon="5.85428">
        <ele>530.30444335938</ele>
        <time>2012-07-18T10:22:51Z</time>
      </trkpt>
      <trkpt lat="46.61428" lon="5.85447">
        <ele>522.61389160156</ele>
        <time>2012-07-18T10:23:15Z</time>
      </trkpt>
      <trkpt lat="46.61417" lon="5.85421">
        <ele>509.63610839844</ele>
        <time>2012-07-18T10:24:14Z</time>
      </trkpt>
      <trkpt lat="46.61417" lon="5.85408">
        <ele>508.67468261719</ele>
        <time>2012-07-18T10:24:30Z</time>
      </trkpt>
      <trkpt lat="46.61409" lon="5.85421">
        <ele>502.42614746094</ele>
        <time>2012-07-18T10:24:58Z</time>
      </trkpt>
      <trkpt lat="46.61411" lon="5.854">
        <ele>502.90673828125</ele>
        <time>2012-07-18T10:25:10Z</time>
      </trkpt>
      <trkpt lat="46.61411" lon="5.85387">
        <ele>504.82946777344</ele>
        <time>2012-07-18T10:25:17Z</time>
      </trkpt>
      <trkpt lat="46.61409" lon="5.8537">
        <ele>506.271484375</ele>
        <time>2012-07-18T10:25:28Z</time>
      </trkpt>
      <trkpt lat="46.61396" lon="5.85359">
        <ele>508.19409179688</ele>
        <time>2012-07-18T10:26:22Z</time>
      </trkpt>
      <trkpt lat="46.61402" lon="5.85372">
        <ele>510.11669921875</ele>
        <time>2012-07-18T10:26:56Z</time>
      </trkpt>
      <trkpt lat="46.61396" lon="5.85387">
        <ele>513.4814453125</ele>
        <time>2012-07-18T10:27:11Z</time>
      </trkpt>
      <trkpt lat="46.614" lon="5.85355">
        <ele>516.84594726562</ele>
        <time>2012-07-18T10:29:56Z</time>
      </trkpt>
      <trkpt lat="46.61377" lon="5.85363">
        <ele>523.09460449219</ele>
        <time>2012-07-18T10:30:48Z</time>
      </trkpt>
      <trkpt lat="46.6137" lon="5.85367">
        <ele>527.42041015625</ele>
        <time>2012-07-18T10:31:08Z</time>
      </trkpt>
      <trkpt lat="46.61385" lon="5.8535">
        <ele>534.63037109375</ele>
        <time>2012-07-18T10:31:56Z</time>
      </trkpt>
    </trkseg>
  </trk>
  <trk>
    <name><![CDATA[ACTIVE LOG 007]]></name>
    <trkseg>
      <trkpt lat="46.61377" lon="5.85337">
        <ele>551.45336914062</ele>
        <time>2012-07-18T10:37:46Z</time>
      </trkpt>
      <trkpt lat="46.61396" lon="5.8532">
        <ele>549.05004882812</ele>
        <time>2012-07-18T10:38:20Z</time>
      </trkpt>
      <trkpt lat="46.61402" lon="5.85314">
        <ele>553.3759765625</ele>
        <time>2012-07-18T10:39:44Z</time>
      </trkpt>
      <trkpt lat="46.61396" lon="5.85292">
        <ele>550.01147460938</ele>
        <time>2012-07-18T10:39:57Z</time>
      </trkpt>
      <trkpt lat="46.61396" lon="5.8529">
        <ele>549.05004882812</ele>
        <time>2012-07-18T10:39:59Z</time>
      </trkpt>
      <trkpt lat="46.6139" lon="5.85279">
        <ele>547.60815429688</ele>
        <time>2012-07-18T10:40:06Z</time>
      </trkpt>
      <trkpt lat="46.61385" lon="5.85269">
        <ele>547.12744140625</ele>
        <time>2012-07-18T10:40:14Z</time>
      </trkpt>
      <trkpt lat="46.61381" lon="5.85254">
        <ele>547.12744140625</ele>
        <time>2012-07-18T10:40:23Z</time>
      </trkpt>
      <trkpt lat="46.61377" lon="5.85237">
        <ele>546.64685058594</ele>
        <time>2012-07-18T10:40:30Z</time>
      </trkpt>
      <trkpt lat="46.61366" lon="5.85219">
        <ele>553.3759765625</ele>
        <time>2012-07-18T10:40:39Z</time>
      </trkpt>
      <trkpt lat="46.61362" lon="5.85207">
        <ele>552.41455078125</ele>
        <time>2012-07-18T10:40:47Z</time>
      </trkpt>
      <trkpt lat="46.61362" lon="5.85204">
        <ele>551.93408203125</ele>
        <time>2012-07-18T10:40:49Z</time>
      </trkpt>
      <trkpt lat="46.6136" lon="5.85198">
        <ele>551.45336914062</ele>
        <time>2012-07-18T10:40:52Z</time>
      </trkpt>
      <trkpt lat="46.6136" lon="5.85189">
        <ele>550.4921875</ele>
        <time>2012-07-18T10:40:57Z</time>
      </trkpt>
      <trkpt lat="46.61355" lon="5.85174">
        <ele>546.16625976562</ele>
        <time>2012-07-18T10:41:10Z</time>
      </trkpt>
      <trkpt lat="46.61349" lon="5.85157">
        <ele>540.87890625</ele>
        <time>2012-07-18T10:41:23Z</time>
      </trkpt>
      <trkpt lat="46.61347" lon="5.85153">
        <ele>540.39831542969</ele>
        <time>2012-07-18T10:41:25Z</time>
      </trkpt>
      <trkpt lat="46.61338" lon="5.85142">
        <ele>537.51428222656</ele>
        <time>2012-07-18T10:41:30Z</time>
      </trkpt>
      <trkpt lat="46.61336" lon="5.85142">
        <ele>537.51428222656</ele>
        <time>2012-07-18T10:41:31Z</time>
      </trkpt>
      <trkpt lat="46.6133" lon="5.85138">
        <ele>537.51428222656</ele>
        <time>2012-07-18T10:41:37Z</time>
      </trkpt>
      <trkpt lat="46.61327" lon="5.85131">
        <ele>539.43688964844</ele>
        <time>2012-07-18T10:41:46Z</time>
      </trkpt>
      <trkpt lat="46.61325" lon="5.85125">
        <ele>540.87890625</ele>
        <time>2012-07-18T10:42:05Z</time>
      </trkpt>
      <trkpt lat="46.61323" lon="5.8511">
        <ele>540.87890625</ele>
        <time>2012-07-18T10:42:17Z</time>
      </trkpt>
      <trkpt lat="46.61327" lon="5.85093">
        <ele>541.35949707031</ele>
        <time>2012-07-18T10:42:29Z</time>
      </trkpt>
      <trkpt lat="46.6133" lon="5.85073">
        <ele>540.87890625</ele>
        <time>2012-07-18T10:42:43Z</time>
      </trkpt>
      <trkpt lat="46.61334" lon="5.85069">
        <ele>540.87890625</ele>
        <time>2012-07-18T10:42:48Z</time>
      </trkpt>
      <trkpt lat="46.6134" lon="5.85054">
        <ele>540.39831542969</ele>
        <time>2012-07-18T10:42:59Z</time>
      </trkpt>
      <trkpt lat="46.61342" lon="5.85041">
        <ele>540.39831542969</ele>
        <time>2012-07-18T10:43:07Z</time>
      </trkpt>
      <trkpt lat="46.61342" lon="5.85039">
        <ele>540.39831542969</ele>
        <time>2012-07-18T10:43:09Z</time>
      </trkpt>
      <trkpt lat="46.61345" lon="5.8502">
        <ele>537.99499511719</ele>
        <time>2012-07-18T10:43:21Z</time>
      </trkpt>
      <trkpt lat="46.61345" lon="5.85018">
        <ele>537.99499511719</ele>
        <time>2012-07-18T10:43:22Z</time>
      </trkpt>
      <trkpt lat="46.61347" lon="5.85005">
        <ele>537.03369140625</ele>
        <time>2012-07-18T10:43:27Z</time>
      </trkpt>
      <trkpt lat="46.61347" lon="5.8499">
        <ele>538.47570800781</ele>
        <time>2012-07-18T10:43:34Z</time>
      </trkpt>
      <trkpt lat="46.61347" lon="5.84983">
        <ele>539.91760253906</ele>
        <time>2012-07-18T10:43:37Z</time>
      </trkpt>
      <trkpt lat="46.61351" lon="5.8497">
        <ele>540.87890625</ele>
        <time>2012-07-18T10:43:46Z</time>
      </trkpt>
      <trkpt lat="46.61353" lon="5.84966">
        <ele>539.91760253906</ele>
        <time>2012-07-18T10:43:51Z</time>
      </trkpt>
      <trkpt lat="46.61355" lon="5.84958">
        <ele>539.43688964844</ele>
        <time>2012-07-18T10:43:55Z</time>
      </trkpt>
      <trkpt lat="46.6136" lon="5.84953">
        <ele>538.47570800781</ele>
        <time>2012-07-18T10:43:58Z</time>
      </trkpt>
      <trkpt lat="46.61362" lon="5.84951">
        <ele>537.03369140625</ele>
        <time>2012-07-18T10:44:00Z</time>
      </trkpt>
      <trkpt lat="46.61362" lon="5.84947">
        <ele>536.07238769531</ele>
        <time>2012-07-18T10:44:03Z</time>
      </trkpt>
      <trkpt lat="46.6137" lon="5.8493">
        <ele>535.11096191406</ele>
        <time>2012-07-18T10:44:12Z</time>
      </trkpt>
      <trkpt lat="46.6137" lon="5.84925">
        <ele>535.59155273438</ele>
        <time>2012-07-18T10:44:17Z</time>
      </trkpt>
      <trkpt lat="46.61377" lon="5.8491">
        <ele>535.59155273438</ele>
        <time>2012-07-18T10:44:28Z</time>
      </trkpt>
      <trkpt lat="46.61377" lon="5.84908">
        <ele>535.59155273438</ele>
        <time>2012-07-18T10:44:29Z</time>
      </trkpt>
      <trkpt lat="46.61383" lon="5.84882">
        <ele>537.51428222656</ele>
        <time>2012-07-18T10:44:42Z</time>
      </trkpt>
      <trkpt lat="46.61387" lon="5.8487">
        <ele>539.43688964844</ele>
        <time>2012-07-18T10:44:54Z</time>
      </trkpt>
      <trkpt lat="46.61394" lon="5.84865">
        <ele>539.91760253906</ele>
        <time>2012-07-18T10:44:59Z</time>
      </trkpt>
      <trkpt lat="46.61396" lon="5.8485">
        <ele>542.32092285156</ele>
        <time>2012-07-18T10:45:06Z</time>
      </trkpt>
      <trkpt lat="46.61398" lon="5.84848">
        <ele>542.32092285156</ele>
        <time>2012-07-18T10:45:08Z</time>
      </trkpt>
      <trkpt lat="46.614" lon="5.8484">
        <ele>542.32092285156</ele>
        <time>2012-07-18T10:45:12Z</time>
      </trkpt>
      <trkpt lat="46.61407" lon="5.84827">
        <ele>545.20483398438</ele>
        <time>2012-07-18T10:45:21Z</time>
      </trkpt>
      <trkpt lat="46.6142" lon="5.84801">
        <ele>547.60815429688</ele>
        <time>2012-07-18T10:45:38Z</time>
      </trkpt>
      <trkpt lat="46.61424" lon="5.84795">
        <ele>547.12744140625</ele>
        <time>2012-07-18T10:45:42Z</time>
      </trkpt>
      <trkpt lat="46.6143" lon="5.84786">
        <ele>547.12744140625</ele>
        <time>2012-07-18T10:45:47Z</time>
      </trkpt>
      <trkpt lat="46.61445" lon="5.84758">
        <ele>545.20483398438</ele>
        <time>2012-07-18T10:45:58Z</time>
      </trkpt>
      <trkpt lat="46.6145" lon="5.84752">
        <ele>542.32092285156</ele>
        <time>2012-07-18T10:46:03Z</time>
      </trkpt>
      <trkpt lat="46.6145" lon="5.84749">
        <ele>540.39831542969</ele>
        <time>2012-07-18T10:46:05Z</time>
      </trkpt>
      <trkpt lat="46.6145" lon="5.84734">
        <ele>531.74633789062</ele>
        <time>2012-07-18T10:46:17Z</time>
      </trkpt>
      <trkpt lat="46.61452" lon="5.84734">
        <ele>531.26574707031</ele>
        <time>2012-07-18T10:46:18Z</time>
      </trkpt>
      <trkpt lat="46.6145" lon="5.84724">
        <ele>533.18835449219</ele>
        <time>2012-07-18T10:46:25Z</time>
      </trkpt>
      <trkpt lat="46.61443" lon="5.84709">
        <ele>535.11096191406</ele>
        <time>2012-07-18T10:46:33Z</time>
      </trkpt>
      <trkpt lat="46.61437" lon="5.84698">
        <ele>534.14965820312</ele>
        <time>2012-07-18T10:46:45Z</time>
      </trkpt>
      <trkpt lat="46.61435" lon="5.84692">
        <ele>532.22705078125</ele>
        <time>2012-07-18T10:46:57Z</time>
      </trkpt>
      <trkpt lat="46.61435" lon="5.84689">
        <ele>532.22705078125</ele>
        <time>2012-07-18T10:47:15Z</time>
      </trkpt>
      <trkpt lat="46.61435" lon="5.84681">
        <ele>530.78515625</ele>
        <time>2012-07-18T10:47:44Z</time>
      </trkpt>
      <trkpt lat="46.61437" lon="5.84666">
        <ele>528.86254882812</ele>
        <time>2012-07-18T10:47:55Z</time>
      </trkpt>
      <trkpt lat="46.61439" lon="5.84661">
        <ele>529.34313964844</ele>
        <time>2012-07-18T10:47:58Z</time>
      </trkpt>
      <trkpt lat="46.61443" lon="5.84653">
        <ele>530.30444335938</ele>
        <time>2012-07-18T10:48:02Z</time>
      </trkpt>
      <trkpt lat="46.61443" lon="5.84646">
        <ele>531.26574707031</ele>
        <time>2012-07-18T10:48:10Z</time>
      </trkpt>
      <trkpt lat="46.61443" lon="5.84646">
        <ele>531.26574707031</ele>
        <time>2012-07-18T10:48:11Z</time>
      </trkpt>
      <trkpt lat="46.61448" lon="5.84638">
        <ele>530.78515625</ele>
        <time>2012-07-18T10:48:18Z</time>
      </trkpt>
      <trkpt lat="46.61448" lon="5.84638">
        <ele>531.26574707031</ele>
        <time>2012-07-18T10:48:19Z</time>
      </trkpt>
      <trkpt lat="46.61448" lon="5.84627">
        <ele>530.30444335938</ele>
        <time>2012-07-18T10:48:24Z</time>
      </trkpt>
      <trkpt lat="46.61452" lon="5.84612">
        <ele>529.82373046875</ele>
        <time>2012-07-18T10:48:35Z</time>
      </trkpt>
      <trkpt lat="46.61454" lon="5.84597">
        <ele>530.30444335938</ele>
        <time>2012-07-18T10:48:43Z</time>
      </trkpt>
      <trkpt lat="46.61458" lon="5.84576">
        <ele>530.30444335938</ele>
        <time>2012-07-18T10:48:51Z</time>
      </trkpt>
      <trkpt lat="46.61465" lon="5.84558">
        <ele>528.86254882812</ele>
        <time>2012-07-18T10:49:01Z</time>
      </trkpt>
      <trkpt lat="46.61467" lon="5.84546">
        <ele>528.86254882812</ele>
        <time>2012-07-18T10:49:08Z</time>
      </trkpt>
      <trkpt lat="46.61473" lon="5.84524">
        <ele>527.42041015625</ele>
        <time>2012-07-18T10:49:17Z</time>
      </trkpt>
      <trkpt lat="46.61475" lon="5.8452">
        <ele>526.93981933594</ele>
        <time>2012-07-18T10:49:21Z</time>
      </trkpt>
      <trkpt lat="46.61478" lon="5.84513">
        <ele>525.97839355469</ele>
        <time>2012-07-18T10:49:25Z</time>
      </trkpt>
      <trkpt lat="46.6148" lon="5.84498">
        <ele>525.49780273438</ele>
        <time>2012-07-18T10:49:31Z</time>
      </trkpt>
      <trkpt lat="46.6148" lon="5.84496">
        <ele>525.49780273438</ele>
        <time>2012-07-18T10:49:34Z</time>
      </trkpt>
      <trkpt lat="46.61471" lon="5.8449">
        <ele>525.01721191406</ele>
        <time>2012-07-18T10:49:41Z</time>
      </trkpt>
      <trkpt lat="46.61469" lon="5.84488">
        <ele>525.01721191406</ele>
        <time>2012-07-18T10:49:44Z</time>
      </trkpt>
      <trkpt lat="46.6146" lon="5.84486">
        <ele>525.49780273438</ele>
        <time>2012-07-18T10:49:49Z</time>
      </trkpt>
      <trkpt lat="46.6145" lon="5.84486">
        <ele>524.05578613281</ele>
        <time>2012-07-18T10:49:59Z</time>
      </trkpt>
      <trkpt lat="46.61445" lon="5.84483">
        <ele>524.05578613281</ele>
        <time>2012-07-18T10:50:02Z</time>
      </trkpt>
      <trkpt lat="46.61441" lon="5.84483">
        <ele>524.53649902344</ele>
        <time>2012-07-18T10:50:09Z</time>
      </trkpt>
      <trkpt lat="46.61433" lon="5.84481">
        <ele>524.53649902344</ele>
        <time>2012-07-18T10:50:15Z</time>
      </trkpt>
      <trkpt lat="46.6142" lon="5.84481">
        <ele>524.53649902344</ele>
        <time>2012-07-18T10:50:24Z</time>
      </trkpt>
      <trkpt lat="46.61405" lon="5.84488">
        <ele>522.61389160156</ele>
        <time>2012-07-18T10:50:31Z</time>
      </trkpt>
      <trkpt lat="46.61396" lon="5.8449">
        <ele>518.7685546875</ele>
        <time>2012-07-18T10:50:38Z</time>
      </trkpt>
      <trkpt lat="46.61383" lon="5.8449">
        <ele>517.80725097656</ele>
        <time>2012-07-18T10:50:47Z</time>
      </trkpt>
      <trkpt lat="46.61375" lon="5.84488">
        <ele>516.365234375</ele>
        <time>2012-07-18T10:50:57Z</time>
      </trkpt>
      <trkpt lat="46.61357" lon="5.84492">
        <ele>511.55871582031</ele>
        <time>2012-07-18T10:51:07Z</time>
      </trkpt>
      <trkpt lat="46.61347" lon="5.84496">
        <ele>509.63610839844</ele>
        <time>2012-07-18T10:51:14Z</time>
      </trkpt>
      <trkpt lat="46.61345" lon="5.84498">
        <ele>509.63610839844</ele>
        <time>2012-07-18T10:51:18Z</time>
      </trkpt>
      <trkpt lat="46.61334" lon="5.8449">
        <ele>510.11669921875</ele>
        <time>2012-07-18T10:51:27Z</time>
      </trkpt>
      <trkpt lat="46.61336" lon="5.84488">
        <ele>511.07800292969</ele>
        <time>2012-07-18T10:51:34Z</time>
      </trkpt>
      <trkpt lat="46.61338" lon="5.84492">
        <ele>512.52001953125</ele>
        <time>2012-07-18T10:51:45Z</time>
      </trkpt>
      <trkpt lat="46.61351" lon="5.8449">
        <ele>513.00073242188</ele>
        <time>2012-07-18T10:51:55Z</time>
      </trkpt>
      <trkpt lat="46.61355" lon="5.84488">
        <ele>513.00073242188</ele>
        <time>2012-07-18T10:51:58Z</time>
      </trkpt>
      <trkpt lat="46.61368" lon="5.8449">
        <ele>513.00073242188</ele>
        <time>2012-07-18T10:52:08Z</time>
      </trkpt>
      <trkpt lat="46.61377" lon="5.84492">
        <ele>513.00073242188</ele>
        <time>2012-07-18T10:52:15Z</time>
      </trkpt>
      <trkpt lat="46.61394" lon="5.84494">
        <ele>512.03942871094</ele>
        <time>2012-07-18T10:52:27Z</time>
      </trkpt>
      <trkpt lat="46.61407" lon="5.84496">
        <ele>511.55871582031</ele>
        <time>2012-07-18T10:52:37Z</time>
      </trkpt>
      <trkpt lat="46.61426" lon="5.84494">
        <ele>512.03942871094</ele>
        <time>2012-07-18T10:52:48Z</time>
      </trkpt>
      <trkpt lat="46.61441" lon="5.84496">
        <ele>507.23278808594</ele>
        <time>2012-07-18T10:52:59Z</time>
      </trkpt>
      <trkpt lat="46.61454" lon="5.84501">
        <ele>504.82946777344</ele>
        <time>2012-07-18T10:53:08Z</time>
      </trkpt>
      <trkpt lat="46.61471" lon="5.84505">
        <ele>503.38745117188</ele>
        <time>2012-07-18T10:53:20Z</time>
      </trkpt>
      <trkpt lat="46.61484" lon="5.84503">
        <ele>504.34887695312</ele>
        <time>2012-07-18T10:53:30Z</time>
      </trkpt>
      <trkpt lat="46.61499" lon="5.84505">
        <ele>505.79089355469</ele>
        <time>2012-07-18T10:53:42Z</time>
      </trkpt>
      <trkpt lat="46.61514" lon="5.84507">
        <ele>507.23278808594</ele>
        <time>2012-07-18T10:53:54Z</time>
      </trkpt>
      <trkpt lat="46.61529" lon="5.84509">
        <ele>508.67468261719</ele>
        <time>2012-07-18T10:54:05Z</time>
      </trkpt>
      <trkpt lat="46.61538" lon="5.84509">
        <ele>508.19409179688</ele>
        <time>2012-07-18T10:54:13Z</time>
      </trkpt>
      <trkpt lat="46.61548" lon="5.84511">
        <ele>509.15539550781</ele>
        <time>2012-07-18T10:54:23Z</time>
      </trkpt>
      <trkpt lat="46.61551" lon="5.84509">
        <ele>509.15539550781</ele>
        <time>2012-07-18T10:54:26Z</time>
      </trkpt>
      <trkpt lat="46.61553" lon="5.84486">
        <ele>511.07800292969</ele>
        <time>2012-07-18T10:54:37Z</time>
      </trkpt>
      <trkpt lat="46.61555" lon="5.84473">
        <ele>514.92333984375</ele>
        <time>2012-07-18T10:54:45Z</time>
      </trkpt>
      <trkpt lat="46.61555" lon="5.84453">
        <ele>520.21057128906</ele>
        <time>2012-07-18T10:54:59Z</time>
      </trkpt>
      <trkpt lat="46.61555" lon="5.84443">
        <ele>522.13317871094</ele>
        <time>2012-07-18T10:55:05Z</time>
      </trkpt>
      <trkpt lat="46.61555" lon="5.84428">
        <ele>526.45910644531</ele>
        <time>2012-07-18T10:55:16Z</time>
      </trkpt>
      <trkpt lat="46.61557" lon="5.84421">
        <ele>528.86254882812</ele>
        <time>2012-07-18T10:55:21Z</time>
      </trkpt>
      <trkpt lat="46.61553" lon="5.84398">
        <ele>532.22705078125</ele>
        <time>2012-07-18T10:55:30Z</time>
      </trkpt>
      <trkpt lat="46.61551" lon="5.84363">
        <ele>534.14965820312</ele>
        <time>2012-07-18T10:55:43Z</time>
      </trkpt>
      <trkpt lat="46.61551" lon="5.84361">
        <ele>534.14965820312</ele>
        <time>2012-07-18T10:55:44Z</time>
      </trkpt>
      <trkpt lat="46.61538" lon="5.84331">
        <ele>537.99499511719</ele>
        <time>2012-07-18T10:55:54Z</time>
      </trkpt>
      <trkpt lat="46.61538" lon="5.84325">
        <ele>538.95629882812</ele>
        <time>2012-07-18T10:55:58Z</time>
      </trkpt>
      <trkpt lat="46.61529" lon="5.8432">
        <ele>540.87890625</ele>
        <time>2012-07-18T10:56:01Z</time>
      </trkpt>
      <trkpt lat="46.6152" lon="5.84303">
        <ele>547.12744140625</ele>
        <time>2012-07-18T10:56:12Z</time>
      </trkpt>
      <trkpt lat="46.61518" lon="5.84299">
        <ele>546.64685058594</ele>
        <time>2012-07-18T10:56:29Z</time>
      </trkpt>
      <trkpt lat="46.61518" lon="5.84299">
        <ele>546.64685058594</ele>
        <time>2012-07-18T10:56:30Z</time>
      </trkpt>
      <trkpt lat="46.61518" lon="5.8429">
        <ele>546.64685058594</ele>
        <time>2012-07-18T10:56:35Z</time>
      </trkpt>
      <trkpt lat="46.6152" lon="5.84269">
        <ele>539.43688964844</ele>
        <time>2012-07-18T10:56:43Z</time>
      </trkpt>
      <trkpt lat="46.61518" lon="5.84254">
        <ele>533.18835449219</ele>
        <time>2012-07-18T10:56:52Z</time>
      </trkpt>
      <trkpt lat="46.61518" lon="5.84243">
        <ele>530.78515625</ele>
        <time>2012-07-18T10:56:59Z</time>
      </trkpt>
      <trkpt lat="46.61514" lon="5.84243">
        <ele>528.86254882812</ele>
        <time>2012-07-18T10:57:03Z</time>
      </trkpt>
      <trkpt lat="46.61512" lon="5.84241">
        <ele>528.3818359375</ele>
        <time>2012-07-18T10:57:06Z</time>
      </trkpt>
      <trkpt lat="46.61503" lon="5.84239">
        <ele>526.45910644531</ele>
        <time>2012-07-18T10:57:15Z</time>
      </trkpt>
      <trkpt lat="46.61499" lon="5.84239">
        <ele>525.49780273438</ele>
        <time>2012-07-18T10:57:18Z</time>
      </trkpt>
      <trkpt lat="46.6149" lon="5.84241">
        <ele>523.09460449219</ele>
        <time>2012-07-18T10:57:23Z</time>
      </trkpt>
      <trkpt lat="46.6149" lon="5.84241">
        <ele>522.61389160156</ele>
        <time>2012-07-18T10:57:28Z</time>
      </trkpt>
      <trkpt lat="46.61501" lon="5.84241">
        <ele>522.61389160156</ele>
        <time>2012-07-18T10:57:34Z</time>
      </trkpt>
      <trkpt lat="46.61508" lon="5.84241">
        <ele>523.5751953125</ele>
        <time>2012-07-18T10:57:42Z</time>
      </trkpt>
      <trkpt lat="46.61518" lon="5.84239">
        <ele>525.01721191406</ele>
        <time>2012-07-18T10:57:51Z</time>
      </trkpt>
      <trkpt lat="46.61518" lon="5.84226">
        <ele>528.86254882812</ele>
        <time>2012-07-18T10:58:01Z</time>
      </trkpt>
      <trkpt lat="46.61518" lon="5.84217">
        <ele>531.26574707031</ele>
        <time>2012-07-18T10:58:09Z</time>
      </trkpt>
      <trkpt lat="46.61529" lon="5.84202">
        <ele>535.59155273438</ele>
        <time>2012-07-18T10:58:17Z</time>
      </trkpt>
      <trkpt lat="46.61531" lon="5.84177">
        <ele>542.32092285156</ele>
        <time>2012-07-18T10:58:30Z</time>
      </trkpt>
      <trkpt lat="46.61531" lon="5.8417">
        <ele>542.80151367188</ele>
        <time>2012-07-18T10:58:32Z</time>
      </trkpt>
      <trkpt lat="46.61531" lon="5.84166">
        <ele>543.76281738281</ele>
        <time>2012-07-18T10:58:35Z</time>
      </trkpt>
      <trkpt lat="46.61531" lon="5.84155">
        <ele>545.20483398438</ele>
        <time>2012-07-18T10:58:40Z</time>
      </trkpt>
      <trkpt lat="46.61531" lon="5.84144">
        <ele>547.60815429688</ele>
        <time>2012-07-18T10:58:47Z</time>
      </trkpt>
      <trkpt lat="46.61531" lon="5.84136">
        <ele>549.05004882812</ele>
        <time>2012-07-18T10:58:51Z</time>
      </trkpt>
      <trkpt lat="46.61529" lon="5.84134">
        <ele>549.05004882812</ele>
        <time>2012-07-18T10:58:52Z</time>
      </trkpt>
      <trkpt lat="46.61529" lon="5.84129">
        <ele>550.4921875</ele>
        <time>2012-07-18T10:58:55Z</time>
      </trkpt>
      <trkpt lat="46.61529" lon="5.84119">
        <ele>552.41455078125</ele>
        <time>2012-07-18T10:59:01Z</time>
      </trkpt>
      <trkpt lat="46.61525" lon="5.84106">
        <ele>553.85668945312</ele>
        <time>2012-07-18T10:59:06Z</time>
      </trkpt>
      <trkpt lat="46.61525" lon="5.84093">
        <ele>554.33740234375</ele>
        <time>2012-07-18T10:59:10Z</time>
      </trkpt>
      <trkpt lat="46.61527" lon="5.84076">
        <ele>551.93408203125</ele>
        <time>2012-07-18T10:59:16Z</time>
      </trkpt>
      <trkpt lat="46.61527" lon="5.84054">
        <ele>535.11096191406</ele>
        <time>2012-07-18T10:59:27Z</time>
      </trkpt>
      <trkpt lat="46.61523" lon="5.84035">
        <ele>530.78515625</ele>
        <time>2012-07-18T10:59:36Z</time>
      </trkpt>
      <trkpt lat="46.61523" lon="5.84024">
        <ele>529.34313964844</ele>
        <time>2012-07-18T10:59:42Z</time>
      </trkpt>
      <trkpt lat="46.6152" lon="5.8402">
        <ele>527.42041015625</ele>
        <time>2012-07-18T10:59:47Z</time>
      </trkpt>
      <trkpt lat="46.61516" lon="5.84009">
        <ele>525.49780273438</ele>
        <time>2012-07-18T10:59:53Z</time>
      </trkpt>
      <trkpt lat="46.61514" lon="5.84005">
        <ele>524.53649902344</ele>
        <time>2012-07-18T10:59:57Z</time>
      </trkpt>
      <trkpt lat="46.6151" lon="5.8399">
        <ele>523.5751953125</ele>
        <time>2012-07-18T11:00:05Z</time>
      </trkpt>
      <trkpt lat="46.61505" lon="5.83975">
        <ele>523.09460449219</ele>
        <time>2012-07-18T11:00:14Z</time>
      </trkpt>
      <trkpt lat="46.61503" lon="5.83962">
        <ele>522.61389160156</ele>
        <time>2012-07-18T11:00:19Z</time>
      </trkpt>
      <trkpt lat="46.61503" lon="5.83947">
        <ele>522.13317871094</ele>
        <time>2012-07-18T11:00:27Z</time>
      </trkpt>
      <trkpt lat="46.61503" lon="5.83943">
        <ele>522.13317871094</ele>
        <time>2012-07-18T11:00:29Z</time>
      </trkpt>
      <trkpt lat="46.61503" lon="5.83936">
        <ele>521.17199707031</ele>
        <time>2012-07-18T11:00:36Z</time>
      </trkpt>
      <trkpt lat="46.61501" lon="5.83925">
        <ele>520.21057128906</ele>
        <time>2012-07-18T11:00:40Z</time>
      </trkpt>
      <trkpt lat="46.61499" lon="5.83906">
        <ele>519.72985839844</ele>
        <time>2012-07-18T11:00:45Z</time>
      </trkpt>
      <trkpt lat="46.61493" lon="5.83893">
        <ele>518.28784179688</ele>
        <time>2012-07-18T11:00:53Z</time>
      </trkpt>
      <trkpt lat="46.61488" lon="5.8388">
        <ele>515.88464355469</ele>
        <time>2012-07-18T11:01:01Z</time>
      </trkpt>
      <trkpt lat="46.61488" lon="5.83865">
        <ele>514.44262695312</ele>
        <time>2012-07-18T11:01:08Z</time>
      </trkpt>
      <trkpt lat="46.6149" lon="5.8385">
        <ele>513.96203613281</ele>
        <time>2012-07-18T11:01:17Z</time>
      </trkpt>
      <trkpt lat="46.61484" lon="5.83833">
        <ele>513.96203613281</ele>
        <time>2012-07-18T11:01:27Z</time>
      </trkpt>
      <trkpt lat="46.61484" lon="5.83831">
        <ele>513.96203613281</ele>
        <time>2012-07-18T11:01:28Z</time>
      </trkpt>
      <trkpt lat="46.61482" lon="5.83818">
        <ele>513.96203613281</ele>
        <time>2012-07-18T11:01:33Z</time>
      </trkpt>
      <trkpt lat="46.61482" lon="5.83816">
        <ele>513.96203613281</ele>
        <time>2012-07-18T11:01:34Z</time>
      </trkpt>
      <trkpt lat="46.61471" lon="5.83801">
        <ele>513.96203613281</ele>
        <time>2012-07-18T11:01:43Z</time>
      </trkpt>
      <trkpt lat="46.61467" lon="5.83792">
        <ele>513.00073242188</ele>
        <time>2012-07-18T11:01:47Z</time>
      </trkpt>
      <trkpt lat="46.61465" lon="5.83788">
        <ele>513.00073242188</ele>
        <time>2012-07-18T11:01:52Z</time>
      </trkpt>
      <trkpt lat="46.61463" lon="5.83777">
        <ele>513.96203613281</ele>
        <time>2012-07-18T11:02:01Z</time>
      </trkpt>
      <trkpt lat="46.61463" lon="5.83762">
        <ele>512.52001953125</ele>
        <time>2012-07-18T11:02:08Z</time>
      </trkpt>
      <trkpt lat="46.61454" lon="5.83752">
        <ele>511.07800292969</ele>
        <time>2012-07-18T11:02:14Z</time>
      </trkpt>
      <trkpt lat="46.61452" lon="5.8375">
        <ele>511.07800292969</ele>
        <time>2012-07-18T11:02:15Z</time>
      </trkpt>
      <trkpt lat="46.61443" lon="5.83747">
        <ele>510.59729003906</ele>
        <time>2012-07-18T11:02:23Z</time>
      </trkpt>
      <trkpt lat="46.61433" lon="5.83741">
        <ele>510.11669921875</ele>
        <time>2012-07-18T11:02:31Z</time>
      </trkpt>
      <trkpt lat="46.61426" lon="5.83717">
        <ele>510.59729003906</ele>
        <time>2012-07-18T11:02:44Z</time>
      </trkpt>
      <trkpt lat="46.61426" lon="5.83704">
        <ele>511.55871582031</ele>
        <time>2012-07-18T11:02:49Z</time>
      </trkpt>
      <trkpt lat="46.61428" lon="5.83692">
        <ele>511.55871582031</ele>
        <time>2012-07-18T11:02:54Z</time>
      </trkpt>
      <trkpt lat="46.61426" lon="5.83672">
        <ele>513.00073242188</ele>
        <time>2012-07-18T11:03:04Z</time>
      </trkpt>
      <trkpt lat="46.61424" lon="5.83662">
        <ele>514.92333984375</ele>
        <time>2012-07-18T11:03:14Z</time>
      </trkpt>
      <trkpt lat="46.61422" lon="5.83653">
        <ele>514.92333984375</ele>
        <time>2012-07-18T11:03:18Z</time>
      </trkpt>
      <trkpt lat="46.61422" lon="5.83616">
        <ele>514.92333984375</ele>
        <time>2012-07-18T11:03:31Z</time>
      </trkpt>
      <trkpt lat="46.61424" lon="5.83612">
        <ele>514.44262695312</ele>
        <time>2012-07-18T11:03:34Z</time>
      </trkpt>
      <trkpt lat="46.61424" lon="5.83601">
        <ele>513.4814453125</ele>
        <time>2012-07-18T11:03:39Z</time>
      </trkpt>
      <trkpt lat="46.61422" lon="5.83586">
        <ele>513.00073242188</ele>
        <time>2012-07-18T11:03:45Z</time>
      </trkpt>
      <trkpt lat="46.61424" lon="5.8355">
        <ele>510.59729003906</ele>
        <time>2012-07-18T11:03:57Z</time>
      </trkpt>
      <trkpt lat="46.61426" lon="5.83541">
        <ele>509.15539550781</ele>
        <time>2012-07-18T11:04:04Z</time>
      </trkpt>
      <trkpt lat="46.6143" lon="5.83537">
        <ele>508.67468261719</ele>
        <time>2012-07-18T11:04:08Z</time>
      </trkpt>
      <trkpt lat="46.6143" lon="5.83529">
        <ele>508.19409179688</ele>
        <time>2012-07-18T11:04:13Z</time>
      </trkpt>
      <trkpt lat="46.61428" lon="5.83518">
        <ele>507.23278808594</ele>
        <time>2012-07-18T11:04:19Z</time>
      </trkpt>
      <trkpt lat="46.6143" lon="5.83501">
        <ele>507.71350097656</ele>
        <time>2012-07-18T11:04:28Z</time>
      </trkpt>
      <trkpt lat="46.6143" lon="5.8349">
        <ele>507.23278808594</ele>
        <time>2012-07-18T11:04:33Z</time>
      </trkpt>
      <trkpt lat="46.61433" lon="5.83479">
        <ele>506.75207519531</ele>
        <time>2012-07-18T11:04:39Z</time>
      </trkpt>
      <trkpt lat="46.61435" lon="5.83475">
        <ele>505.31018066406</ele>
        <time>2012-07-18T11:04:44Z</time>
      </trkpt>
      <trkpt lat="46.61435" lon="5.83466">
        <ele>503.38745117188</ele>
        <time>2012-07-18T11:04:48Z</time>
      </trkpt>
      <trkpt lat="46.61433" lon="5.83453">
        <ele>504.82946777344</ele>
        <time>2012-07-18T11:04:53Z</time>
      </trkpt>
      <trkpt lat="46.61437" lon="5.83432">
        <ele>506.271484375</ele>
        <time>2012-07-18T11:05:05Z</time>
      </trkpt>
      <trkpt lat="46.61437" lon="5.83406">
        <ele>507.23278808594</ele>
        <time>2012-07-18T11:05:16Z</time>
      </trkpt>
      <trkpt lat="46.61437" lon="5.83402">
        <ele>506.75207519531</ele>
        <time>2012-07-18T11:05:19Z</time>
      </trkpt>
      <trkpt lat="46.61439" lon="5.83385">
        <ele>505.79089355469</ele>
        <time>2012-07-18T11:05:27Z</time>
      </trkpt>
      <trkpt lat="46.61437" lon="5.83359">
        <ele>505.79089355469</ele>
        <time>2012-07-18T11:05:38Z</time>
      </trkpt>
      <trkpt lat="46.61435" lon="5.83355">
        <ele>505.79089355469</ele>
        <time>2012-07-18T11:05:42Z</time>
      </trkpt>
      <trkpt lat="46.61435" lon="5.83335">
        <ele>504.82946777344</ele>
        <time>2012-07-18T11:05:54Z</time>
      </trkpt>
      <trkpt lat="46.61435" lon="5.83333">
        <ele>504.82946777344</ele>
        <time>2012-07-18T11:05:55Z</time>
      </trkpt>
      <trkpt lat="46.61435" lon="5.83327">
        <ele>503.8681640625</ele>
        <time>2012-07-18T11:05:59Z</time>
      </trkpt>
      <trkpt lat="46.61435" lon="5.83312">
        <ele>502.90673828125</ele>
        <time>2012-07-18T11:06:06Z</time>
      </trkpt>
      <trkpt lat="46.61435" lon="5.83288">
        <ele>502.90673828125</ele>
        <time>2012-07-18T11:06:17Z</time>
      </trkpt>
      <trkpt lat="46.61435" lon="5.8326">
        <ele>506.271484375</ele>
        <time>2012-07-18T11:06:25Z</time>
      </trkpt>
      <trkpt lat="46.61437" lon="5.8326">
        <ele>507.23278808594</ele>
        <time>2012-07-18T11:06:28Z</time>
      </trkpt>
      <trkpt lat="46.61439" lon="5.83256">
        <ele>506.75207519531</ele>
        <time>2012-07-18T11:06:32Z</time>
      </trkpt>
      <trkpt lat="46.61441" lon="5.83243">
        <ele>507.71350097656</ele>
        <time>2012-07-18T11:06:37Z</time>
      </trkpt>
      <trkpt lat="46.61441" lon="5.83239">
        <ele>508.19409179688</ele>
        <time>2012-07-18T11:06:38Z</time>
      </trkpt>
      <trkpt lat="46.61445" lon="5.83228">
        <ele>509.15539550781</ele>
        <time>2012-07-18T11:06:43Z</time>
      </trkpt>
      <trkpt lat="46.61445" lon="5.83224">
        <ele>509.15539550781</ele>
        <time>2012-07-18T11:06:45Z</time>
      </trkpt>
      <trkpt lat="46.61452" lon="5.83215">
        <ele>507.71350097656</ele>
        <time>2012-07-18T11:06:55Z</time>
      </trkpt>
      <trkpt lat="46.61454" lon="5.83202">
        <ele>504.34887695312</ele>
        <time>2012-07-18T11:07:04Z</time>
      </trkpt>
      <trkpt lat="46.6146" lon="5.83168">
        <ele>503.38745117188</ele>
        <time>2012-07-18T11:07:15Z</time>
      </trkpt>
      <trkpt lat="46.61471" lon="5.83132">
        <ele>504.82946777344</ele>
        <time>2012-07-18T11:07:28Z</time>
      </trkpt>
      <trkpt lat="46.61475" lon="5.83114">
        <ele>507.71350097656</ele>
        <time>2012-07-18T11:07:37Z</time>
      </trkpt>
      <trkpt lat="46.61482" lon="5.83095">
        <ele>510.59729003906</ele>
        <time>2012-07-18T11:07:49Z</time>
      </trkpt>
      <trkpt lat="46.61484" lon="5.83084">
        <ele>509.63610839844</ele>
        <time>2012-07-18T11:07:59Z</time>
      </trkpt>
      <trkpt lat="46.61486" lon="5.83082">
        <ele>509.63610839844</ele>
        <time>2012-07-18T11:08:00Z</time>
      </trkpt>
      <trkpt lat="46.61488" lon="5.8308">
        <ele>510.11669921875</ele>
        <time>2012-07-18T11:08:04Z</time>
      </trkpt>
      <trkpt lat="46.61488" lon="5.8308">
        <ele>509.63610839844</ele>
        <time>2012-07-18T11:08:09Z</time>
      </trkpt>
      <trkpt lat="46.61488" lon="5.83078">
        <ele>507.23278808594</ele>
        <time>2012-07-18T11:08:18Z</time>
      </trkpt>
      <trkpt lat="46.61488" lon="5.83076">
        <ele>505.79089355469</ele>
        <time>2012-07-18T11:08:21Z</time>
      </trkpt>
      <trkpt lat="46.61497" lon="5.83067">
        <ele>502.90673828125</ele>
        <time>2012-07-18T11:08:31Z</time>
      </trkpt>
      <trkpt lat="46.61503" lon="5.83041">
        <ele>501.94555664062</ele>
        <time>2012-07-18T11:08:42Z</time>
      </trkpt>
      <trkpt lat="46.6151" lon="5.83022">
        <ele>502.90673828125</ele>
        <time>2012-07-18T11:08:52Z</time>
      </trkpt>
      <trkpt lat="46.61516" lon="5.83014">
        <ele>500.50354003906</ele>
        <time>2012-07-18T11:09:03Z</time>
      </trkpt>
      <trkpt lat="46.61514" lon="5.83011">
        <ele>500.02294921875</ele>
        <time>2012-07-18T11:09:06Z</time>
      </trkpt>
      <trkpt lat="46.61512" lon="5.83007">
        <ele>500.98413085938</ele>
        <time>2012-07-18T11:09:14Z</time>
      </trkpt>
      <trkpt lat="46.61508" lon="5.83005">
        <ele>501.46484375</ele>
        <time>2012-07-18T11:09:20Z</time>
      </trkpt>
      <trkpt lat="46.61508" lon="5.83001">
        <ele>501.46484375</ele>
        <time>2012-07-18T11:09:23Z</time>
      </trkpt>
      <trkpt lat="46.61505" lon="5.82996">
        <ele>502.42614746094</ele>
        <time>2012-07-18T11:09:30Z</time>
      </trkpt>
      <trkpt lat="46.61497" lon="5.82983">
        <ele>504.34887695312</ele>
        <time>2012-07-18T11:09:38Z</time>
      </trkpt>
      <trkpt lat="46.61493" lon="5.82986">
        <ele>505.31018066406</ele>
        <time>2012-07-18T11:09:41Z</time>
      </trkpt>
      <trkpt lat="46.61488" lon="5.82979">
        <ele>507.23278808594</ele>
        <time>2012-07-18T11:09:46Z</time>
      </trkpt>
      <trkpt lat="46.6148" lon="5.82966">
        <ele>509.63610839844</ele>
        <time>2012-07-18T11:09:54Z</time>
      </trkpt>
      <trkpt lat="46.61478" lon="5.82966">
        <ele>509.63610839844</ele>
        <time>2012-07-18T11:09:55Z</time>
      </trkpt>
      <trkpt lat="46.61471" lon="5.8296">
        <ele>510.11669921875</ele>
        <time>2012-07-18T11:10:00Z</time>
      </trkpt>
      <trkpt lat="46.61467" lon="5.82958">
        <ele>511.07800292969</ele>
        <time>2012-07-18T11:10:06Z</time>
      </trkpt>
      <trkpt lat="46.6146" lon="5.82949">
        <ele>511.55871582031</ele>
        <time>2012-07-18T11:10:19Z</time>
      </trkpt>
      <trkpt lat="46.61456" lon="5.82945">
        <ele>513.00073242188</ele>
        <time>2012-07-18T11:10:24Z</time>
      </trkpt>
      <trkpt lat="46.6145" lon="5.82936">
        <ele>514.92333984375</ele>
        <time>2012-07-18T11:10:31Z</time>
      </trkpt>
      <trkpt lat="46.61443" lon="5.82928">
        <ele>517.80725097656</ele>
        <time>2012-07-18T11:10:37Z</time>
      </trkpt>
      <trkpt lat="46.61437" lon="5.82919">
        <ele>522.61389160156</ele>
        <time>2012-07-18T11:10:44Z</time>
      </trkpt>
      <trkpt lat="46.6143" lon="5.82908">
        <ele>526.45910644531</ele>
        <time>2012-07-18T11:10:52Z</time>
      </trkpt>
      <trkpt lat="46.61428" lon="5.82902">
        <ele>527.42041015625</ele>
        <time>2012-07-18T11:10:55Z</time>
      </trkpt>
      <trkpt lat="46.6142" lon="5.82893">
        <ele>528.86254882812</ele>
        <time>2012-07-18T11:11:03Z</time>
      </trkpt>
      <trkpt lat="46.61405" lon="5.82883">
        <ele>528.3818359375</ele>
        <time>2012-07-18T11:11:12Z</time>
      </trkpt>
      <trkpt lat="46.61398" lon="5.82883">
        <ele>527.42041015625</ele>
        <time>2012-07-18T11:11:33Z</time>
      </trkpt>
      <trkpt lat="46.614" lon="5.8288">
        <ele>526.93981933594</ele>
        <time>2012-07-18T11:11:42Z</time>
      </trkpt>
      <trkpt lat="46.61407" lon="5.82865">
        <ele>524.05578613281</ele>
        <time>2012-07-18T11:11:50Z</time>
      </trkpt>
      <trkpt lat="46.61407" lon="5.82859">
        <ele>523.09460449219</ele>
        <time>2012-07-18T11:11:55Z</time>
      </trkpt>
      <trkpt lat="46.61409" lon="5.82857">
        <ele>522.13317871094</ele>
        <time>2012-07-18T11:11:58Z</time>
      </trkpt>
      <trkpt lat="46.61411" lon="5.82855">
        <ele>520.69128417969</ele>
        <time>2012-07-18T11:12:08Z</time>
      </trkpt>
      <trkpt lat="46.61413" lon="5.82848">
        <ele>519.72985839844</ele>
        <time>2012-07-18T11:12:14Z</time>
      </trkpt>
      <trkpt lat="46.61411" lon="5.82833">
        <ele>517.80725097656</ele>
        <time>2012-07-18T11:12:19Z</time>
      </trkpt>
      <trkpt lat="46.61409" lon="5.82831">
        <ele>517.32666015625</ele>
        <time>2012-07-18T11:12:21Z</time>
      </trkpt>
      <trkpt lat="46.61407" lon="5.82816">
        <ele>516.365234375</ele>
        <time>2012-07-18T11:12:27Z</time>
      </trkpt>
      <trkpt lat="46.61407" lon="5.82812">
        <ele>516.365234375</ele>
        <time>2012-07-18T11:12:30Z</time>
      </trkpt>
      <trkpt lat="46.61405" lon="5.82808">
        <ele>516.365234375</ele>
        <time>2012-07-18T11:12:33Z</time>
      </trkpt>
      <trkpt lat="46.614" lon="5.82793">
        <ele>516.365234375</ele>
        <time>2012-07-18T11:12:44Z</time>
      </trkpt>
      <trkpt lat="46.614" lon="5.82788">
        <ele>515.88464355469</ele>
        <time>2012-07-18T11:12:47Z</time>
      </trkpt>
      <trkpt lat="46.61405" lon="5.82778">
        <ele>514.44262695312</ele>
        <time>2012-07-18T11:12:54Z</time>
      </trkpt>
      <trkpt lat="46.61409" lon="5.82765">
        <ele>514.92333984375</ele>
        <time>2012-07-18T11:13:02Z</time>
      </trkpt>
      <trkpt lat="46.61411" lon="5.8276">
        <ele>514.92333984375</ele>
        <time>2012-07-18T11:13:05Z</time>
      </trkpt>
      <trkpt lat="46.61417" lon="5.82747">
        <ele>514.44262695312</ele>
        <time>2012-07-18T11:13:13Z</time>
      </trkpt>
      <trkpt lat="46.61417" lon="5.82745">
        <ele>514.44262695312</ele>
        <time>2012-07-18T11:13:14Z</time>
      </trkpt>
      <trkpt lat="46.61424" lon="5.82732">
        <ele>513.4814453125</ele>
        <time>2012-07-18T11:13:23Z</time>
      </trkpt>
      <trkpt lat="46.61428" lon="5.82722">
        <ele>513.00073242188</ele>
        <time>2012-07-18T11:13:31Z</time>
      </trkpt>
      <trkpt lat="46.61433" lon="5.82705">
        <ele>513.00073242188</ele>
        <time>2012-07-18T11:13:39Z</time>
      </trkpt>
      <trkpt lat="46.61437" lon="5.8269">
        <ele>513.00073242188</ele>
        <time>2012-07-18T11:13:46Z</time>
      </trkpt>
      <trkpt lat="46.61437" lon="5.82681">
        <ele>513.00073242188</ele>
        <time>2012-07-18T11:13:52Z</time>
      </trkpt>
      <trkpt lat="46.61439" lon="5.82666">
        <ele>513.4814453125</ele>
        <time>2012-07-18T11:13:58Z</time>
      </trkpt>
      <trkpt lat="46.61439" lon="5.82659">
        <ele>513.96203613281</ele>
        <time>2012-07-18T11:14:07Z</time>
      </trkpt>
      <trkpt lat="46.61439" lon="5.82653">
        <ele>512.52001953125</ele>
        <time>2012-07-18T11:14:12Z</time>
      </trkpt>
      <trkpt lat="46.61443" lon="5.82644">
        <ele>511.55871582031</ele>
        <time>2012-07-18T11:14:19Z</time>
      </trkpt>
      <trkpt lat="46.61445" lon="5.82642">
        <ele>511.55871582031</ele>
        <time>2012-07-18T11:14:22Z</time>
      </trkpt>
      <trkpt lat="46.61452" lon="5.8264">
        <ele>511.55871582031</ele>
        <time>2012-07-18T11:14:30Z</time>
      </trkpt>
      <trkpt lat="46.6146" lon="5.8264">
        <ele>510.11669921875</ele>
        <time>2012-07-18T11:14:37Z</time>
      </trkpt>
      <trkpt lat="46.61469" lon="5.82634">
        <ele>509.15539550781</ele>
        <time>2012-07-18T11:14:44Z</time>
      </trkpt>
      <trkpt lat="46.6148" lon="5.82632">
        <ele>508.19409179688</ele>
        <time>2012-07-18T11:14:53Z</time>
      </trkpt>
      <trkpt lat="46.61486" lon="5.82632">
        <ele>506.75207519531</ele>
        <time>2012-07-18T11:15:03Z</time>
      </trkpt>
      <trkpt lat="46.6149" lon="5.82629">
        <ele>506.271484375</ele>
        <time>2012-07-18T11:15:09Z</time>
      </trkpt>
      <trkpt lat="46.61503" lon="5.82612">
        <ele>505.31018066406</ele>
        <time>2012-07-18T11:15:17Z</time>
      </trkpt>
      <trkpt lat="46.61512" lon="5.82602">
        <ele>505.31018066406</ele>
        <time>2012-07-18T11:15:22Z</time>
      </trkpt>
      <trkpt lat="46.61516" lon="5.82599">
        <ele>505.31018066406</ele>
        <time>2012-07-18T11:15:26Z</time>
      </trkpt>
      <trkpt lat="46.61518" lon="5.82597">
        <ele>505.31018066406</ele>
        <time>2012-07-18T11:15:28Z</time>
      </trkpt>
      <trkpt lat="46.6152" lon="5.82582">
        <ele>505.79089355469</ele>
        <time>2012-07-18T11:15:36Z</time>
      </trkpt>
      <trkpt lat="46.6152" lon="5.82578">
        <ele>506.271484375</ele>
        <time>2012-07-18T11:15:41Z</time>
      </trkpt>
      <trkpt lat="46.61516" lon="5.82563">
        <ele>506.75207519531</ele>
        <time>2012-07-18T11:15:48Z</time>
      </trkpt>
      <trkpt lat="46.61514" lon="5.82552">
        <ele>507.71350097656</ele>
        <time>2012-07-18T11:15:55Z</time>
      </trkpt>
      <trkpt lat="46.61505" lon="5.82544">
        <ele>505.79089355469</ele>
        <time>2012-07-18T11:16:04Z</time>
      </trkpt>
      <trkpt lat="46.61505" lon="5.82541">
        <ele>504.82946777344</ele>
        <time>2012-07-18T11:16:05Z</time>
      </trkpt>
      <trkpt lat="46.61497" lon="5.82533">
        <ele>504.82946777344</ele>
        <time>2012-07-18T11:16:13Z</time>
      </trkpt>
      <trkpt lat="46.61497" lon="5.82529">
        <ele>504.82946777344</ele>
        <time>2012-07-18T11:16:15Z</time>
      </trkpt>
      <trkpt lat="46.6148" lon="5.82511">
        <ele>505.79089355469</ele>
        <time>2012-07-18T11:16:24Z</time>
      </trkpt>
      <trkpt lat="46.61478" lon="5.82505">
        <ele>505.31018066406</ele>
        <time>2012-07-18T11:16:30Z</time>
      </trkpt>
      <trkpt lat="46.61478" lon="5.82499">
        <ele>504.82946777344</ele>
        <time>2012-07-18T11:16:32Z</time>
      </trkpt>
      <trkpt lat="46.6148" lon="5.82492">
        <ele>504.82946777344</ele>
        <time>2012-07-18T11:16:37Z</time>
      </trkpt>
      <trkpt lat="46.6148" lon="5.82492">
        <ele>504.34887695312</ele>
        <time>2012-07-18T11:16:41Z</time>
      </trkpt>
      <trkpt lat="46.61484" lon="5.82486">
        <ele>503.38745117188</ele>
        <time>2012-07-18T11:16:47Z</time>
      </trkpt>
      <trkpt lat="46.61493" lon="5.82479">
        <ele>502.90673828125</ele>
        <time>2012-07-18T11:16:55Z</time>
      </trkpt>
      <trkpt lat="46.61495" lon="5.82479">
        <ele>502.90673828125</ele>
        <time>2012-07-18T11:16:56Z</time>
      </trkpt>
      <trkpt lat="46.61501" lon="5.82481">
        <ele>503.38745117188</ele>
        <time>2012-07-18T11:17:03Z</time>
      </trkpt>
      <trkpt lat="46.61505" lon="5.82479">
        <ele>504.34887695312</ele>
        <time>2012-07-18T11:17:06Z</time>
      </trkpt>
      <trkpt lat="46.61518" lon="5.82479">
        <ele>507.71350097656</ele>
        <time>2012-07-18T11:17:14Z</time>
      </trkpt>
      <trkpt lat="46.6152" lon="5.82475">
        <ele>508.19409179688</ele>
        <time>2012-07-18T11:17:18Z</time>
      </trkpt>
      <trkpt lat="46.61531" lon="5.82469">
        <ele>508.67468261719</ele>
        <time>2012-07-18T11:17:26Z</time>
      </trkpt>
      <trkpt lat="46.61533" lon="5.82469">
        <ele>508.19409179688</ele>
        <time>2012-07-18T11:17:32Z</time>
      </trkpt>
      <trkpt lat="46.61538" lon="5.82469">
        <ele>508.67468261719</ele>
        <time>2012-07-18T11:17:36Z</time>
      </trkpt>
      <trkpt lat="46.61548" lon="5.82473">
        <ele>509.63610839844</ele>
        <time>2012-07-18T11:17:43Z</time>
      </trkpt>
      <trkpt lat="46.61553" lon="5.82481">
        <ele>510.11669921875</ele>
        <time>2012-07-18T11:17:51Z</time>
      </trkpt>
      <trkpt lat="46.61555" lon="5.82503">
        <ele>511.07800292969</ele>
        <time>2012-07-18T11:17:59Z</time>
      </trkpt>
      <trkpt lat="46.61555" lon="5.82505">
        <ele>511.55871582031</ele>
        <time>2012-07-18T11:18:03Z</time>
      </trkpt>
      <trkpt lat="46.61559" lon="5.82514">
        <ele>512.03942871094</ele>
        <time>2012-07-18T11:18:07Z</time>
      </trkpt>
      <trkpt lat="46.61561" lon="5.82524">
        <ele>514.92333984375</ele>
        <time>2012-07-18T11:18:16Z</time>
      </trkpt>
      <trkpt lat="46.61561" lon="5.82529">
        <ele>516.84594726562</ele>
        <time>2012-07-18T11:18:27Z</time>
      </trkpt>
      <trkpt lat="46.61568" lon="5.82533">
        <ele>518.7685546875</ele>
        <time>2012-07-18T11:18:35Z</time>
      </trkpt>
      <trkpt lat="46.61568" lon="5.82531">
        <ele>519.24926757812</ele>
        <time>2012-07-18T11:18:38Z</time>
      </trkpt>
      <trkpt lat="46.61576" lon="5.82526">
        <ele>521.17199707031</ele>
        <time>2012-07-18T11:18:46Z</time>
      </trkpt>
      <trkpt lat="46.61578" lon="5.82529">
        <ele>521.65258789062</ele>
        <time>2012-07-18T11:18:48Z</time>
      </trkpt>
      <trkpt lat="46.61578" lon="5.82531">
        <ele>522.13317871094</ele>
        <time>2012-07-18T11:18:54Z</time>
      </trkpt>
      <trkpt lat="46.61587" lon="5.82548">
        <ele>524.05578613281</ele>
        <time>2012-07-18T11:19:00Z</time>
      </trkpt>
      <trkpt lat="46.61593" lon="5.82559">
        <ele>525.49780273438</ele>
        <time>2012-07-18T11:19:05Z</time>
      </trkpt>
      <trkpt lat="46.61596" lon="5.82565">
        <ele>530.30444335938</ele>
        <time>2012-07-18T11:19:16Z</time>
      </trkpt>
      <trkpt lat="46.61593" lon="5.82565">
        <ele>530.30444335938</ele>
        <time>2012-07-18T11:19:17Z</time>
      </trkpt>
      <trkpt lat="46.61593" lon="5.82567">
        <ele>531.26574707031</ele>
        <time>2012-07-18T11:19:19Z</time>
      </trkpt>
      <trkpt lat="46.61598" lon="5.82574">
        <ele>533.6689453125</ele>
        <time>2012-07-18T11:19:26Z</time>
      </trkpt>
      <trkpt lat="46.61598" lon="5.82576">
        <ele>535.11096191406</ele>
        <time>2012-07-18T11:19:29Z</time>
      </trkpt>
      <trkpt lat="46.61598" lon="5.8258">
        <ele>535.59155273438</ele>
        <time>2012-07-18T11:19:31Z</time>
      </trkpt>
      <trkpt lat="46.61596" lon="5.82584">
        <ele>537.99499511719</ele>
        <time>2012-07-18T11:19:35Z</time>
      </trkpt>
      <trkpt lat="46.61598" lon="5.82589">
        <ele>540.87890625</ele>
        <time>2012-07-18T11:19:38Z</time>
      </trkpt>
      <trkpt lat="46.61598" lon="5.82593">
        <ele>544.72424316406</ele>
        <time>2012-07-18T11:19:42Z</time>
      </trkpt>
      <trkpt lat="46.61604" lon="5.82595">
        <ele>544.72424316406</ele>
        <time>2012-07-18T11:19:47Z</time>
      </trkpt>
      <trkpt lat="46.61602" lon="5.82597">
        <ele>544.72424316406</ele>
        <time>2012-07-18T11:20:02Z</time>
      </trkpt>
      <trkpt lat="46.61604" lon="5.82597">
        <ele>545.20483398438</ele>
        <time>2012-07-18T11:20:17Z</time>
      </trkpt>
      <trkpt lat="46.61604" lon="5.82597">
        <ele>545.685546875</ele>
        <time>2012-07-18T11:20:20Z</time>
      </trkpt>
      <trkpt lat="46.61604" lon="5.82599">
        <ele>545.685546875</ele>
        <time>2012-07-18T11:20:35Z</time>
      </trkpt>
      <trkpt lat="46.61604" lon="5.82597">
        <ele>546.16625976562</ele>
        <time>2012-07-18T11:20:39Z</time>
      </trkpt>
      <trkpt lat="46.61606" lon="5.82595">
        <ele>546.64685058594</ele>
        <time>2012-07-18T11:20:59Z</time>
      </trkpt>
      <trkpt lat="46.61608" lon="5.82597">
        <ele>545.685546875</ele>
        <time>2012-07-18T11:21:06Z</time>
      </trkpt>
      <trkpt lat="46.61615" lon="5.82612">
        <ele>543.76281738281</ele>
        <time>2012-07-18T11:21:18Z</time>
      </trkpt>
      <trkpt lat="46.61615" lon="5.82619">
        <ele>543.28210449219</ele>
        <time>2012-07-18T11:21:22Z</time>
      </trkpt>
      <trkpt lat="46.61619" lon="5.82625">
        <ele>542.32092285156</ele>
        <time>2012-07-18T11:21:27Z</time>
      </trkpt>
      <trkpt lat="46.61621" lon="5.82632">
        <ele>541.84020996094</ele>
        <time>2012-07-18T11:21:31Z</time>
      </trkpt>
      <trkpt lat="46.61623" lon="5.82642">
        <ele>540.39831542969</ele>
        <time>2012-07-18T11:21:38Z</time>
      </trkpt>
      <trkpt lat="46.61628" lon="5.82653">
        <ele>538.95629882812</ele>
        <time>2012-07-18T11:21:45Z</time>
      </trkpt>
      <trkpt lat="46.61632" lon="5.82662">
        <ele>537.99499511719</ele>
        <time>2012-07-18T11:21:53Z</time>
      </trkpt>
      <trkpt lat="46.61636" lon="5.82668">
        <ele>537.03369140625</ele>
        <time>2012-07-18T11:21:58Z</time>
      </trkpt>
      <trkpt lat="46.61645" lon="5.82681">
        <ele>534.63037109375</ele>
        <time>2012-07-18T11:22:10Z</time>
      </trkpt>
      <trkpt lat="46.61651" lon="5.8269">
        <ele>532.70776367188</ele>
        <time>2012-07-18T11:22:19Z</time>
      </trkpt>
      <trkpt lat="46.61656" lon="5.827">
        <ele>531.26574707031</ele>
        <time>2012-07-18T11:22:28Z</time>
      </trkpt>
      <trkpt lat="46.61658" lon="5.82709">
        <ele>530.30444335938</ele>
        <time>2012-07-18T11:22:33Z</time>
      </trkpt>
      <trkpt lat="46.6166" lon="5.82711">
        <ele>529.82373046875</ele>
        <time>2012-07-18T11:22:54Z</time>
      </trkpt>
      <trkpt lat="46.61673" lon="5.82698">
        <ele>532.22705078125</ele>
        <time>2012-07-18T11:24:01Z</time>
      </trkpt>
      <trkpt lat="46.61684" lon="5.8269">
        <ele>533.18835449219</ele>
        <time>2012-07-18T11:24:09Z</time>
      </trkpt>
      <trkpt lat="46.61701" lon="5.82675">
        <ele>530.30444335938</ele>
        <time>2012-07-18T11:24:19Z</time>
      </trkpt>
      <trkpt lat="46.61705" lon="5.8267">
        <ele>528.3818359375</ele>
        <time>2012-07-18T11:24:22Z</time>
      </trkpt>
      <trkpt lat="46.61707" lon="5.8267">
        <ele>527.42041015625</ele>
        <time>2012-07-18T11:24:25Z</time>
      </trkpt>
      <trkpt lat="46.61724" lon="5.82662">
        <ele>524.53649902344</ele>
        <time>2012-07-18T11:24:38Z</time>
      </trkpt>
      <trkpt lat="46.61724" lon="5.82657">
        <ele>524.05578613281</ele>
        <time>2012-07-18T11:24:42Z</time>
      </trkpt>
      <trkpt lat="46.61724" lon="5.82655">
        <ele>523.5751953125</ele>
        <time>2012-07-18T11:24:44Z</time>
      </trkpt>
      <trkpt lat="46.61729" lon="5.82647">
        <ele>521.17199707031</ele>
        <time>2012-07-18T11:24:51Z</time>
      </trkpt>
      <trkpt lat="46.61737" lon="5.8264">
        <ele>520.69128417969</ele>
        <time>2012-07-18T11:24:56Z</time>
      </trkpt>
      <trkpt lat="46.6175" lon="5.82627">
        <ele>520.69128417969</ele>
        <time>2012-07-18T11:25:09Z</time>
      </trkpt>
      <trkpt lat="46.61767" lon="5.82621">
        <ele>521.65258789062</ele>
        <time>2012-07-18T11:25:20Z</time>
      </trkpt>
      <trkpt lat="46.61778" lon="5.82604">
        <ele>522.61389160156</ele>
        <time>2012-07-18T11:25:32Z</time>
      </trkpt>
      <trkpt lat="46.61787" lon="5.82591">
        <ele>525.01721191406</ele>
        <time>2012-07-18T11:25:43Z</time>
      </trkpt>
      <trkpt lat="46.61789" lon="5.8258">
        <ele>527.90100097656</ele>
        <time>2012-07-18T11:25:49Z</time>
      </trkpt>
      <trkpt lat="46.61791" lon="5.82578">
        <ele>528.86254882812</ele>
        <time>2012-07-18T11:25:53Z</time>
      </trkpt>
      <trkpt lat="46.61804" lon="5.82574">
        <ele>529.34313964844</ele>
        <time>2012-07-18T11:26:01Z</time>
      </trkpt>
      <trkpt lat="46.61825" lon="5.82554">
        <ele>527.42041015625</ele>
        <time>2012-07-18T11:26:10Z</time>
      </trkpt>
      <trkpt lat="46.6184" lon="5.82522">
        <ele>530.30444335938</ele>
        <time>2012-07-18T11:26:22Z</time>
      </trkpt>
      <trkpt lat="46.61842" lon="5.82516">
        <ele>532.22705078125</ele>
        <time>2012-07-18T11:26:27Z</time>
      </trkpt>
      <trkpt lat="46.61844" lon="5.82514">
        <ele>532.22705078125</ele>
        <time>2012-07-18T11:26:29Z</time>
      </trkpt>
      <trkpt lat="46.61844" lon="5.82509">
        <ele>532.70776367188</ele>
        <time>2012-07-18T11:26:34Z</time>
      </trkpt>
      <trkpt lat="46.61842" lon="5.82496">
        <ele>533.18835449219</ele>
        <time>2012-07-18T11:26:39Z</time>
      </trkpt>
      <trkpt lat="46.61849" lon="5.82471">
        <ele>535.11096191406</ele>
        <time>2012-07-18T11:26:49Z</time>
      </trkpt>
      <trkpt lat="46.61853" lon="5.82445">
        <ele>538.47570800781</ele>
        <time>2012-07-18T11:27:00Z</time>
      </trkpt>
      <trkpt lat="46.61862" lon="5.82413">
        <ele>543.28210449219</ele>
        <time>2012-07-18T11:27:13Z</time>
      </trkpt>
      <trkpt lat="46.61866" lon="5.82406">
        <ele>544.72424316406</ele>
        <time>2012-07-18T11:27:18Z</time>
      </trkpt>
      <trkpt lat="46.61866" lon="5.82406">
        <ele>545.20483398438</ele>
        <time>2012-07-18T11:27:20Z</time>
      </trkpt>
      <trkpt lat="46.61866" lon="5.82404">
        <ele>545.20483398438</ele>
        <time>2012-07-18T11:27:22Z</time>
      </trkpt>
      <trkpt lat="46.6187" lon="5.824">
        <ele>543.76281738281</ele>
        <time>2012-07-18T11:27:30Z</time>
      </trkpt>
      <trkpt lat="46.61875" lon="5.82398">
        <ele>539.91760253906</ele>
        <time>2012-07-18T11:27:36Z</time>
      </trkpt>
      <trkpt lat="46.61875" lon="5.82396">
        <ele>537.51428222656</ele>
        <time>2012-07-18T11:27:40Z</time>
      </trkpt>
      <trkpt lat="46.61875" lon="5.82391">
        <ele>537.03369140625</ele>
        <time>2012-07-18T11:27:43Z</time>
      </trkpt>
      <trkpt lat="46.61881" lon="5.82378">
        <ele>536.55310058594</ele>
        <time>2012-07-18T11:27:48Z</time>
      </trkpt>
      <trkpt lat="46.6189" lon="5.82357">
        <ele>536.55310058594</ele>
        <time>2012-07-18T11:27:59Z</time>
      </trkpt>
      <trkpt lat="46.61894" lon="5.82342">
        <ele>537.99499511719</ele>
        <time>2012-07-18T11:28:10Z</time>
      </trkpt>
      <trkpt lat="46.61894" lon="5.8234">
        <ele>538.47570800781</ele>
        <time>2012-07-18T11:28:13Z</time>
      </trkpt>
      <trkpt lat="46.61898" lon="5.82329">
        <ele>539.43688964844</ele>
        <time>2012-07-18T11:28:21Z</time>
      </trkpt>
      <trkpt lat="46.619" lon="5.8231">
        <ele>538.95629882812</ele>
        <time>2012-07-18T11:28:31Z</time>
      </trkpt>
      <trkpt lat="46.61902" lon="5.82284">
        <ele>535.59155273438</ele>
        <time>2012-07-18T11:28:34Z</time>
      </trkpt>
      <trkpt lat="46.61905" lon="5.82273">
        <ele>532.70776367188</ele>
        <time>2012-07-18T11:28:38Z</time>
      </trkpt>
      <trkpt lat="46.61913" lon="5.82267">
        <ele>526.45910644531</ele>
        <time>2012-07-18T11:28:46Z</time>
      </trkpt>
      <trkpt lat="46.61922" lon="5.82256">
        <ele>521.65258789062</ele>
        <time>2012-07-18T11:28:52Z</time>
      </trkpt>
      <trkpt lat="46.61943" lon="5.82237">
        <ele>515.88464355469</ele>
        <time>2012-07-18T11:29:02Z</time>
      </trkpt>
      <trkpt lat="46.61943" lon="5.82237">
        <ele>515.40405273438</ele>
        <time>2012-07-18T11:29:03Z</time>
      </trkpt>
      <trkpt lat="46.6195" lon="5.82228">
        <ele>512.52001953125</ele>
        <time>2012-07-18T11:29:12Z</time>
      </trkpt>
      <trkpt lat="46.61969" lon="5.82213">
        <ele>510.11669921875</ele>
        <time>2012-07-18T11:29:22Z</time>
      </trkpt>
      <trkpt lat="46.61978" lon="5.82207">
        <ele>507.71350097656</ele>
        <time>2012-07-18T11:29:32Z</time>
      </trkpt>
      <trkpt lat="46.6198" lon="5.82207">
        <ele>507.23278808594</ele>
        <time>2012-07-18T11:29:34Z</time>
      </trkpt>
      <trkpt lat="46.61982" lon="5.82205">
        <ele>506.271484375</ele>
        <time>2012-07-18T11:29:36Z</time>
      </trkpt>
      <trkpt lat="46.61988" lon="5.82205">
        <ele>506.271484375</ele>
        <time>2012-07-18T11:29:43Z</time>
      </trkpt>
      <trkpt lat="46.61997" lon="5.822">
        <ele>506.75207519531</ele>
        <time>2012-07-18T11:29:52Z</time>
      </trkpt>
      <trkpt lat="46.61997" lon="5.822">
        <ele>506.75207519531</ele>
        <time>2012-07-18T11:29:54Z</time>
      </trkpt>
      <trkpt lat="46.6201" lon="5.82196">
        <ele>507.71350097656</ele>
        <time>2012-07-18T11:30:01Z</time>
      </trkpt>
      <trkpt lat="46.62012" lon="5.82194">
        <ele>508.19409179688</ele>
        <time>2012-07-18T11:30:02Z</time>
      </trkpt>
      <trkpt lat="46.62012" lon="5.82194">
        <ele>508.67468261719</ele>
        <time>2012-07-18T11:30:04Z</time>
      </trkpt>
      <trkpt lat="46.62012" lon="5.82192">
        <ele>508.67468261719</ele>
        <time>2012-07-18T11:30:07Z</time>
      </trkpt>
      <trkpt lat="46.62033" lon="5.82185">
        <ele>504.82946777344</ele>
        <time>2012-07-18T11:30:17Z</time>
      </trkpt>
      <trkpt lat="46.62035" lon="5.82185">
        <ele>503.38745117188</ele>
        <time>2012-07-18T11:30:19Z</time>
      </trkpt>
      <trkpt lat="46.62048" lon="5.82183">
        <ele>498.10034179688</ele>
        <time>2012-07-18T11:30:28Z</time>
      </trkpt>
      <trkpt lat="46.62059" lon="5.82181">
        <ele>492.81298828125</ele>
        <time>2012-07-18T11:30:37Z</time>
      </trkpt>
      <trkpt lat="46.6207" lon="5.82181">
        <ele>487.52563476562</ele>
        <time>2012-07-18T11:30:47Z</time>
      </trkpt>
      <trkpt lat="46.62074" lon="5.82181">
        <ele>485.60302734375</ele>
        <time>2012-07-18T11:30:50Z</time>
      </trkpt>
      <trkpt lat="46.62096" lon="5.82179">
        <ele>481.27722167969</ele>
        <time>2012-07-18T11:31:00Z</time>
      </trkpt>
      <trkpt lat="46.62111" lon="5.82181">
        <ele>475.98986816406</ele>
        <time>2012-07-18T11:31:11Z</time>
      </trkpt>
      <trkpt lat="46.62126" lon="5.82181">
        <ele>472.14465332031</ele>
        <time>2012-07-18T11:31:20Z</time>
      </trkpt>
      <trkpt lat="46.62136" lon="5.82185">
        <ele>468.78002929688</ele>
        <time>2012-07-18T11:31:29Z</time>
      </trkpt>
      <trkpt lat="46.62147" lon="5.8219">
        <ele>467.81872558594</ele>
        <time>2012-07-18T11:31:36Z</time>
      </trkpt>
      <trkpt lat="46.62151" lon="5.8219">
        <ele>467.81872558594</ele>
        <time>2012-07-18T11:31:40Z</time>
      </trkpt>
      <trkpt lat="46.62169" lon="5.82181">
        <ele>463.01208496094</ele>
        <time>2012-07-18T11:31:49Z</time>
      </trkpt>
      <trkpt lat="46.62173" lon="5.82177">
        <ele>461.57019042969</ele>
        <time>2012-07-18T11:31:52Z</time>
      </trkpt>
      <trkpt lat="46.62175" lon="5.82168">
        <ele>455.32153320312</ele>
        <time>2012-07-18T11:32:05Z</time>
      </trkpt>
      <trkpt lat="46.62184" lon="5.82172">
        <ele>446.66967773438</ele>
        <time>2012-07-18T11:32:20Z</time>
      </trkpt>
      <trkpt lat="46.62188" lon="5.8217">
        <ele>435.13391113281</ele>
        <time>2012-07-18T11:32:45Z</time>
      </trkpt>
      <trkpt lat="46.62192" lon="5.8217">
        <ele>433.69189453125</ele>
        <time>2012-07-18T11:32:49Z</time>
      </trkpt>
      <trkpt lat="46.62207" lon="5.82181">
        <ele>429.36596679688</ele>
        <time>2012-07-18T11:33:01Z</time>
      </trkpt>
      <trkpt lat="46.62211" lon="5.82181">
        <ele>428.88537597656</ele>
        <time>2012-07-18T11:33:05Z</time>
      </trkpt>
      <trkpt lat="46.62203" lon="5.8217">
        <ele>426.48205566406</ele>
        <time>2012-07-18T11:33:28Z</time>
      </trkpt>
      <trkpt lat="46.62209" lon="5.82177">
        <ele>435.13391113281</ele>
        <time>2012-07-18T11:33:39Z</time>
      </trkpt>
      <trkpt lat="46.62201" lon="5.82179">
        <ele>445.70837402344</ele>
        <time>2012-07-18T11:33:47Z</time>
      </trkpt>
      <trkpt lat="46.62199" lon="5.82175">
        <ele>449.07299804688</ele>
        <time>2012-07-18T11:33:51Z</time>
      </trkpt>
      <trkpt lat="46.62196" lon="5.82172">
        <ele>450.03442382812</ele>
        <time>2012-07-18T11:33:55Z</time>
      </trkpt>
      <trkpt lat="46.62192" lon="5.82168">
        <ele>450.03442382812</ele>
        <time>2012-07-18T11:33:59Z</time>
      </trkpt>
      <trkpt lat="46.62186" lon="5.82164">
        <ele>449.5537109375</ele>
        <time>2012-07-18T11:34:12Z</time>
      </trkpt>
      <trkpt lat="46.62192" lon="5.8217">
        <ele>447.63098144531</ele>
        <time>2012-07-18T11:34:59Z</time>
      </trkpt>
      <trkpt lat="46.62192" lon="5.82172">
        <ele>447.63098144531</ele>
        <time>2012-07-18T11:35:03Z</time>
      </trkpt>
      <trkpt lat="46.62199" lon="5.82166">
        <ele>451.47631835938</ele>
        <time>2012-07-18T11:35:12Z</time>
      </trkpt>
      <trkpt lat="46.62196" lon="5.8216">
        <ele>456.76354980469</ele>
        <time>2012-07-18T11:35:22Z</time>
      </trkpt>
      <trkpt lat="46.62203" lon="5.82151">
        <ele>459.64758300781</ele>
        <time>2012-07-18T11:35:29Z</time>
      </trkpt>
      <trkpt lat="46.62216" lon="5.82147">
        <ele>455.80224609375</ele>
        <time>2012-07-18T11:35:36Z</time>
      </trkpt>
      <trkpt lat="46.62224" lon="5.82142">
        <ele>455.32153320312</ele>
        <time>2012-07-18T11:35:39Z</time>
      </trkpt>
      <trkpt lat="46.62231" lon="5.8214">
        <ele>455.32153320312</ele>
        <time>2012-07-18T11:35:42Z</time>
      </trkpt>
      <trkpt lat="46.62241" lon="5.82136">
        <ele>455.80224609375</ele>
        <time>2012-07-18T11:35:49Z</time>
      </trkpt>
      <trkpt lat="46.62244" lon="5.82134">
        <ele>456.28295898438</ele>
        <time>2012-07-18T11:35:55Z</time>
      </trkpt>
      <trkpt lat="46.62248" lon="5.82127">
        <ele>459.64758300781</ele>
        <time>2012-07-18T11:36:00Z</time>
      </trkpt>
      <trkpt lat="46.62241" lon="5.82127">
        <ele>462.05078125</ele>
        <time>2012-07-18T11:36:12Z</time>
      </trkpt>
      <trkpt lat="46.62241" lon="5.82127">
        <ele>462.53137207031</ele>
        <time>2012-07-18T11:36:13Z</time>
      </trkpt>
      <trkpt lat="46.62229" lon="5.82136">
        <ele>466.857421875</ele>
        <time>2012-07-18T11:36:22Z</time>
      </trkpt>
      <trkpt lat="46.6222" lon="5.82136">
        <ele>471.18334960938</ele>
        <time>2012-07-18T11:36:29Z</time>
      </trkpt>
      <trkpt lat="46.62211" lon="5.82134">
        <ele>473.58666992188</ele>
        <time>2012-07-18T11:36:33Z</time>
      </trkpt>
      <trkpt lat="46.62205" lon="5.82138">
        <ele>475.98986816406</ele>
        <time>2012-07-18T11:36:36Z</time>
      </trkpt>
      <trkpt lat="46.62192" lon="5.82142">
        <ele>478.39318847656</ele>
        <time>2012-07-18T11:36:41Z</time>
      </trkpt>
      <trkpt lat="46.6219" lon="5.82142">
        <ele>478.87390136719</ele>
        <time>2012-07-18T11:36:42Z</time>
      </trkpt>
      <trkpt lat="46.62181" lon="5.82144">
        <ele>482.71923828125</ele>
        <time>2012-07-18T11:36:48Z</time>
      </trkpt>
      <trkpt lat="46.62173" lon="5.82147">
        <ele>486.564453125</ele>
        <time>2012-07-18T11:36:54Z</time>
      </trkpt>
      <trkpt lat="46.62166" lon="5.82157">
        <ele>489.92907714844</ele>
        <time>2012-07-18T11:37:00Z</time>
      </trkpt>
      <trkpt lat="46.62147" lon="5.82166">
        <ele>496.177734375</ele>
        <time>2012-07-18T11:37:13Z</time>
      </trkpt>
      <trkpt lat="46.62147" lon="5.82166">
        <ele>496.65832519531</ele>
        <time>2012-07-18T11:37:14Z</time>
      </trkpt>
      <trkpt lat="46.62128" lon="5.82168">
        <ele>503.8681640625</ele>
        <time>2012-07-18T11:37:24Z</time>
      </trkpt>
      <trkpt lat="46.62108" lon="5.82164">
        <ele>510.59729003906</ele>
        <time>2012-07-18T11:37:35Z</time>
      </trkpt>
      <trkpt lat="46.62087" lon="5.82164">
        <ele>515.88464355469</ele>
        <time>2012-07-18T11:37:46Z</time>
      </trkpt>
      <trkpt lat="46.62072" lon="5.82164">
        <ele>519.72985839844</ele>
        <time>2012-07-18T11:37:57Z</time>
      </trkpt>
      <trkpt lat="46.62053" lon="5.82164">
        <ele>523.09460449219</ele>
        <time>2012-07-18T11:38:11Z</time>
      </trkpt>
      <trkpt lat="46.6204" lon="5.82168">
        <ele>525.01721191406</ele>
        <time>2012-07-18T11:38:28Z</time>
      </trkpt>
      <trkpt lat="46.6202" lon="5.82177">
        <ele>526.93981933594</ele>
        <time>2012-07-18T11:38:40Z</time>
      </trkpt>
      <trkpt lat="46.62003" lon="5.82181">
        <ele>528.86254882812</ele>
        <time>2012-07-18T11:38:52Z</time>
      </trkpt>
      <trkpt lat="46.61984" lon="5.82185">
        <ele>532.22705078125</ele>
        <time>2012-07-18T11:39:05Z</time>
      </trkpt>
      <trkpt lat="46.61963" lon="5.8219">
        <ele>536.07238769531</ele>
        <time>2012-07-18T11:39:18Z</time>
      </trkpt>
      <trkpt lat="46.61963" lon="5.8219">
        <ele>536.55310058594</ele>
        <time>2012-07-18T11:39:19Z</time>
      </trkpt>
      <trkpt lat="46.61941" lon="5.82198">
        <ele>544.24365234375</ele>
        <time>2012-07-18T11:39:32Z</time>
      </trkpt>
      <trkpt lat="46.61932" lon="5.82211">
        <ele>546.16625976562</ele>
        <time>2012-07-18T11:39:43Z</time>
      </trkpt>
      <trkpt lat="46.61926" lon="5.82217">
        <ele>545.685546875</ele>
        <time>2012-07-18T11:39:48Z</time>
      </trkpt>
      <trkpt lat="46.61915" lon="5.82235">
        <ele>545.685546875</ele>
        <time>2012-07-18T11:40:00Z</time>
      </trkpt>
      <trkpt lat="46.61911" lon="5.82241">
        <ele>545.685546875</ele>
        <time>2012-07-18T11:40:04Z</time>
      </trkpt>
      <trkpt lat="46.619" lon="5.82269">
        <ele>545.685546875</ele>
        <time>2012-07-18T11:40:17Z</time>
      </trkpt>
      <trkpt lat="46.61907" lon="5.82293">
        <ele>524.53649902344</ele>
        <time>2012-07-18T11:40:27Z</time>
      </trkpt>
      <trkpt lat="46.61913" lon="5.82303">
        <ele>511.55871582031</ele>
        <time>2012-07-18T11:40:31Z</time>
      </trkpt>
      <trkpt lat="46.61917" lon="5.82318">
        <ele>504.82946777344</ele>
        <time>2012-07-18T11:40:40Z</time>
      </trkpt>
      <trkpt lat="46.61915" lon="5.8232">
        <ele>504.34887695312</ele>
        <time>2012-07-18T11:40:41Z</time>
      </trkpt>
      <trkpt lat="46.61913" lon="5.82329">
        <ele>503.38745117188</ele>
        <time>2012-07-18T11:40:46Z</time>
      </trkpt>
      <trkpt lat="46.61913" lon="5.82338">
        <ele>502.90673828125</ele>
        <time>2012-07-18T11:40:50Z</time>
      </trkpt>
      <trkpt lat="46.61913" lon="5.82348">
        <ele>502.90673828125</ele>
        <time>2012-07-18T11:40:55Z</time>
      </trkpt>
      <trkpt lat="46.61909" lon="5.82357">
        <ele>503.38745117188</ele>
        <time>2012-07-18T11:40:59Z</time>
      </trkpt>
      <trkpt lat="46.61907" lon="5.82374">
        <ele>503.38745117188</ele>
        <time>2012-07-18T11:41:06Z</time>
      </trkpt>
      <trkpt lat="46.619" lon="5.82389">
        <ele>505.31018066406</ele>
        <time>2012-07-18T11:41:15Z</time>
      </trkpt>
      <trkpt lat="46.6189" lon="5.82402">
        <ele>507.71350097656</ele>
        <time>2012-07-18T11:41:24Z</time>
      </trkpt>
      <trkpt lat="46.61887" lon="5.82406">
        <ele>508.19409179688</ele>
        <time>2012-07-18T11:41:26Z</time>
      </trkpt>
      <trkpt lat="46.61879" lon="5.82423">
        <ele>509.63610839844</ele>
        <time>2012-07-18T11:41:36Z</time>
      </trkpt>
      <trkpt lat="46.61875" lon="5.82434">
        <ele>510.59729003906</ele>
        <time>2012-07-18T11:41:42Z</time>
      </trkpt>
      <trkpt lat="46.6187" lon="5.82447">
        <ele>511.55871582031</ele>
        <time>2012-07-18T11:41:50Z</time>
      </trkpt>
      <trkpt lat="46.61866" lon="5.8246">
        <ele>512.03942871094</ele>
        <time>2012-07-18T11:41:56Z</time>
      </trkpt>
      <trkpt lat="46.6186" lon="5.82481">
        <ele>514.92333984375</ele>
        <time>2012-07-18T11:42:08Z</time>
      </trkpt>
      <trkpt lat="46.61849" lon="5.82499">
        <ele>517.80725097656</ele>
        <time>2012-07-18T11:42:19Z</time>
      </trkpt>
      <trkpt lat="46.6184" lon="5.82514">
        <ele>520.21057128906</ele>
        <time>2012-07-18T11:42:30Z</time>
      </trkpt>
      <trkpt lat="46.61838" lon="5.82516">
        <ele>520.69128417969</ele>
        <time>2012-07-18T11:42:32Z</time>
      </trkpt>
      <trkpt lat="46.61832" lon="5.82522">
        <ele>521.17199707031</ele>
        <time>2012-07-18T11:42:37Z</time>
      </trkpt>
      <trkpt lat="46.61814" lon="5.82541">
        <ele>523.5751953125</ele>
        <time>2012-07-18T11:42:50Z</time>
      </trkpt>
      <trkpt lat="46.61804" lon="5.82561">
        <ele>524.05578613281</ele>
        <time>2012-07-18T11:43:01Z</time>
      </trkpt>
      <trkpt lat="46.61789" lon="5.82582">
        <ele>523.5751953125</ele>
        <time>2012-07-18T11:43:15Z</time>
      </trkpt>
      <trkpt lat="46.61778" lon="5.82591">
        <ele>521.65258789062</ele>
        <time>2012-07-18T11:43:26Z</time>
      </trkpt>
      <trkpt lat="46.61772" lon="5.82604">
        <ele>518.7685546875</ele>
        <time>2012-07-18T11:43:36Z</time>
      </trkpt>
      <trkpt lat="46.61763" lon="5.82619">
        <ele>513.96203613281</ele>
        <time>2012-07-18T11:43:49Z</time>
      </trkpt>
      <trkpt lat="46.61759" lon="5.82636">
        <ele>509.63610839844</ele>
        <time>2012-07-18T11:44:01Z</time>
      </trkpt>
      <trkpt lat="46.61754" lon="5.82659">
        <ele>505.31018066406</ele>
        <time>2012-07-18T11:44:14Z</time>
      </trkpt>
      <trkpt lat="46.61746" lon="5.82672">
        <ele>501.94555664062</ele>
        <time>2012-07-18T11:44:24Z</time>
      </trkpt>
      <trkpt lat="46.61744" lon="5.82677">
        <ele>500.50354003906</ele>
        <time>2012-07-18T11:44:27Z</time>
      </trkpt>
      <trkpt lat="46.61744" lon="5.82683">
        <ele>497.61962890625</ele>
        <time>2012-07-18T11:44:30Z</time>
      </trkpt>
      <trkpt lat="46.61744" lon="5.82687">
        <ele>495.69689941406</ele>
        <time>2012-07-18T11:44:33Z</time>
      </trkpt>
      <trkpt lat="46.61744" lon="5.82696">
        <ele>493.77429199219</ele>
        <time>2012-07-18T11:44:38Z</time>
      </trkpt>
      <trkpt lat="46.61737" lon="5.827">
        <ele>491.37097167969</ele>
        <time>2012-07-18T11:45:01Z</time>
      </trkpt>
      <trkpt lat="46.61718" lon="5.82713">
        <ele>493.29357910156</ele>
        <time>2012-07-18T11:46:33Z</time>
      </trkpt>
      <trkpt lat="46.61711" lon="5.82717">
        <ele>494.25500488281</ele>
        <time>2012-07-18T11:46:57Z</time>
      </trkpt>
      <trkpt lat="46.61707" lon="5.82724">
        <ele>493.77429199219</ele>
        <time>2012-07-18T11:47:01Z</time>
      </trkpt>
      <trkpt lat="46.61692" lon="5.82737">
        <ele>490.40979003906</ele>
        <time>2012-07-18T11:47:10Z</time>
      </trkpt>
      <trkpt lat="46.61688" lon="5.82745">
        <ele>486.08374023438</ele>
        <time>2012-07-18T11:47:18Z</time>
      </trkpt>
      <trkpt lat="46.61686" lon="5.82752">
        <ele>485.60302734375</ele>
        <time>2012-07-18T11:47:23Z</time>
      </trkpt>
      <trkpt lat="46.61664" lon="5.82773">
        <ele>487.04504394531</ele>
        <time>2012-07-18T11:47:35Z</time>
      </trkpt>
      <trkpt lat="46.61662" lon="5.82778">
        <ele>486.564453125</ele>
        <time>2012-07-18T11:47:37Z</time>
      </trkpt>
      <trkpt lat="46.61658" lon="5.82784">
        <ele>486.08374023438</ele>
        <time>2012-07-18T11:47:41Z</time>
      </trkpt>
      <trkpt lat="46.61647" lon="5.82793">
        <ele>486.08374023438</ele>
        <time>2012-07-18T11:47:48Z</time>
      </trkpt>
      <trkpt lat="46.61647" lon="5.82793">
        <ele>486.564453125</ele>
        <time>2012-07-18T11:47:53Z</time>
      </trkpt>
      <trkpt lat="46.61641" lon="5.82803">
        <ele>488.00646972656</ele>
        <time>2012-07-18T11:47:59Z</time>
      </trkpt>
      <trkpt lat="46.61628" lon="5.82812">
        <ele>492.81298828125</ele>
        <time>2012-07-18T11:48:05Z</time>
      </trkpt>
      <trkpt lat="46.61628" lon="5.82816">
        <ele>493.29357910156</ele>
        <time>2012-07-18T11:48:07Z</time>
      </trkpt>
      <trkpt lat="46.61619" lon="5.82831">
        <ele>494.25500488281</ele>
        <time>2012-07-18T11:48:14Z</time>
      </trkpt>
      <trkpt lat="46.61617" lon="5.82838">
        <ele>494.73559570312</ele>
        <time>2012-07-18T11:48:16Z</time>
      </trkpt>
      <trkpt lat="46.61611" lon="5.82842">
        <ele>495.69689941406</ele>
        <time>2012-07-18T11:48:20Z</time>
      </trkpt>
      <trkpt lat="46.61606" lon="5.82846">
        <ele>496.177734375</ele>
        <time>2012-07-18T11:48:26Z</time>
      </trkpt>
      <trkpt lat="46.61604" lon="5.82857">
        <ele>496.177734375</ele>
        <time>2012-07-18T11:48:34Z</time>
      </trkpt>
      <trkpt lat="46.61598" lon="5.82865">
        <ele>496.177734375</ele>
        <time>2012-07-18T11:48:40Z</time>
      </trkpt>
      <trkpt lat="46.61591" lon="5.82876">
        <ele>495.69689941406</ele>
        <time>2012-07-18T11:48:46Z</time>
      </trkpt>
      <trkpt lat="46.61583" lon="5.82889">
        <ele>495.69689941406</ele>
        <time>2012-07-18T11:48:52Z</time>
      </trkpt>
      <trkpt lat="46.61578" lon="5.82902">
        <ele>495.69689941406</ele>
        <time>2012-07-18T11:49:03Z</time>
      </trkpt>
      <trkpt lat="46.61574" lon="5.82915">
        <ele>494.25500488281</ele>
        <time>2012-07-18T11:49:09Z</time>
      </trkpt>
      <trkpt lat="46.61563" lon="5.8293">
        <ele>492.33239746094</ele>
        <time>2012-07-18T11:49:21Z</time>
      </trkpt>
      <trkpt lat="46.61561" lon="5.82938">
        <ele>491.37097167969</ele>
        <time>2012-07-18T11:49:26Z</time>
      </trkpt>
      <trkpt lat="46.61555" lon="5.82953">
        <ele>489.44836425781</ele>
        <time>2012-07-18T11:49:38Z</time>
      </trkpt>
      <trkpt lat="46.61557" lon="5.82964">
        <ele>488.00646972656</ele>
        <time>2012-07-18T11:49:50Z</time>
      </trkpt>
      <trkpt lat="46.61555" lon="5.82971">
        <ele>486.564453125</ele>
        <time>2012-07-18T11:49:57Z</time>
      </trkpt>
      <trkpt lat="46.61551" lon="5.82975">
        <ele>485.60302734375</ele>
        <time>2012-07-18T11:50:00Z</time>
      </trkpt>
      <trkpt lat="46.61546" lon="5.82983">
        <ele>483.19982910156</ele>
        <time>2012-07-18T11:50:05Z</time>
      </trkpt>
      <trkpt lat="46.61544" lon="5.83001">
        <ele>479.83508300781</ele>
        <time>2012-07-18T11:50:13Z</time>
      </trkpt>
      <trkpt lat="46.61531" lon="5.8302">
        <ele>479.3544921875</ele>
        <time>2012-07-18T11:50:21Z</time>
      </trkpt>
      <trkpt lat="46.61529" lon="5.83024">
        <ele>479.3544921875</ele>
        <time>2012-07-18T11:50:24Z</time>
      </trkpt>
      <trkpt lat="46.61525" lon="5.83039">
        <ele>479.83508300781</ele>
        <time>2012-07-18T11:50:34Z</time>
      </trkpt>
      <trkpt lat="46.61523" lon="5.83048">
        <ele>479.3544921875</ele>
        <time>2012-07-18T11:50:40Z</time>
      </trkpt>
      <trkpt lat="46.6152" lon="5.83052">
        <ele>479.83508300781</ele>
        <time>2012-07-18T11:50:42Z</time>
      </trkpt>
      <trkpt lat="46.61518" lon="5.83069">
        <ele>479.83508300781</ele>
        <time>2012-07-18T11:50:51Z</time>
      </trkpt>
      <trkpt lat="46.61512" lon="5.83099">
        <ele>479.83508300781</ele>
        <time>2012-07-18T11:51:02Z</time>
      </trkpt>
      <trkpt lat="46.6151" lon="5.83106">
        <ele>479.83508300781</ele>
        <time>2012-07-18T11:51:05Z</time>
      </trkpt>
      <trkpt lat="46.61497" lon="5.83127">
        <ele>482.23852539062</ele>
        <time>2012-07-18T11:51:14Z</time>
      </trkpt>
      <trkpt lat="46.6149" lon="5.83147">
        <ele>483.68041992188</ele>
        <time>2012-07-18T11:51:24Z</time>
      </trkpt>
      <trkpt lat="46.6149" lon="5.83147">
        <ele>484.1611328125</ele>
        <time>2012-07-18T11:51:25Z</time>
      </trkpt>
      <trkpt lat="46.61488" lon="5.83155">
        <ele>484.64184570312</ele>
        <time>2012-07-18T11:51:31Z</time>
      </trkpt>
      <trkpt lat="46.61486" lon="5.83162">
        <ele>485.12243652344</ele>
        <time>2012-07-18T11:51:36Z</time>
      </trkpt>
      <trkpt lat="46.61478" lon="5.83183">
        <ele>486.564453125</ele>
        <time>2012-07-18T11:51:46Z</time>
      </trkpt>
      <trkpt lat="46.61469" lon="5.83198">
        <ele>488.48718261719</ele>
        <time>2012-07-18T11:51:55Z</time>
      </trkpt>
      <trkpt lat="46.61463" lon="5.83211">
        <ele>490.89038085938</ele>
        <time>2012-07-18T11:52:07Z</time>
      </trkpt>
      <trkpt lat="46.61456" lon="5.83237">
        <ele>492.33239746094</ele>
        <time>2012-07-18T11:52:16Z</time>
      </trkpt>
      <trkpt lat="46.61452" lon="5.8325">
        <ele>493.29357910156</ele>
        <time>2012-07-18T11:52:25Z</time>
      </trkpt>
      <trkpt lat="46.6145" lon="5.83262">
        <ele>492.81298828125</ele>
        <time>2012-07-18T11:52:36Z</time>
      </trkpt>
      <trkpt lat="46.61448" lon="5.83265">
        <ele>492.81298828125</ele>
        <time>2012-07-18T11:52:38Z</time>
      </trkpt>
      <trkpt lat="46.61448" lon="5.83275">
        <ele>490.89038085938</ele>
        <time>2012-07-18T11:52:42Z</time>
      </trkpt>
      <trkpt lat="46.61458" lon="5.8331">
        <ele>490.40979003906</ele>
        <time>2012-07-18T11:52:52Z</time>
      </trkpt>
      <trkpt lat="46.6146" lon="5.83344">
        <ele>493.29357910156</ele>
        <time>2012-07-18T11:53:03Z</time>
      </trkpt>
      <trkpt lat="46.61456" lon="5.8335">
        <ele>494.25500488281</ele>
        <time>2012-07-18T11:53:06Z</time>
      </trkpt>
      <trkpt lat="46.6145" lon="5.83355">
        <ele>496.65832519531</ele>
        <time>2012-07-18T11:53:11Z</time>
      </trkpt>
      <trkpt lat="46.61441" lon="5.83361">
        <ele>499.54223632812</ele>
        <time>2012-07-18T11:53:18Z</time>
      </trkpt>
      <trkpt lat="46.61437" lon="5.83368">
        <ele>501.46484375</ele>
        <time>2012-07-18T11:53:24Z</time>
      </trkpt>
      <trkpt lat="46.61435" lon="5.83372">
        <ele>501.46484375</ele>
        <time>2012-07-18T11:53:28Z</time>
      </trkpt>
      <trkpt lat="46.61435" lon="5.83385">
        <ele>500.50354003906</ele>
        <time>2012-07-18T11:53:32Z</time>
      </trkpt>
      <trkpt lat="46.61441" lon="5.83417">
        <ele>500.50354003906</ele>
        <time>2012-07-18T11:53:42Z</time>
      </trkpt>
      <trkpt lat="46.61441" lon="5.8343">
        <ele>500.98413085938</ele>
        <time>2012-07-18T11:53:48Z</time>
      </trkpt>
      <trkpt lat="46.61439" lon="5.83443">
        <ele>501.94555664062</ele>
        <time>2012-07-18T11:53:53Z</time>
      </trkpt>
      <trkpt lat="46.61439" lon="5.83445">
        <ele>501.94555664062</ele>
        <time>2012-07-18T11:53:54Z</time>
      </trkpt>
      <trkpt lat="46.61439" lon="5.83458">
        <ele>501.94555664062</ele>
        <time>2012-07-18T11:53:59Z</time>
      </trkpt>
      <trkpt lat="46.61433" lon="5.83481">
        <ele>504.34887695312</ele>
        <time>2012-07-18T11:54:13Z</time>
      </trkpt>
      <trkpt lat="46.61428" lon="5.83503">
        <ele>505.31018066406</ele>
        <time>2012-07-18T11:54:21Z</time>
      </trkpt>
      <trkpt lat="46.61426" lon="5.83518">
        <ele>507.23278808594</ele>
        <time>2012-07-18T11:54:31Z</time>
      </trkpt>
      <trkpt lat="46.61426" lon="5.83524">
        <ele>507.23278808594</ele>
        <time>2012-07-18T11:54:36Z</time>
      </trkpt>
      <trkpt lat="46.61426" lon="5.83537">
        <ele>505.79089355469</ele>
        <time>2012-07-18T11:54:43Z</time>
      </trkpt>
      <trkpt lat="46.61428" lon="5.83554">
        <ele>503.8681640625</ele>
        <time>2012-07-18T11:54:51Z</time>
      </trkpt>
      <trkpt lat="46.61426" lon="5.83586">
        <ele>502.42614746094</ele>
        <time>2012-07-18T11:55:03Z</time>
      </trkpt>
      <trkpt lat="46.61426" lon="5.83599">
        <ele>502.90673828125</ele>
        <time>2012-07-18T11:55:08Z</time>
      </trkpt>
      <trkpt lat="46.61426" lon="5.8361">
        <ele>503.38745117188</ele>
        <time>2012-07-18T11:55:12Z</time>
      </trkpt>
      <trkpt lat="46.61426" lon="5.83621">
        <ele>503.38745117188</ele>
        <time>2012-07-18T11:55:16Z</time>
      </trkpt>
      <trkpt lat="46.61426" lon="5.83634">
        <ele>500.98413085938</ele>
        <time>2012-07-18T11:55:28Z</time>
      </trkpt>
      <trkpt lat="46.61428" lon="5.83642">
        <ele>500.02294921875</ele>
        <time>2012-07-18T11:55:32Z</time>
      </trkpt>
      <trkpt lat="46.61428" lon="5.83653">
        <ele>499.0615234375</ele>
        <time>2012-07-18T11:55:36Z</time>
      </trkpt>
      <trkpt lat="46.61426" lon="5.83679">
        <ele>496.65832519531</ele>
        <time>2012-07-18T11:55:50Z</time>
      </trkpt>
      <trkpt lat="46.61426" lon="5.83681">
        <ele>496.177734375</ele>
        <time>2012-07-18T11:55:51Z</time>
      </trkpt>
      <trkpt lat="46.61428" lon="5.83689">
        <ele>495.69689941406</ele>
        <time>2012-07-18T11:55:56Z</time>
      </trkpt>
      <trkpt lat="46.61428" lon="5.83704">
        <ele>494.73559570312</ele>
        <time>2012-07-18T11:56:04Z</time>
      </trkpt>
      <trkpt lat="46.61424" lon="5.83715">
        <ele>494.73559570312</ele>
        <time>2012-07-18T11:56:08Z</time>
      </trkpt>
      <trkpt lat="46.61424" lon="5.83735">
        <ele>495.21618652344</ele>
        <time>2012-07-18T11:56:18Z</time>
      </trkpt>
      <trkpt lat="46.61426" lon="5.83737">
        <ele>495.21618652344</ele>
        <time>2012-07-18T11:56:21Z</time>
      </trkpt>
      <trkpt lat="46.61428" lon="5.83745">
        <ele>497.13891601562</ele>
        <time>2012-07-18T11:56:25Z</time>
      </trkpt>
      <trkpt lat="46.6143" lon="5.83756">
        <ele>498.10034179688</ele>
        <time>2012-07-18T11:56:29Z</time>
      </trkpt>
      <trkpt lat="46.6143" lon="5.83762">
        <ele>499.54223632812</ele>
        <time>2012-07-18T11:56:33Z</time>
      </trkpt>
      <trkpt lat="46.61433" lon="5.83767">
        <ele>500.98413085938</ele>
        <time>2012-07-18T11:56:37Z</time>
      </trkpt>
      <trkpt lat="46.61435" lon="5.83771">
        <ele>501.94555664062</ele>
        <time>2012-07-18T11:56:40Z</time>
      </trkpt>
      <trkpt lat="46.61435" lon="5.83773">
        <ele>502.90673828125</ele>
        <time>2012-07-18T11:56:43Z</time>
      </trkpt>
      <trkpt lat="46.61433" lon="5.83775">
        <ele>503.8681640625</ele>
        <time>2012-07-18T11:57:02Z</time>
      </trkpt>
      <trkpt lat="46.61424" lon="5.83784">
        <ele>499.54223632812</ele>
        <time>2012-07-18T12:05:30Z</time>
      </trkpt>
      <trkpt lat="46.6142" lon="5.8378">
        <ele>498.10034179688</ele>
        <time>2012-07-18T12:06:09Z</time>
      </trkpt>
      <trkpt lat="46.61426" lon="5.83782">
        <ele>497.61962890625</ele>
        <time>2012-07-18T12:06:20Z</time>
      </trkpt>
      <trkpt lat="46.61426" lon="5.83782">
        <ele>496.177734375</ele>
        <time>2012-07-18T12:06:44Z</time>
      </trkpt>
      <trkpt lat="46.61428" lon="5.83784">
        <ele>494.73559570312</ele>
        <time>2012-07-18T12:07:47Z</time>
      </trkpt>
      <trkpt lat="46.6143" lon="5.83771">
        <ele>493.77429199219</ele>
        <time>2012-07-18T12:07:58Z</time>
      </trkpt>
      <trkpt lat="46.61435" lon="5.8375">
        <ele>489.92907714844</ele>
        <time>2012-07-18T12:08:09Z</time>
      </trkpt>
      <trkpt lat="46.61437" lon="5.83747">
        <ele>489.92907714844</ele>
        <time>2012-07-18T12:08:12Z</time>
      </trkpt>
      <trkpt lat="46.61448" lon="5.83743">
        <ele>492.81298828125</ele>
        <time>2012-07-18T12:08:20Z</time>
      </trkpt>
      <trkpt lat="46.61454" lon="5.83747">
        <ele>494.73559570312</ele>
        <time>2012-07-18T12:08:24Z</time>
      </trkpt>
      <trkpt lat="46.61458" lon="5.83767">
        <ele>499.54223632812</ele>
        <time>2012-07-18T12:08:35Z</time>
      </trkpt>
      <trkpt lat="46.61463" lon="5.8378">
        <ele>500.50354003906</ele>
        <time>2012-07-18T12:08:43Z</time>
      </trkpt>
      <trkpt lat="46.61465" lon="5.83788">
        <ele>500.50354003906</ele>
        <time>2012-07-18T12:08:48Z</time>
      </trkpt>
      <trkpt lat="46.61467" lon="5.83797">
        <ele>499.0615234375</ele>
        <time>2012-07-18T12:08:53Z</time>
      </trkpt>
      <trkpt lat="46.61469" lon="5.83805">
        <ele>498.58093261719</ele>
        <time>2012-07-18T12:08:59Z</time>
      </trkpt>
      <trkpt lat="46.61478" lon="5.83831">
        <ele>501.94555664062</ele>
        <time>2012-07-18T12:09:12Z</time>
      </trkpt>
      <trkpt lat="46.61482" lon="5.83848">
        <ele>500.50354003906</ele>
        <time>2012-07-18T12:09:21Z</time>
      </trkpt>
      <trkpt lat="46.61488" lon="5.83874">
        <ele>498.58093261719</ele>
        <time>2012-07-18T12:09:37Z</time>
      </trkpt>
      <trkpt lat="46.61495" lon="5.83895">
        <ele>499.54223632812</ele>
        <time>2012-07-18T12:09:49Z</time>
      </trkpt>
      <trkpt lat="46.61499" lon="5.83919">
        <ele>497.61962890625</ele>
        <time>2012-07-18T12:09:59Z</time>
      </trkpt>
      <trkpt lat="46.61499" lon="5.83936">
        <ele>496.65832519531</ele>
        <time>2012-07-18T12:10:12Z</time>
      </trkpt>
      <trkpt lat="46.61503" lon="5.83947">
        <ele>496.177734375</ele>
        <time>2012-07-18T12:10:18Z</time>
      </trkpt>
      <trkpt lat="46.61508" lon="5.83956">
        <ele>496.177734375</ele>
        <time>2012-07-18T12:10:22Z</time>
      </trkpt>
      <trkpt lat="46.61516" lon="5.83973">
        <ele>496.65832519531</ele>
        <time>2012-07-18T12:10:32Z</time>
      </trkpt>
      <trkpt lat="46.61518" lon="5.83977">
        <ele>496.65832519531</ele>
        <time>2012-07-18T12:10:35Z</time>
      </trkpt>
      <trkpt lat="46.6152" lon="5.84003">
        <ele>500.02294921875</ele>
        <time>2012-07-18T12:10:43Z</time>
      </trkpt>
      <trkpt lat="46.61523" lon="5.84009">
        <ele>502.42614746094</ele>
        <time>2012-07-18T12:10:45Z</time>
      </trkpt>
      <trkpt lat="46.61525" lon="5.84018">
        <ele>501.94555664062</ele>
        <time>2012-07-18T12:10:52Z</time>
      </trkpt>
      <trkpt lat="46.61525" lon="5.84026">
        <ele>501.46484375</ele>
        <time>2012-07-18T12:10:59Z</time>
      </trkpt>
      <trkpt lat="46.61529" lon="5.84037">
        <ele>500.50354003906</ele>
        <time>2012-07-18T12:11:03Z</time>
      </trkpt>
      <trkpt lat="46.61536" lon="5.84052">
        <ele>500.02294921875</ele>
        <time>2012-07-18T12:11:08Z</time>
      </trkpt>
      <trkpt lat="46.61538" lon="5.84065">
        <ele>499.54223632812</ele>
        <time>2012-07-18T12:11:13Z</time>
      </trkpt>
      <trkpt lat="46.61548" lon="5.84086">
        <ele>499.0615234375</ele>
        <time>2012-07-18T12:11:28Z</time>
      </trkpt>
      <trkpt lat="46.61551" lon="5.84104">
        <ele>498.58093261719</ele>
        <time>2012-07-18T12:11:41Z</time>
      </trkpt>
      <trkpt lat="46.61553" lon="5.84123">
        <ele>498.10034179688</ele>
        <time>2012-07-18T12:11:52Z</time>
      </trkpt>
      <trkpt lat="46.61555" lon="5.84146">
        <ele>499.0615234375</ele>
        <time>2012-07-18T12:12:03Z</time>
      </trkpt>
      <trkpt lat="46.61553" lon="5.84153">
        <ele>499.54223632812</ele>
        <time>2012-07-18T12:12:06Z</time>
      </trkpt>
      <trkpt lat="46.61551" lon="5.84166">
        <ele>500.50354003906</ele>
        <time>2012-07-18T12:12:10Z</time>
      </trkpt>
      <trkpt lat="46.61551" lon="5.8417">
        <ele>500.98413085938</ele>
        <time>2012-07-18T12:12:13Z</time>
      </trkpt>
      <trkpt lat="46.61555" lon="5.84187">
        <ele>498.10034179688</ele>
        <time>2012-07-18T12:12:23Z</time>
      </trkpt>
      <trkpt lat="46.61553" lon="5.84194">
        <ele>496.65832519531</ele>
        <time>2012-07-18T12:12:26Z</time>
      </trkpt>
      <trkpt lat="46.61548" lon="5.84204">
        <ele>494.73559570312</ele>
        <time>2012-07-18T12:12:31Z</time>
      </trkpt>
      <trkpt lat="46.61542" lon="5.84224">
        <ele>490.89038085938</ele>
        <time>2012-07-18T12:12:41Z</time>
      </trkpt>
      <trkpt lat="46.61533" lon="5.84241">
        <ele>495.21618652344</ele>
        <time>2012-07-18T12:12:49Z</time>
      </trkpt>
      <trkpt lat="46.61533" lon="5.84254">
        <ele>494.73559570312</ele>
        <time>2012-07-18T12:12:53Z</time>
      </trkpt>
      <trkpt lat="46.61536" lon="5.84258">
        <ele>495.21618652344</ele>
        <time>2012-07-18T12:12:55Z</time>
      </trkpt>
      <trkpt lat="46.61536" lon="5.8426">
        <ele>495.21618652344</ele>
        <time>2012-07-18T12:12:57Z</time>
      </trkpt>
      <trkpt lat="46.61533" lon="5.84265">
        <ele>494.73559570312</ele>
        <time>2012-07-18T12:13:01Z</time>
      </trkpt>
      <trkpt lat="46.61533" lon="5.84269">
        <ele>494.73559570312</ele>
        <time>2012-07-18T12:13:03Z</time>
      </trkpt>
      <trkpt lat="46.61533" lon="5.84273">
        <ele>494.73559570312</ele>
        <time>2012-07-18T12:13:06Z</time>
      </trkpt>
      <trkpt lat="46.61538" lon="5.8429">
        <ele>493.77429199219</ele>
        <time>2012-07-18T12:13:17Z</time>
      </trkpt>
      <trkpt lat="46.61542" lon="5.84312">
        <ele>493.77429199219</ele>
        <time>2012-07-18T12:13:28Z</time>
      </trkpt>
      <trkpt lat="46.61546" lon="5.84322">
        <ele>493.29357910156</ele>
        <time>2012-07-18T12:13:35Z</time>
      </trkpt>
      <trkpt lat="46.61546" lon="5.84329">
        <ele>493.29357910156</ele>
        <time>2012-07-18T12:13:38Z</time>
      </trkpt>
      <trkpt lat="46.61555" lon="5.8435">
        <ele>494.73559570312</ele>
        <time>2012-07-18T12:13:52Z</time>
      </trkpt>
      <trkpt lat="46.61559" lon="5.84365">
        <ele>495.21618652344</ele>
        <time>2012-07-18T12:13:59Z</time>
      </trkpt>
      <trkpt lat="46.61563" lon="5.8438">
        <ele>496.65832519531</ele>
        <time>2012-07-18T12:14:09Z</time>
      </trkpt>
      <trkpt lat="46.61561" lon="5.84387">
        <ele>496.65832519531</ele>
        <time>2012-07-18T12:14:12Z</time>
      </trkpt>
      <trkpt lat="46.61563" lon="5.84415">
        <ele>498.10034179688</ele>
        <time>2012-07-18T12:14:24Z</time>
      </trkpt>
      <trkpt lat="46.61563" lon="5.84419">
        <ele>498.58093261719</ele>
        <time>2012-07-18T12:14:26Z</time>
      </trkpt>
      <trkpt lat="46.61557" lon="5.84434">
        <ele>500.50354003906</ele>
        <time>2012-07-18T12:14:37Z</time>
      </trkpt>
      <trkpt lat="46.61555" lon="5.84453">
        <ele>502.90673828125</ele>
        <time>2012-07-18T12:14:48Z</time>
      </trkpt>
      <trkpt lat="46.61551" lon="5.84462">
        <ele>504.34887695312</ele>
        <time>2012-07-18T12:14:53Z</time>
      </trkpt>
      <trkpt lat="46.61548" lon="5.84468">
        <ele>505.79089355469</ele>
        <time>2012-07-18T12:14:56Z</time>
      </trkpt>
      <trkpt lat="46.61546" lon="5.84477">
        <ele>507.23278808594</ele>
        <time>2012-07-18T12:15:00Z</time>
      </trkpt>
      <trkpt lat="46.61544" lon="5.84494">
        <ele>510.59729003906</ele>
        <time>2012-07-18T12:15:08Z</time>
      </trkpt>
      <trkpt lat="46.61538" lon="5.84494">
        <ele>508.19409179688</ele>
        <time>2012-07-18T12:15:16Z</time>
      </trkpt>
      <trkpt lat="46.61525" lon="5.84492">
        <ele>505.31018066406</ele>
        <time>2012-07-18T12:15:28Z</time>
      </trkpt>
      <trkpt lat="46.61523" lon="5.84496">
        <ele>504.82946777344</ele>
        <time>2012-07-18T12:15:32Z</time>
      </trkpt>
      <trkpt lat="46.61518" lon="5.84496">
        <ele>503.38745117188</ele>
        <time>2012-07-18T12:15:36Z</time>
      </trkpt>
      <trkpt lat="46.61505" lon="5.84501">
        <ele>501.46484375</ele>
        <time>2012-07-18T12:15:48Z</time>
      </trkpt>
      <trkpt lat="46.61501" lon="5.84509">
        <ele>501.46484375</ele>
        <time>2012-07-18T12:15:53Z</time>
      </trkpt>
      <trkpt lat="46.61497" lon="5.84522">
        <ele>500.02294921875</ele>
        <time>2012-07-18T12:16:00Z</time>
      </trkpt>
      <trkpt lat="46.6149" lon="5.84528">
        <ele>498.58093261719</ele>
        <time>2012-07-18T12:16:06Z</time>
      </trkpt>
      <trkpt lat="46.61488" lon="5.84537">
        <ele>497.61962890625</ele>
        <time>2012-07-18T12:16:10Z</time>
      </trkpt>
      <trkpt lat="46.61486" lon="5.84546">
        <ele>497.13891601562</ele>
        <time>2012-07-18T12:16:14Z</time>
      </trkpt>
      <trkpt lat="46.61484" lon="5.84563">
        <ele>497.61962890625</ele>
        <time>2012-07-18T12:16:24Z</time>
      </trkpt>
      <trkpt lat="46.61484" lon="5.84565">
        <ele>498.10034179688</ele>
        <time>2012-07-18T12:16:26Z</time>
      </trkpt>
      <trkpt lat="46.61484" lon="5.84569">
        <ele>497.61962890625</ele>
        <time>2012-07-18T12:16:28Z</time>
      </trkpt>
      <trkpt lat="46.61486" lon="5.84584">
        <ele>500.02294921875</ele>
        <time>2012-07-18T12:16:32Z</time>
      </trkpt>
      <trkpt lat="46.61482" lon="5.84595">
        <ele>500.98413085938</ele>
        <time>2012-07-18T12:16:40Z</time>
      </trkpt>
      <trkpt lat="46.61478" lon="5.84608">
        <ele>501.94555664062</ele>
        <time>2012-07-18T12:16:48Z</time>
      </trkpt>
      <trkpt lat="46.61473" lon="5.84621">
        <ele>504.82946777344</ele>
        <time>2012-07-18T12:16:56Z</time>
      </trkpt>
      <trkpt lat="46.61473" lon="5.84623">
        <ele>504.82946777344</ele>
        <time>2012-07-18T12:16:59Z</time>
      </trkpt>
      <trkpt lat="46.61471" lon="5.84627">
        <ele>503.8681640625</ele>
        <time>2012-07-18T12:17:01Z</time>
      </trkpt>
      <trkpt lat="46.61467" lon="5.84646">
        <ele>504.34887695312</ele>
        <time>2012-07-18T12:17:08Z</time>
      </trkpt>
      <trkpt lat="46.61465" lon="5.84655">
        <ele>503.38745117188</ele>
        <time>2012-07-18T12:17:15Z</time>
      </trkpt>
      <trkpt lat="46.61465" lon="5.84657">
        <ele>502.90673828125</ele>
        <time>2012-07-18T12:17:17Z</time>
      </trkpt>
      <trkpt lat="46.6146" lon="5.84677">
        <ele>500.50354003906</ele>
        <time>2012-07-18T12:17:24Z</time>
      </trkpt>
      <trkpt lat="46.61458" lon="5.84687">
        <ele>500.50354003906</ele>
        <time>2012-07-18T12:17:32Z</time>
      </trkpt>
      <trkpt lat="46.61456" lon="5.84687">
        <ele>500.02294921875</ele>
        <time>2012-07-18T12:17:33Z</time>
      </trkpt>
      <trkpt lat="46.61452" lon="5.84702">
        <ele>501.46484375</ele>
        <time>2012-07-18T12:17:39Z</time>
      </trkpt>
      <trkpt lat="46.6145" lon="5.84704">
        <ele>501.46484375</ele>
        <time>2012-07-18T12:17:40Z</time>
      </trkpt>
      <trkpt lat="46.61448" lon="5.84717">
        <ele>502.90673828125</ele>
        <time>2012-07-18T12:17:50Z</time>
      </trkpt>
      <trkpt lat="46.61443" lon="5.84726">
        <ele>504.34887695312</ele>
        <time>2012-07-18T12:18:00Z</time>
      </trkpt>
      <trkpt lat="46.61443" lon="5.8473">
        <ele>504.82946777344</ele>
        <time>2012-07-18T12:18:07Z</time>
      </trkpt>
      <trkpt lat="46.61435" lon="5.84752">
        <ele>507.71350097656</ele>
        <time>2012-07-18T12:18:18Z</time>
      </trkpt>
      <trkpt lat="46.61426" lon="5.84764">
        <ele>510.11669921875</ele>
        <time>2012-07-18T12:18:27Z</time>
      </trkpt>
      <trkpt lat="46.61422" lon="5.84769">
        <ele>512.03942871094</ele>
        <time>2012-07-18T12:18:32Z</time>
      </trkpt>
      <trkpt lat="46.61424" lon="5.84777">
        <ele>513.00073242188</ele>
        <time>2012-07-18T12:18:36Z</time>
      </trkpt>
      <trkpt lat="46.6142" lon="5.84788">
        <ele>514.92333984375</ele>
        <time>2012-07-18T12:18:42Z</time>
      </trkpt>
      <trkpt lat="46.6142" lon="5.84795">
        <ele>516.84594726562</ele>
        <time>2012-07-18T12:18:45Z</time>
      </trkpt>
      <trkpt lat="46.61415" lon="5.84805">
        <ele>520.69128417969</ele>
        <time>2012-07-18T12:18:58Z</time>
      </trkpt>
      <trkpt lat="46.61415" lon="5.8481">
        <ele>521.65258789062</ele>
        <time>2012-07-18T12:19:00Z</time>
      </trkpt>
      <trkpt lat="46.61411" lon="5.84818">
        <ele>523.09460449219</ele>
        <time>2012-07-18T12:19:04Z</time>
      </trkpt>
      <trkpt lat="46.61402" lon="5.84837">
        <ele>527.90100097656</ele>
        <time>2012-07-18T12:19:16Z</time>
      </trkpt>
      <trkpt lat="46.61392" lon="5.84857">
        <ele>530.78515625</ele>
        <time>2012-07-18T12:19:26Z</time>
      </trkpt>
      <trkpt lat="46.61392" lon="5.84859">
        <ele>530.78515625</ele>
        <time>2012-07-18T12:19:27Z</time>
      </trkpt>
      <trkpt lat="46.61392" lon="5.84867">
        <ele>533.18835449219</ele>
        <time>2012-07-18T12:19:30Z</time>
      </trkpt>
      <trkpt lat="46.61383" lon="5.84882">
        <ele>538.95629882812</ele>
        <time>2012-07-18T12:19:39Z</time>
      </trkpt>
      <trkpt lat="46.61379" lon="5.84891">
        <ele>540.87890625</ele>
        <time>2012-07-18T12:19:43Z</time>
      </trkpt>
      <trkpt lat="46.61364" lon="5.84904">
        <ele>543.28210449219</ele>
        <time>2012-07-18T12:19:53Z</time>
      </trkpt>
      <trkpt lat="46.6136" lon="5.84917">
        <ele>544.72424316406</ele>
        <time>2012-07-18T12:20:02Z</time>
      </trkpt>
      <trkpt lat="46.61362" lon="5.84921">
        <ele>545.20483398438</ele>
        <time>2012-07-18T12:20:04Z</time>
      </trkpt>
      <trkpt lat="46.61351" lon="5.84945">
        <ele>545.685546875</ele>
        <time>2012-07-18T12:20:15Z</time>
      </trkpt>
      <trkpt lat="46.61349" lon="5.84958">
        <ele>546.16625976562</ele>
        <time>2012-07-18T12:20:21Z</time>
      </trkpt>
      <trkpt lat="46.61347" lon="5.84958">
        <ele>546.16625976562</ele>
        <time>2012-07-18T12:20:22Z</time>
      </trkpt>
      <trkpt lat="46.61345" lon="5.84962">
        <ele>546.16625976562</ele>
        <time>2012-07-18T12:20:25Z</time>
      </trkpt>
      <trkpt lat="46.61336" lon="5.8497">
        <ele>546.64685058594</ele>
        <time>2012-07-18T12:20:32Z</time>
      </trkpt>
      <trkpt lat="46.61321" lon="5.84992">
        <ele>548.0888671875</ele>
        <time>2012-07-18T12:20:46Z</time>
      </trkpt>
      <trkpt lat="46.61317" lon="5.85007">
        <ele>548.5693359375</ele>
        <time>2012-07-18T12:20:55Z</time>
      </trkpt>
      <trkpt lat="46.61317" lon="5.85016">
        <ele>549.05004882812</ele>
        <time>2012-07-18T12:20:59Z</time>
      </trkpt>
      <trkpt lat="46.61312" lon="5.85022">
        <ele>550.01147460938</ele>
        <time>2012-07-18T12:21:05Z</time>
      </trkpt>
      <trkpt lat="46.61312" lon="5.85024">
        <ele>550.4921875</ele>
        <time>2012-07-18T12:21:07Z</time>
      </trkpt>
      <trkpt lat="46.6131" lon="5.85037">
        <ele>550.97265625</ele>
        <time>2012-07-18T12:21:14Z</time>
      </trkpt>
      <trkpt lat="46.61308" lon="5.8505">
        <ele>552.41455078125</ele>
        <time>2012-07-18T12:21:23Z</time>
      </trkpt>
      <trkpt lat="46.61306" lon="5.85056">
        <ele>553.3759765625</ele>
        <time>2012-07-18T12:21:27Z</time>
      </trkpt>
      <trkpt lat="46.61308" lon="5.85063">
        <ele>553.85668945312</ele>
        <time>2012-07-18T12:21:30Z</time>
      </trkpt>
      <trkpt lat="46.61308" lon="5.85065">
        <ele>553.85668945312</ele>
        <time>2012-07-18T12:21:32Z</time>
      </trkpt>
      <trkpt lat="46.6131" lon="5.85078">
        <ele>554.81787109375</ele>
        <time>2012-07-18T12:21:42Z</time>
      </trkpt>
      <trkpt lat="46.61312" lon="5.85082">
        <ele>557.7021484375</ele>
        <time>2012-07-18T12:22:26Z</time>
      </trkpt>
      <trkpt lat="46.61317" lon="5.85086">
        <ele>558.66333007812</ele>
        <time>2012-07-18T12:22:43Z</time>
      </trkpt>
      <trkpt lat="46.61314" lon="5.85093">
        <ele>559.14404296875</ele>
        <time>2012-07-18T12:22:47Z</time>
      </trkpt>
      <trkpt lat="46.61314" lon="5.85095">
        <ele>559.14404296875</ele>
        <time>2012-07-18T12:22:49Z</time>
      </trkpt>
      <trkpt lat="46.61312" lon="5.85099">
        <ele>559.62475585938</ele>
        <time>2012-07-18T12:22:52Z</time>
      </trkpt>
      <trkpt lat="46.61314" lon="5.85123">
        <ele>561.06665039062</ele>
        <time>2012-07-18T12:23:08Z</time>
      </trkpt>
      <trkpt lat="46.61323" lon="5.85136">
        <ele>561.54736328125</ele>
        <time>2012-07-18T12:23:15Z</time>
      </trkpt>
      <trkpt lat="46.61334" lon="5.85151">
        <ele>565.392578125</ele>
        <time>2012-07-18T12:23:24Z</time>
      </trkpt>
      <trkpt lat="46.61334" lon="5.85155">
        <ele>568.2763671875</ele>
        <time>2012-07-18T12:23:28Z</time>
      </trkpt>
      <trkpt lat="46.61345" lon="5.85168">
        <ele>574.04443359375</ele>
        <time>2012-07-18T12:23:37Z</time>
      </trkpt>
      <trkpt lat="46.61347" lon="5.85174">
        <ele>574.52514648438</ele>
        <time>2012-07-18T12:23:41Z</time>
      </trkpt>
      <trkpt lat="46.61353" lon="5.85187">
        <ele>571.64086914062</ele>
        <time>2012-07-18T12:23:49Z</time>
      </trkpt>
      <trkpt lat="46.61353" lon="5.85189">
        <ele>571.64086914062</ele>
        <time>2012-07-18T12:23:50Z</time>
      </trkpt>
      <trkpt lat="46.61351" lon="5.85202">
        <ele>570.19897460938</ele>
        <time>2012-07-18T12:23:58Z</time>
      </trkpt>
      <trkpt lat="46.61351" lon="5.85204">
        <ele>570.19897460938</ele>
        <time>2012-07-18T12:23:59Z</time>
      </trkpt>
      <trkpt lat="46.61362" lon="5.85226">
        <ele>566.35375976562</ele>
        <time>2012-07-18T12:24:10Z</time>
      </trkpt>
      <trkpt lat="46.61366" lon="5.85243">
        <ele>562.9892578125</ele>
        <time>2012-07-18T12:24:18Z</time>
      </trkpt>
      <trkpt lat="46.61375" lon="5.85262">
        <ele>561.06665039062</ele>
        <time>2012-07-18T12:24:29Z</time>
      </trkpt>
      <trkpt lat="46.61379" lon="5.85271">
        <ele>560.5859375</ele>
        <time>2012-07-18T12:24:38Z</time>
      </trkpt>
      <trkpt lat="46.61383" lon="5.85282">
        <ele>556.26000976562</ele>
        <time>2012-07-18T12:24:46Z</time>
      </trkpt>
      <trkpt lat="46.61385" lon="5.8529">
        <ele>554.33740234375</ele>
        <time>2012-07-18T12:24:50Z</time>
      </trkpt>
      <trkpt lat="46.61385" lon="5.85294">
        <ele>556.26000976562</ele>
        <time>2012-07-18T12:24:56Z</time>
      </trkpt>
      <trkpt lat="46.6139" lon="5.8531">
        <ele>560.10522460938</ele>
        <time>2012-07-18T12:25:09Z</time>
      </trkpt>
      <trkpt lat="46.61385" lon="5.85333">
        <ele>564.43115234375</ele>
        <time>2012-07-18T12:25:27Z</time>
      </trkpt>
      <trkpt lat="46.61385" lon="5.85333">
        <ele>564.91186523438</ele>
        <time>2012-07-18T12:25:28Z</time>
      </trkpt>
      <trkpt lat="46.61385" lon="5.85346">
        <ele>566.35375976562</ele>
        <time>2012-07-18T12:25:34Z</time>
      </trkpt>
      <trkpt lat="46.6139" lon="5.85365">
        <ele>568.2763671875</ele>
        <time>2012-07-18T12:25:43Z</time>
      </trkpt>
      <trkpt lat="46.61396" lon="5.8538">
        <ele>570.6796875</ele>
        <time>2012-07-18T12:25:52Z</time>
      </trkpt>
      <trkpt lat="46.61398" lon="5.8541">
        <ele>582.6962890625</ele>
        <time>2012-07-18T12:26:20Z</time>
      </trkpt>
      <trkpt lat="46.61392" lon="5.85415">
        <ele>586.06079101562</ele>
        <time>2012-07-18T12:26:35Z</time>
      </trkpt>
      <trkpt lat="46.61392" lon="5.85419">
        <ele>587.02197265625</ele>
        <time>2012-07-18T12:26:52Z</time>
      </trkpt>
      <trkpt lat="46.61394" lon="5.85421">
        <ele>586.06079101562</ele>
        <time>2012-07-18T12:27:00Z</time>
      </trkpt>
      <trkpt lat="46.61398" lon="5.85419">
        <ele>584.61889648438</ele>
        <time>2012-07-18T12:27:07Z</time>
      </trkpt>
      <trkpt lat="46.61402" lon="5.85415">
        <ele>584.13818359375</ele>
        <time>2012-07-18T12:27:17Z</time>
      </trkpt>
      <trkpt lat="46.61409" lon="5.85395">
        <ele>579.81225585938</ele>
        <time>2012-07-18T12:27:33Z</time>
      </trkpt>
      <trkpt lat="46.61411" lon="5.85391">
        <ele>577.8896484375</ele>
        <time>2012-07-18T12:27:37Z</time>
      </trkpt>
      <trkpt lat="46.61415" lon="5.85389">
        <ele>575.96704101562</ele>
        <time>2012-07-18T12:27:41Z</time>
      </trkpt>
      <trkpt lat="46.61424" lon="5.85387">
        <ele>574.04443359375</ele>
        <time>2012-07-18T12:27:48Z</time>
      </trkpt>
      <trkpt lat="46.61435" lon="5.85385">
        <ele>572.12182617188</ele>
        <time>2012-07-18T12:27:56Z</time>
      </trkpt>
      <trkpt lat="46.61443" lon="5.85382">
        <ele>569.71850585938</ele>
        <time>2012-07-18T12:28:06Z</time>
      </trkpt>
      <trkpt lat="46.61454" lon="5.85382">
        <ele>561.54736328125</ele>
        <time>2012-07-18T12:28:39Z</time>
      </trkpt>
      <trkpt lat="46.61452" lon="5.85391">
        <ele>561.06665039062</ele>
        <time>2012-07-18T12:28:47Z</time>
      </trkpt>
      <trkpt lat="46.61452" lon="5.85404">
        <ele>560.10522460938</ele>
        <time>2012-07-18T12:28:58Z</time>
      </trkpt>
      <trkpt lat="46.61452" lon="5.85417">
        <ele>562.50854492188</ele>
        <time>2012-07-18T12:29:10Z</time>
      </trkpt>
      <trkpt lat="46.61452" lon="5.8543">
        <ele>564.91186523438</ele>
        <time>2012-07-18T12:29:18Z</time>
      </trkpt>
      <trkpt lat="46.6145" lon="5.85438">
        <ele>568.2763671875</ele>
        <time>2012-07-18T12:29:28Z</time>
      </trkpt>
      <trkpt lat="46.61441" lon="5.85445">
        <ele>573.56396484375</ele>
        <time>2012-07-18T12:29:38Z</time>
      </trkpt>
      <trkpt lat="46.61435" lon="5.85453">
        <ele>582.6962890625</ele>
        <time>2012-07-18T12:29:53Z</time>
      </trkpt>
      <trkpt lat="46.6143" lon="5.85466">
        <ele>587.9833984375</ele>
        <time>2012-07-18T12:30:04Z</time>
      </trkpt>
      <trkpt lat="46.61433" lon="5.85496">
        <ele>594.71264648438</ele>
        <time>2012-07-18T12:30:26Z</time>
      </trkpt>
      <trkpt lat="46.61411" lon="5.85543">
        <ele>600.48071289062</ele>
        <time>2012-07-18T12:31:21Z</time>
      </trkpt>
      <trkpt lat="46.61411" lon="5.85556">
        <ele>601.44189453125</ele>
        <time>2012-07-18T12:31:31Z</time>
      </trkpt>
      <trkpt lat="46.61415" lon="5.85569">
        <ele>600.96118164062</ele>
        <time>2012-07-18T12:31:40Z</time>
      </trkpt>
      <trkpt lat="46.61422" lon="5.85576">
        <ele>601.44189453125</ele>
        <time>2012-07-18T12:31:53Z</time>
      </trkpt>
      <trkpt lat="46.61437" lon="5.85593">
        <ele>603.84521484375</ele>
        <time>2012-07-18T12:32:13Z</time>
      </trkpt>
      <trkpt lat="46.61441" lon="5.85599">
        <ele>605.76806640625</ele>
        <time>2012-07-18T12:32:18Z</time>
      </trkpt>
      <trkpt lat="46.61445" lon="5.85608">
        <ele>607.69067382812</ele>
        <time>2012-07-18T12:32:27Z</time>
      </trkpt>
      <trkpt lat="46.61443" lon="5.85623">
        <ele>608.65185546875</ele>
        <time>2012-07-18T12:32:40Z</time>
      </trkpt>
      <trkpt lat="46.61439" lon="5.85631">
        <ele>613.45849609375</ele>
        <time>2012-07-18T12:32:48Z</time>
      </trkpt>
      <trkpt lat="46.61435" lon="5.85651">
        <ele>625.47485351562</ele>
        <time>2012-07-18T12:33:30Z</time>
      </trkpt>
      <trkpt lat="46.61435" lon="5.85659">
        <ele>630.76220703125</ele>
        <time>2012-07-18T12:33:39Z</time>
      </trkpt>
      <trkpt lat="46.61435" lon="5.85668">
        <ele>633.64599609375</ele>
        <time>2012-07-18T12:33:57Z</time>
      </trkpt>
      <trkpt lat="46.6143" lon="5.85674">
        <ele>637.0107421875</ele>
        <time>2012-07-18T12:34:08Z</time>
      </trkpt>
      <trkpt lat="46.61435" lon="5.85676">
        <ele>637.97216796875</ele>
        <time>2012-07-18T12:34:11Z</time>
      </trkpt>
      <trkpt lat="46.61437" lon="5.85676">
        <ele>637.97216796875</ele>
        <time>2012-07-18T12:34:13Z</time>
      </trkpt>
      <trkpt lat="46.61439" lon="5.85683">
        <ele>639.89477539062</ele>
        <time>2012-07-18T12:34:22Z</time>
      </trkpt>
      <trkpt lat="46.61439" lon="5.85689">
        <ele>640.85595703125</ele>
        <time>2012-07-18T12:34:27Z</time>
      </trkpt>
      <trkpt lat="46.61439" lon="5.85691">
        <ele>642.77880859375</ele>
        <time>2012-07-18T12:34:31Z</time>
      </trkpt>
      <trkpt lat="46.61439" lon="5.857">
        <ele>647.58520507812</ele>
        <time>2012-07-18T12:34:40Z</time>
      </trkpt>
      <trkpt lat="46.61456" lon="5.85709">
        <ele>657.19848632812</ele>
        <time>2012-07-18T12:34:53Z</time>
      </trkpt>
      <trkpt lat="46.61469" lon="5.85726">
        <ele>660.56298828125</ele>
        <time>2012-07-18T12:35:17Z</time>
      </trkpt>
      <trkpt lat="46.61469" lon="5.85741">
        <ele>660.08227539062</ele>
        <time>2012-07-18T12:35:26Z</time>
      </trkpt>
      <trkpt lat="46.61471" lon="5.85754">
        <ele>660.08227539062</ele>
        <time>2012-07-18T12:35:35Z</time>
      </trkpt>
      <trkpt lat="46.61473" lon="5.85756">
        <ele>660.08227539062</ele>
        <time>2012-07-18T12:35:40Z</time>
      </trkpt>
      <trkpt lat="46.61484" lon="5.85764">
        <ele>660.08227539062</ele>
        <time>2012-07-18T12:35:52Z</time>
      </trkpt>
      <trkpt lat="46.61482" lon="5.85782">
        <ele>660.08227539062</ele>
        <time>2012-07-18T12:36:21Z</time>
      </trkpt>
      <trkpt lat="46.61458" lon="5.85794">
        <ele>660.56298828125</ele>
        <time>2012-07-18T12:36:36Z</time>
      </trkpt>
      <trkpt lat="46.61445" lon="5.85803">
        <ele>660.56298828125</ele>
        <time>2012-07-18T12:36:45Z</time>
      </trkpt>
      <trkpt lat="46.61441" lon="5.85814">
        <ele>660.56298828125</ele>
        <time>2012-07-18T12:36:52Z</time>
      </trkpt>
      <trkpt lat="46.61441" lon="5.85824">
        <ele>660.56298828125</ele>
        <time>2012-07-18T12:37:02Z</time>
      </trkpt>
      <trkpt lat="46.61437" lon="5.85829">
        <ele>660.56298828125</ele>
        <time>2012-07-18T12:37:04Z</time>
      </trkpt>
      <trkpt lat="46.61435" lon="5.85835">
        <ele>660.56298828125</ele>
        <time>2012-07-18T12:37:13Z</time>
      </trkpt>
      <trkpt lat="46.61417" lon="5.8585">
        <ele>660.56298828125</ele>
        <time>2012-07-18T12:37:28Z</time>
      </trkpt>
      <trkpt lat="46.61493" lon="5.85827">
        <ele>688.44140625</ele>
        <time>2012-07-18T12:37:51Z</time>
      </trkpt>
      <trkpt lat="46.61473" lon="5.85844">
        <ele>689.40258789062</ele>
        <time>2012-07-18T12:38:18Z</time>
      </trkpt>
      <trkpt lat="46.61471" lon="5.85846">
        <ele>689.40258789062</ele>
        <time>2012-07-18T12:38:19Z</time>
      </trkpt>
      <trkpt lat="46.61465" lon="5.85855">
        <ele>689.40258789062</ele>
        <time>2012-07-18T12:38:22Z</time>
      </trkpt>
      <trkpt lat="46.61514" lon="5.85846">
        <ele>699.97705078125</ele>
        <time>2012-07-18T12:38:31Z</time>
      </trkpt>
      <trkpt lat="46.6151" lon="5.85848">
        <ele>699.97705078125</ele>
        <time>2012-07-18T12:38:34Z</time>
      </trkpt>
      <trkpt lat="46.61497" lon="5.85855">
        <ele>699.97705078125</ele>
        <time>2012-07-18T12:38:43Z</time>
      </trkpt>
      <trkpt lat="46.61572" lon="5.8584">
        <ele>709.10961914062</ele>
        <time>2012-07-18T12:39:01Z</time>
      </trkpt>
      <trkpt lat="46.61572" lon="5.85842">
        <ele>709.10961914062</ele>
        <time>2012-07-18T12:39:07Z</time>
      </trkpt>
      <trkpt lat="46.61574" lon="5.85846">
        <ele>710.07080078125</ele>
        <time>2012-07-18T12:39:13Z</time>
      </trkpt>
      <trkpt lat="46.61581" lon="5.8585">
        <ele>711.0322265625</ele>
        <time>2012-07-18T12:39:22Z</time>
      </trkpt>
      <trkpt lat="46.61578" lon="5.85852">
        <ele>711.0322265625</ele>
        <time>2012-07-18T12:39:23Z</time>
      </trkpt>
      <trkpt lat="46.61574" lon="5.85861">
        <ele>707.66772460938</ele>
        <time>2012-07-18T12:39:36Z</time>
      </trkpt>
      <trkpt lat="46.61576" lon="5.85876">
        <ele>706.70629882812</ele>
        <time>2012-07-18T12:39:54Z</time>
      </trkpt>
      <trkpt lat="46.61578" lon="5.85882">
        <ele>708.1484375</ele>
        <time>2012-07-18T12:39:59Z</time>
      </trkpt>
      <trkpt lat="46.6157" lon="5.85891">
        <ele>708.1484375</ele>
        <time>2012-07-18T12:40:03Z</time>
      </trkpt>
      <trkpt lat="46.61566" lon="5.85902">
        <ele>707.18701171875</ele>
        <time>2012-07-18T12:40:12Z</time>
      </trkpt>
      <trkpt lat="46.61566" lon="5.8591">
        <ele>704.30322265625</ele>
        <time>2012-07-18T12:40:27Z</time>
      </trkpt>
      <trkpt lat="46.6157" lon="5.85915">
        <ele>705.26440429688</ele>
        <time>2012-07-18T12:40:30Z</time>
      </trkpt>
      <trkpt lat="46.61589" lon="5.85919">
        <ele>705.7451171875</ele>
        <time>2012-07-18T12:40:39Z</time>
      </trkpt>
      <trkpt lat="46.61615" lon="5.85925">
        <ele>707.66772460938</ele>
        <time>2012-07-18T12:40:52Z</time>
      </trkpt>
      <trkpt lat="46.61617" lon="5.85934">
        <ele>710.07080078125</ele>
        <time>2012-07-18T12:41:01Z</time>
      </trkpt>
      <trkpt lat="46.61617" lon="5.85936">
        <ele>710.55151367188</ele>
        <time>2012-07-18T12:41:04Z</time>
      </trkpt>
      <trkpt lat="46.61619" lon="5.85947">
        <ele>710.07080078125</ele>
        <time>2012-07-18T12:41:13Z</time>
      </trkpt>
      <trkpt lat="46.61617" lon="5.85953">
        <ele>711.99365234375</ele>
        <time>2012-07-18T12:41:23Z</time>
      </trkpt>
      <trkpt lat="46.61617" lon="5.85953">
        <ele>711.99365234375</ele>
        <time>2012-07-18T12:41:25Z</time>
      </trkpt>
      <trkpt lat="46.61623" lon="5.85953">
        <ele>713.916015625</ele>
        <time>2012-07-18T12:41:29Z</time>
      </trkpt>
      <trkpt lat="46.61623" lon="5.85955">
        <ele>720.16479492188</ele>
        <time>2012-07-18T12:41:39Z</time>
      </trkpt>
      <trkpt lat="46.61628" lon="5.8596">
        <ele>723.52954101562</ele>
        <time>2012-07-18T12:41:48Z</time>
      </trkpt>
      <trkpt lat="46.61628" lon="5.8596">
        <ele>724.49072265625</ele>
        <time>2012-07-18T12:41:53Z</time>
      </trkpt>
      <trkpt lat="46.61638" lon="5.8596">
        <ele>724.01000976562</ele>
        <time>2012-07-18T12:42:00Z</time>
      </trkpt>
      <trkpt lat="46.61641" lon="5.85968">
        <ele>727.85522460938</ele>
        <time>2012-07-18T12:42:13Z</time>
      </trkpt>
      <trkpt lat="46.61634" lon="5.85973">
        <ele>728.3359375</ele>
        <time>2012-07-18T12:42:16Z</time>
      </trkpt>
      <trkpt lat="46.61611" lon="5.85981">
        <ele>729.77783203125</ele>
        <time>2012-07-18T12:42:28Z</time>
      </trkpt>
      <trkpt lat="46.61615" lon="5.85983">
        <ele>726.89404296875</ele>
        <time>2012-07-18T12:42:43Z</time>
      </trkpt>
      <trkpt lat="46.61604" lon="5.85992">
        <ele>726.41333007812</ele>
        <time>2012-07-18T12:42:52Z</time>
      </trkpt>
      <trkpt lat="46.61598" lon="5.85992">
        <ele>726.89404296875</ele>
        <time>2012-07-18T12:43:14Z</time>
      </trkpt>
      <trkpt lat="46.61593" lon="5.85994">
        <ele>725.45190429688</ele>
        <time>2012-07-18T12:43:22Z</time>
      </trkpt>
      <trkpt lat="46.61591" lon="5.85996">
        <ele>725.45190429688</ele>
        <time>2012-07-18T12:43:30Z</time>
      </trkpt>
      <trkpt lat="46.61587" lon="5.85996">
        <ele>725.45190429688</ele>
        <time>2012-07-18T12:43:35Z</time>
      </trkpt>
      <trkpt lat="46.61576" lon="5.86007">
        <ele>728.3359375</ele>
        <time>2012-07-18T12:43:43Z</time>
      </trkpt>
      <trkpt lat="46.61568" lon="5.86018">
        <ele>726.41333007812</ele>
        <time>2012-07-18T12:43:55Z</time>
      </trkpt>
      <trkpt lat="46.61566" lon="5.8603">
        <ele>724.01000976562</ele>
        <time>2012-07-18T12:43:59Z</time>
      </trkpt>
      <trkpt lat="46.61551" lon="5.86054">
        <ele>717.28100585938</ele>
        <time>2012-07-18T12:44:08Z</time>
      </trkpt>
      <trkpt lat="46.61544" lon="5.86065">
        <ele>713.435546875</ele>
        <time>2012-07-18T12:44:13Z</time>
      </trkpt>
      <trkpt lat="46.61538" lon="5.86073">
        <ele>711.0322265625</ele>
        <time>2012-07-18T12:44:20Z</time>
      </trkpt>
      <trkpt lat="46.61523" lon="5.86099">
        <ele>704.78369140625</ele>
        <time>2012-07-18T12:44:41Z</time>
      </trkpt>
      <trkpt lat="46.61523" lon="5.86108">
        <ele>702.86108398438</ele>
        <time>2012-07-18T12:44:46Z</time>
      </trkpt>
      <trkpt lat="46.61525" lon="5.86118">
        <ele>701.41918945312</ele>
        <time>2012-07-18T12:44:52Z</time>
      </trkpt>
      <trkpt lat="46.61525" lon="5.86123">
        <ele>699.97705078125</ele>
        <time>2012-07-18T12:44:55Z</time>
      </trkpt>
      <trkpt lat="46.61527" lon="5.86127">
        <ele>699.015625</ele>
        <time>2012-07-18T12:44:58Z</time>
      </trkpt>
      <trkpt lat="46.61529" lon="5.86133">
        <ele>698.05444335938</ele>
        <time>2012-07-18T12:45:02Z</time>
      </trkpt>
      <trkpt lat="46.61529" lon="5.86144">
        <ele>696.61254882812</ele>
        <time>2012-07-18T12:45:07Z</time>
      </trkpt>
      <trkpt lat="46.61531" lon="5.86149">
        <ele>695.65112304688</ele>
        <time>2012-07-18T12:45:10Z</time>
      </trkpt>
      <trkpt lat="46.61533" lon="5.86155">
        <ele>694.68969726562</ele>
        <time>2012-07-18T12:45:17Z</time>
      </trkpt>
      <trkpt lat="46.61531" lon="5.86159">
        <ele>694.20922851562</ele>
        <time>2012-07-18T12:45:19Z</time>
      </trkpt>
      <trkpt lat="46.6154" lon="5.86172">
        <ele>692.28662109375</ele>
        <time>2012-07-18T12:45:29Z</time>
      </trkpt>
      <trkpt lat="46.6154" lon="5.86179">
        <ele>691.80590820312</ele>
        <time>2012-07-18T12:45:32Z</time>
      </trkpt>
      <trkpt lat="46.61542" lon="5.86183">
        <ele>691.3251953125</ele>
        <time>2012-07-18T12:45:35Z</time>
      </trkpt>
      <trkpt lat="46.61542" lon="5.86196">
        <ele>690.84448242188</ele>
        <time>2012-07-18T12:45:45Z</time>
      </trkpt>
      <trkpt lat="46.6154" lon="5.86198">
        <ele>691.80590820312</ele>
        <time>2012-07-18T12:45:47Z</time>
      </trkpt>
      <trkpt lat="46.6154" lon="5.86202">
        <ele>691.80590820312</ele>
        <time>2012-07-18T12:45:49Z</time>
      </trkpt>
      <trkpt lat="46.61538" lon="5.86213">
        <ele>690.84448242188</ele>
        <time>2012-07-18T12:45:57Z</time>
      </trkpt>
      <trkpt lat="46.61538" lon="5.86221">
        <ele>689.88330078125</ele>
        <time>2012-07-18T12:46:02Z</time>
      </trkpt>
      <trkpt lat="46.61546" lon="5.86226">
        <ele>689.40258789062</ele>
        <time>2012-07-18T12:46:07Z</time>
      </trkpt>
      <trkpt lat="46.61557" lon="5.86228">
        <ele>689.40258789062</ele>
        <time>2012-07-18T12:46:13Z</time>
      </trkpt>
      <trkpt lat="46.61559" lon="5.86228">
        <ele>689.40258789062</ele>
        <time>2012-07-18T12:46:15Z</time>
      </trkpt>
      <trkpt lat="46.61559" lon="5.8623">
        <ele>690.36401367188</ele>
        <time>2012-07-18T12:46:18Z</time>
      </trkpt>
      <trkpt lat="46.61557" lon="5.86234">
        <ele>690.84448242188</ele>
        <time>2012-07-18T12:46:25Z</time>
      </trkpt>
      <trkpt lat="46.61551" lon="5.86239">
        <ele>691.3251953125</ele>
        <time>2012-07-18T12:46:35Z</time>
      </trkpt>
      <trkpt lat="46.61551" lon="5.86245">
        <ele>689.88330078125</ele>
        <time>2012-07-18T12:46:40Z</time>
      </trkpt>
      <trkpt lat="46.61553" lon="5.86249">
        <ele>689.40258789062</ele>
        <time>2012-07-18T12:46:43Z</time>
      </trkpt>
      <trkpt lat="46.61559" lon="5.86256">
        <ele>686.0380859375</ele>
        <time>2012-07-18T12:46:54Z</time>
      </trkpt>
      <trkpt lat="46.61561" lon="5.86258">
        <ele>683.15380859375</ele>
        <time>2012-07-18T12:47:17Z</time>
      </trkpt>
      <trkpt lat="46.61563" lon="5.86264">
        <ele>684.11547851562</ele>
        <time>2012-07-18T12:47:34Z</time>
      </trkpt>
      <trkpt lat="46.61566" lon="5.86273">
        <ele>685.55737304688</ele>
        <time>2012-07-18T12:47:44Z</time>
      </trkpt>
      <trkpt lat="46.61568" lon="5.86277">
        <ele>686.51879882812</ele>
        <time>2012-07-18T12:47:47Z</time>
      </trkpt>
      <trkpt lat="46.6157" lon="5.86286">
        <ele>686.99926757812</ele>
        <time>2012-07-18T12:47:56Z</time>
      </trkpt>
      <trkpt lat="46.61572" lon="5.86297">
        <ele>688.44140625</ele>
        <time>2012-07-18T12:48:05Z</time>
      </trkpt>
      <trkpt lat="46.6157" lon="5.86305">
        <ele>688.92211914062</ele>
        <time>2012-07-18T12:48:12Z</time>
      </trkpt>
      <trkpt lat="46.61566" lon="5.86318">
        <ele>689.40258789062</ele>
        <time>2012-07-18T12:48:20Z</time>
      </trkpt>
      <trkpt lat="46.61563" lon="5.86327">
        <ele>690.84448242188</ele>
        <time>2012-07-18T12:48:32Z</time>
      </trkpt>
      <trkpt lat="46.61555" lon="5.86331">
        <ele>692.76733398438</ele>
        <time>2012-07-18T12:48:36Z</time>
      </trkpt>
      <trkpt lat="46.61544" lon="5.86344">
        <ele>689.88330078125</ele>
        <time>2012-07-18T12:48:42Z</time>
      </trkpt>
      <trkpt lat="46.6154" lon="5.86359">
        <ele>677.86669921875</ele>
        <time>2012-07-18T12:48:53Z</time>
      </trkpt>
      <trkpt lat="46.61542" lon="5.86376">
        <ele>676.4248046875</ele>
        <time>2012-07-18T12:49:17Z</time>
      </trkpt>
      <trkpt lat="46.61542" lon="5.8638">
        <ele>677.86669921875</ele>
        <time>2012-07-18T12:49:32Z</time>
      </trkpt>
      <trkpt lat="46.61542" lon="5.86402">
        <ele>681.7119140625</ele>
        <time>2012-07-18T12:50:04Z</time>
      </trkpt>
      <trkpt lat="46.61542" lon="5.86412">
        <ele>679.78930664062</ele>
        <time>2012-07-18T12:50:15Z</time>
      </trkpt>
      <trkpt lat="46.61533" lon="5.86423">
        <ele>679.78930664062</ele>
        <time>2012-07-18T12:50:39Z</time>
      </trkpt>
      <trkpt lat="46.61523" lon="5.8644">
        <ele>686.51879882812</ele>
        <time>2012-07-18T12:50:53Z</time>
      </trkpt>
      <trkpt lat="46.61525" lon="5.86442">
        <ele>686.99926757812</ele>
        <time>2012-07-18T12:50:55Z</time>
      </trkpt>
      <trkpt lat="46.61525" lon="5.86453">
        <ele>688.44140625</ele>
        <time>2012-07-18T12:51:04Z</time>
      </trkpt>
      <trkpt lat="46.6152" lon="5.86468">
        <ele>688.92211914062</ele>
        <time>2012-07-18T12:51:26Z</time>
      </trkpt>
      <trkpt lat="46.61523" lon="5.86475">
        <ele>688.92211914062</ele>
        <time>2012-07-18T12:51:30Z</time>
      </trkpt>
      <trkpt lat="46.61523" lon="5.86477">
        <ele>689.40258789062</ele>
        <time>2012-07-18T12:51:36Z</time>
      </trkpt>
      <trkpt lat="46.61525" lon="5.86483">
        <ele>691.3251953125</ele>
        <time>2012-07-18T12:51:45Z</time>
      </trkpt>
      <trkpt lat="46.61518" lon="5.86498">
        <ele>692.76733398438</ele>
        <time>2012-07-18T12:51:53Z</time>
      </trkpt>
      <trkpt lat="46.61518" lon="5.86515">
        <ele>692.28662109375</ele>
        <time>2012-07-18T12:52:03Z</time>
      </trkpt>
      <trkpt lat="46.61516" lon="5.8653">
        <ele>689.88330078125</ele>
        <time>2012-07-18T12:52:13Z</time>
      </trkpt>
      <trkpt lat="46.61516" lon="5.86552">
        <ele>685.55737304688</ele>
        <time>2012-07-18T12:52:29Z</time>
      </trkpt>
      <trkpt lat="46.61514" lon="5.86567">
        <ele>682.67333984375</ele>
        <time>2012-07-18T12:52:38Z</time>
      </trkpt>
      <trkpt lat="46.61516" lon="5.86578">
        <ele>679.30859375</ele>
        <time>2012-07-18T12:52:44Z</time>
      </trkpt>
      <trkpt lat="46.61514" lon="5.86595">
        <ele>680.27001953125</ele>
        <time>2012-07-18T12:52:56Z</time>
      </trkpt>
      <trkpt lat="46.61518" lon="5.86608">
        <ele>682.19262695312</ele>
        <time>2012-07-18T12:53:07Z</time>
      </trkpt>
      <trkpt lat="46.61505" lon="5.86636">
        <ele>686.0380859375</ele>
        <time>2012-07-18T12:54:01Z</time>
      </trkpt>
      <trkpt lat="46.61499" lon="5.86644">
        <ele>686.51879882812</ele>
        <time>2012-07-18T12:54:09Z</time>
      </trkpt>
      <trkpt lat="46.61486" lon="5.86653">
        <ele>685.07690429688</ele>
        <time>2012-07-18T12:54:20Z</time>
      </trkpt>
      <trkpt lat="46.61478" lon="5.86661">
        <ele>685.55737304688</ele>
        <time>2012-07-18T12:54:33Z</time>
      </trkpt>
      <trkpt lat="46.61475" lon="5.86674">
        <ele>684.59619140625</ele>
        <time>2012-07-18T12:54:48Z</time>
      </trkpt>
      <trkpt lat="46.61475" lon="5.86685">
        <ele>684.11547851562</ele>
        <time>2012-07-18T12:55:05Z</time>
      </trkpt>
      <trkpt lat="46.61469" lon="5.86702">
        <ele>684.11547851562</ele>
        <time>2012-07-18T12:55:17Z</time>
      </trkpt>
      <trkpt lat="46.6146" lon="5.86717">
        <ele>684.59619140625</ele>
        <time>2012-07-18T12:55:34Z</time>
      </trkpt>
      <trkpt lat="46.6146" lon="5.86719">
        <ele>685.07690429688</ele>
        <time>2012-07-18T12:55:37Z</time>
      </trkpt>
      <trkpt lat="46.6146" lon="5.86726">
        <ele>685.55737304688</ele>
        <time>2012-07-18T12:55:40Z</time>
      </trkpt>
      <trkpt lat="46.61445" lon="5.86745">
        <ele>687.47998046875</ele>
        <time>2012-07-18T12:55:55Z</time>
      </trkpt>
      <trkpt lat="46.61441" lon="5.86762">
        <ele>686.99926757812</ele>
        <time>2012-07-18T12:56:20Z</time>
      </trkpt>
      <trkpt lat="46.61448" lon="5.86777">
        <ele>689.88330078125</ele>
        <time>2012-07-18T12:56:33Z</time>
      </trkpt>
      <trkpt lat="46.61441" lon="5.86803">
        <ele>694.20922851562</ele>
        <time>2012-07-18T12:57:01Z</time>
      </trkpt>
      <trkpt lat="46.61437" lon="5.86824">
        <ele>698.05444335938</ele>
        <time>2012-07-18T12:57:16Z</time>
      </trkpt>
      <trkpt lat="46.61411" lon="5.8685">
        <ele>701.41918945312</ele>
        <time>2012-07-18T12:57:44Z</time>
      </trkpt>
      <trkpt lat="46.61409" lon="5.86854">
        <ele>701.41918945312</ele>
        <time>2012-07-18T12:57:51Z</time>
      </trkpt>
      <trkpt lat="46.614" lon="5.86861">
        <ele>702.38037109375</ele>
        <time>2012-07-18T12:58:01Z</time>
      </trkpt>
      <trkpt lat="46.6139" lon="5.86846">
        <ele>701.89990234375</ele>
        <time>2012-07-18T12:58:28Z</time>
      </trkpt>
      <trkpt lat="46.61394" lon="5.86827">
        <ele>700.4580078125</ele>
        <time>2012-07-18T12:58:43Z</time>
      </trkpt>
      <trkpt lat="46.6137" lon="5.86792">
        <ele>697.09301757812</ele>
        <time>2012-07-18T12:59:22Z</time>
      </trkpt>
      <trkpt lat="46.61362" lon="5.86786">
        <ele>694.68969726562</ele>
        <time>2012-07-18T12:59:32Z</time>
      </trkpt>
      <trkpt lat="46.61362" lon="5.86786">
        <ele>689.88330078125</ele>
        <time>2012-07-18T12:59:54Z</time>
      </trkpt>
      <trkpt lat="46.61362" lon="5.86779">
        <ele>685.07690429688</ele>
        <time>2012-07-18T13:00:32Z</time>
      </trkpt>
      <trkpt lat="46.61368" lon="5.8679">
        <ele>684.59619140625</ele>
        <time>2012-07-18T13:00:42Z</time>
      </trkpt>
      <trkpt lat="46.61368" lon="5.86792">
        <ele>685.07690429688</ele>
        <time>2012-07-18T13:00:43Z</time>
      </trkpt>
      <trkpt lat="46.61377" lon="5.86801">
        <ele>686.0380859375</ele>
        <time>2012-07-18T13:00:52Z</time>
      </trkpt>
      <trkpt lat="46.61381" lon="5.86807">
        <ele>686.0380859375</ele>
        <time>2012-07-18T13:00:55Z</time>
      </trkpt>
      <trkpt lat="46.61387" lon="5.86822">
        <ele>689.40258789062</ele>
        <time>2012-07-18T13:01:03Z</time>
      </trkpt>
      <trkpt lat="46.61394" lon="5.86837">
        <ele>691.3251953125</ele>
        <time>2012-07-18T13:01:17Z</time>
      </trkpt>
      <trkpt lat="46.61396" lon="5.86846">
        <ele>691.3251953125</ele>
        <time>2012-07-18T13:01:23Z</time>
      </trkpt>
      <trkpt lat="46.6139" lon="5.86863">
        <ele>690.84448242188</ele>
        <time>2012-07-18T13:01:34Z</time>
      </trkpt>
      <trkpt lat="46.61375" lon="5.86884">
        <ele>690.36401367188</ele>
        <time>2012-07-18T13:01:47Z</time>
      </trkpt>
      <trkpt lat="46.61368" lon="5.86893">
        <ele>689.88330078125</ele>
        <time>2012-07-18T13:01:55Z</time>
      </trkpt>
      <trkpt lat="46.61362" lon="5.86906">
        <ele>688.92211914062</ele>
        <time>2012-07-18T13:02:07Z</time>
      </trkpt>
      <trkpt lat="46.61351" lon="5.86925">
        <ele>686.51879882812</ele>
        <time>2012-07-18T13:02:26Z</time>
      </trkpt>
      <trkpt lat="46.61355" lon="5.8697">
        <ele>683.15380859375</ele>
        <time>2012-07-18T13:03:03Z</time>
      </trkpt>
      <trkpt lat="46.6136" lon="5.86972">
        <ele>683.63452148438</ele>
        <time>2012-07-18T13:03:18Z</time>
      </trkpt>
      <trkpt lat="46.61347" lon="5.86981">
        <ele>687.96069335938</ele>
        <time>2012-07-18T13:04:46Z</time>
      </trkpt>
      <trkpt lat="46.61342" lon="5.87003">
        <ele>685.07690429688</ele>
        <time>2012-07-18T13:04:58Z</time>
      </trkpt>
      <trkpt lat="46.61345" lon="5.87018">
        <ele>684.59619140625</ele>
        <time>2012-07-18T13:05:04Z</time>
      </trkpt>
      <trkpt lat="46.61342" lon="5.87037">
        <ele>684.11547851562</ele>
        <time>2012-07-18T13:05:14Z</time>
      </trkpt>
      <trkpt lat="46.61342" lon="5.8706">
        <ele>683.63452148438</ele>
        <time>2012-07-18T13:05:31Z</time>
      </trkpt>
      <trkpt lat="46.61342" lon="5.87088">
        <ele>685.07690429688</ele>
        <time>2012-07-18T13:05:42Z</time>
      </trkpt>
      <trkpt lat="46.61334" lon="5.8711">
        <ele>687.47998046875</ele>
        <time>2012-07-18T13:05:55Z</time>
      </trkpt>
      <trkpt lat="46.6133" lon="5.87127">
        <ele>689.40258789062</ele>
        <time>2012-07-18T13:06:06Z</time>
      </trkpt>
      <trkpt lat="46.61332" lon="5.87144">
        <ele>688.44140625</ele>
        <time>2012-07-18T13:06:18Z</time>
      </trkpt>
      <trkpt lat="46.61332" lon="5.87174">
        <ele>686.99926757812</ele>
        <time>2012-07-18T13:06:34Z</time>
      </trkpt>
      <trkpt lat="46.6133" lon="5.87206">
        <ele>684.11547851562</ele>
        <time>2012-07-18T13:06:49Z</time>
      </trkpt>
      <trkpt lat="46.61332" lon="5.87234">
        <ele>683.63452148438</ele>
        <time>2012-07-18T13:07:02Z</time>
      </trkpt>
      <trkpt lat="46.61338" lon="5.87262">
        <ele>686.0380859375</ele>
        <time>2012-07-18T13:07:15Z</time>
      </trkpt>
      <trkpt lat="46.61342" lon="5.87277">
        <ele>686.99926757812</ele>
        <time>2012-07-18T13:07:24Z</time>
      </trkpt>
      <trkpt lat="46.61342" lon="5.87286">
        <ele>687.96069335938</ele>
        <time>2012-07-18T13:07:29Z</time>
      </trkpt>
      <trkpt lat="46.61345" lon="5.87292">
        <ele>688.44140625</ele>
        <time>2012-07-18T13:07:32Z</time>
      </trkpt>
      <trkpt lat="46.61355" lon="5.87316">
        <ele>691.3251953125</ele>
        <time>2012-07-18T13:07:45Z</time>
      </trkpt>
      <trkpt lat="46.61357" lon="5.87316">
        <ele>691.3251953125</ele>
        <time>2012-07-18T13:07:46Z</time>
      </trkpt>
      <trkpt lat="46.61364" lon="5.87331">
        <ele>691.80590820312</ele>
        <time>2012-07-18T13:07:59Z</time>
      </trkpt>
      <trkpt lat="46.61379" lon="5.87382">
        <ele>690.36401367188</ele>
        <time>2012-07-18T13:08:39Z</time>
      </trkpt>
      <trkpt lat="46.61375" lon="5.87395">
        <ele>690.84448242188</ele>
        <time>2012-07-18T13:08:52Z</time>
      </trkpt>
      <trkpt lat="46.61362" lon="5.87425">
        <ele>689.88330078125</ele>
        <time>2012-07-18T13:09:17Z</time>
      </trkpt>
      <trkpt lat="46.61357" lon="5.87442">
        <ele>690.84448242188</ele>
        <time>2012-07-18T13:09:26Z</time>
      </trkpt>
      <trkpt lat="46.61349" lon="5.87462">
        <ele>693.24780273438</ele>
        <time>2012-07-18T13:09:36Z</time>
      </trkpt>
      <trkpt lat="46.6134" lon="5.87477">
        <ele>693.24780273438</ele>
        <time>2012-07-18T13:09:46Z</time>
      </trkpt>
      <trkpt lat="46.61334" lon="5.87481">
        <ele>692.76733398438</ele>
        <time>2012-07-18T13:09:52Z</time>
      </trkpt>
      <trkpt lat="46.61325" lon="5.87485">
        <ele>692.28662109375</ele>
        <time>2012-07-18T13:09:59Z</time>
      </trkpt>
      <trkpt lat="46.61319" lon="5.87494">
        <ele>695.65112304688</ele>
        <time>2012-07-18T13:10:08Z</time>
      </trkpt>
      <trkpt lat="46.61319" lon="5.87515">
        <ele>697.57373046875</ele>
        <time>2012-07-18T13:10:25Z</time>
      </trkpt>
      <trkpt lat="46.61306" lon="5.87535">
        <ele>699.97705078125</ele>
        <time>2012-07-18T13:10:37Z</time>
      </trkpt>
      <trkpt lat="46.61297" lon="5.8755">
        <ele>702.86108398438</ele>
        <time>2012-07-18T13:10:50Z</time>
      </trkpt>
      <trkpt lat="46.61289" lon="5.87575">
        <ele>704.78369140625</ele>
        <time>2012-07-18T13:11:05Z</time>
      </trkpt>
      <trkpt lat="46.61287" lon="5.87586">
        <ele>706.2255859375</ele>
        <time>2012-07-18T13:11:10Z</time>
      </trkpt>
      <trkpt lat="46.61278" lon="5.87603">
        <ele>711.0322265625</ele>
        <time>2012-07-18T13:11:23Z</time>
      </trkpt>
      <trkpt lat="46.61278" lon="5.8761">
        <ele>712.47412109375</ele>
        <time>2012-07-18T13:11:26Z</time>
      </trkpt>
      <trkpt lat="46.61276" lon="5.87623">
        <ele>715.35815429688</ele>
        <time>2012-07-18T13:11:30Z</time>
      </trkpt>
      <trkpt lat="46.61274" lon="5.8764">
        <ele>719.20361328125</ele>
        <time>2012-07-18T13:11:40Z</time>
      </trkpt>
      <trkpt lat="46.61272" lon="5.87653">
        <ele>722.08740234375</ele>
        <time>2012-07-18T13:11:46Z</time>
      </trkpt>
      <trkpt lat="46.61267" lon="5.87663">
        <ele>724.49072265625</ele>
        <time>2012-07-18T13:11:52Z</time>
      </trkpt>
      <trkpt lat="46.61265" lon="5.87672">
        <ele>725.9326171875</ele>
        <time>2012-07-18T13:11:55Z</time>
      </trkpt>
      <trkpt lat="46.61267" lon="5.87698">
        <ele>728.81665039062</ele>
        <time>2012-07-18T13:12:08Z</time>
      </trkpt>
      <trkpt lat="46.61265" lon="5.87702">
        <ele>729.77783203125</ele>
        <time>2012-07-18T13:12:11Z</time>
      </trkpt>
      <trkpt lat="46.61261" lon="5.87715">
        <ele>731.21997070312</ele>
        <time>2012-07-18T13:12:18Z</time>
      </trkpt>
      <trkpt lat="46.61248" lon="5.87739">
        <ele>735.0654296875</ele>
        <time>2012-07-18T13:12:31Z</time>
      </trkpt>
      <trkpt lat="46.61242" lon="5.87756">
        <ele>735.0654296875</ele>
        <time>2012-07-18T13:12:43Z</time>
      </trkpt>
      <trkpt lat="46.61244" lon="5.87771">
        <ele>734.58471679688</ele>
        <time>2012-07-18T13:12:53Z</time>
      </trkpt>
      <trkpt lat="46.61242" lon="5.87781">
        <ele>733.62329101562</ele>
        <time>2012-07-18T13:12:59Z</time>
      </trkpt>
      <trkpt lat="46.61237" lon="5.87786">
        <ele>732.662109375</ele>
        <time>2012-07-18T13:13:03Z</time>
      </trkpt>
      <trkpt lat="46.61229" lon="5.87792">
        <ele>730.7392578125</ele>
        <time>2012-07-18T13:13:08Z</time>
      </trkpt>
      <trkpt lat="46.61216" lon="5.87809">
        <ele>731.70043945312</ele>
        <time>2012-07-18T13:13:19Z</time>
      </trkpt>
      <trkpt lat="46.61207" lon="5.87824">
        <ele>731.21997070312</ele>
        <time>2012-07-18T13:13:28Z</time>
      </trkpt>
      <trkpt lat="46.61205" lon="5.87844">
        <ele>728.81665039062</ele>
        <time>2012-07-18T13:13:39Z</time>
      </trkpt>
      <trkpt lat="46.61201" lon="5.87863">
        <ele>726.41333007812</ele>
        <time>2012-07-18T13:13:50Z</time>
      </trkpt>
      <trkpt lat="46.61192" lon="5.87884">
        <ele>722.56811523438</ele>
        <time>2012-07-18T13:14:04Z</time>
      </trkpt>
      <trkpt lat="46.61192" lon="5.87897">
        <ele>719.68432617188</ele>
        <time>2012-07-18T13:14:22Z</time>
      </trkpt>
      <trkpt lat="46.61171" lon="5.87914">
        <ele>717.76147460938</ele>
        <time>2012-07-18T13:14:51Z</time>
      </trkpt>
      <trkpt lat="46.61156" lon="5.87938">
        <ele>716.31958007812</ele>
        <time>2012-07-18T13:15:05Z</time>
      </trkpt>
      <trkpt lat="46.61145" lon="5.8796">
        <ele>715.35815429688</ele>
        <time>2012-07-18T13:15:17Z</time>
      </trkpt>
      <trkpt lat="46.61119" lon="5.88009">
        <ele>714.87744140625</ele>
        <time>2012-07-18T13:15:55Z</time>
      </trkpt>
      <trkpt lat="46.61106" lon="5.88039">
        <ele>712.47412109375</ele>
        <time>2012-07-18T13:16:13Z</time>
      </trkpt>
      <trkpt lat="46.61102" lon="5.88075">
        <ele>717.76147460938</ele>
        <time>2012-07-18T13:16:33Z</time>
      </trkpt>
      <trkpt lat="46.61098" lon="5.88095">
        <ele>723.048828125</ele>
        <time>2012-07-18T13:16:43Z</time>
      </trkpt>
      <trkpt lat="46.61104" lon="5.88101">
        <ele>725.45190429688</ele>
        <time>2012-07-18T13:16:49Z</time>
      </trkpt>
      <trkpt lat="46.61108" lon="5.8811">
        <ele>732.18139648438</ele>
        <time>2012-07-18T13:17:03Z</time>
      </trkpt>
      <trkpt lat="46.61104" lon="5.88123">
        <ele>734.58471679688</ele>
        <time>2012-07-18T13:17:09Z</time>
      </trkpt>
      <trkpt lat="46.611" lon="5.88138">
        <ele>736.50732421875</ele>
        <time>2012-07-18T13:17:14Z</time>
      </trkpt>
      <trkpt lat="46.61096" lon="5.88146">
        <ele>738.42993164062</ele>
        <time>2012-07-18T13:17:18Z</time>
      </trkpt>
      <trkpt lat="46.61098" lon="5.88159">
        <ele>739.39111328125</ele>
        <time>2012-07-18T13:17:22Z</time>
      </trkpt>
      <trkpt lat="46.61102" lon="5.8817">
        <ele>743.236328125</ele>
        <time>2012-07-18T13:17:31Z</time>
      </trkpt>
      <trkpt lat="46.611" lon="5.88172">
        <ele>744.67822265625</ele>
        <time>2012-07-18T13:17:45Z</time>
      </trkpt>
      <trkpt lat="46.61104" lon="5.88187">
        <ele>747.08154296875</ele>
        <time>2012-07-18T13:18:14Z</time>
      </trkpt>
      <trkpt lat="46.61111" lon="5.88191">
        <ele>747.08154296875</ele>
        <time>2012-07-18T13:18:17Z</time>
      </trkpt>
      <trkpt lat="46.61119" lon="5.88196">
        <ele>746.12036132812</ele>
        <time>2012-07-18T13:18:22Z</time>
      </trkpt>
      <trkpt lat="46.61124" lon="5.88198">
        <ele>745.6396484375</ele>
        <time>2012-07-18T13:18:25Z</time>
      </trkpt>
      <trkpt lat="46.61126" lon="5.882">
        <ele>745.6396484375</ele>
        <time>2012-07-18T13:18:27Z</time>
      </trkpt>
      <trkpt lat="46.61126" lon="5.88204">
        <ele>746.12036132812</ele>
        <time>2012-07-18T13:18:29Z</time>
      </trkpt>
      <trkpt lat="46.6113" lon="5.88213">
        <ele>748.52368164062</ele>
        <time>2012-07-18T13:18:36Z</time>
      </trkpt>
      <trkpt lat="46.61132" lon="5.88215">
        <ele>749.00439453125</ele>
        <time>2012-07-18T13:18:38Z</time>
      </trkpt>
      <trkpt lat="46.61149" lon="5.88226">
        <ele>752.36889648438</ele>
        <time>2012-07-18T13:18:51Z</time>
      </trkpt>
      <trkpt lat="46.61149" lon="5.88232">
        <ele>752.849609375</ele>
        <time>2012-07-18T13:18:54Z</time>
      </trkpt>
      <trkpt lat="46.61149" lon="5.88253">
        <ele>754.77221679688</ele>
        <time>2012-07-18T13:19:05Z</time>
      </trkpt>
      <trkpt lat="46.61154" lon="5.88256">
        <ele>754.77221679688</ele>
        <time>2012-07-18T13:19:08Z</time>
      </trkpt>
      <trkpt lat="46.61162" lon="5.88266">
        <ele>754.77221679688</ele>
        <time>2012-07-18T13:19:13Z</time>
      </trkpt>
      <trkpt lat="46.61164" lon="5.88288">
        <ele>756.69482421875</ele>
        <time>2012-07-18T13:19:25Z</time>
      </trkpt>
      <trkpt lat="46.61162" lon="5.88303">
        <ele>758.13696289062</ele>
        <time>2012-07-18T13:19:34Z</time>
      </trkpt>
      <trkpt lat="46.61151" lon="5.88318">
        <ele>758.61743164062</ele>
        <time>2012-07-18T13:19:44Z</time>
      </trkpt>
      <trkpt lat="46.61151" lon="5.88324">
        <ele>758.61743164062</ele>
        <time>2012-07-18T13:19:48Z</time>
      </trkpt>
      <trkpt lat="46.61154" lon="5.8832">
        <ele>758.61743164062</ele>
        <time>2012-07-18T13:19:59Z</time>
      </trkpt>
      <trkpt lat="46.6116" lon="5.88329">
        <ele>758.61743164062</ele>
        <time>2012-07-18T13:20:12Z</time>
      </trkpt>
      <trkpt lat="46.61164" lon="5.88337">
        <ele>758.13696289062</ele>
        <time>2012-07-18T13:20:19Z</time>
      </trkpt>
      <trkpt lat="46.61173" lon="5.88346">
        <ele>758.13696289062</ele>
        <time>2012-07-18T13:20:26Z</time>
      </trkpt>
      <trkpt lat="46.61175" lon="5.88346">
        <ele>758.61743164062</ele>
        <time>2012-07-18T13:20:29Z</time>
      </trkpt>
      <trkpt lat="46.61171" lon="5.88352">
        <ele>759.09814453125</ele>
        <time>2012-07-18T13:20:34Z</time>
      </trkpt>
      <trkpt lat="46.61175" lon="5.88354">
        <ele>759.57885742188</ele>
        <time>2012-07-18T13:20:42Z</time>
      </trkpt>
      <trkpt lat="46.61184" lon="5.88361">
        <ele>761.02075195312</ele>
        <time>2012-07-18T13:20:54Z</time>
      </trkpt>
      <trkpt lat="46.61188" lon="5.88365">
        <ele>761.02075195312</ele>
        <time>2012-07-18T13:20:58Z</time>
      </trkpt>
      <trkpt lat="46.61196" lon="5.88372">
        <ele>761.02075195312</ele>
        <time>2012-07-18T13:21:06Z</time>
      </trkpt>
      <trkpt lat="46.61203" lon="5.88378">
        <ele>761.50146484375</ele>
        <time>2012-07-18T13:21:11Z</time>
      </trkpt>
      <trkpt lat="46.61211" lon="5.88389">
        <ele>763.42407226562</ele>
        <time>2012-07-18T13:21:21Z</time>
      </trkpt>
      <trkpt lat="46.61218" lon="5.88391">
        <ele>763.90454101562</ele>
        <time>2012-07-18T13:21:30Z</time>
      </trkpt>
      <trkpt lat="46.61229" lon="5.88399">
        <ele>763.90454101562</ele>
        <time>2012-07-18T13:21:43Z</time>
      </trkpt>
      <trkpt lat="46.61242" lon="5.88404">
        <ele>764.38549804688</ele>
        <time>2012-07-18T13:21:53Z</time>
      </trkpt>
      <trkpt lat="46.6125" lon="5.88414">
        <ele>764.38549804688</ele>
        <time>2012-07-18T13:22:04Z</time>
      </trkpt>
      <trkpt lat="46.61254" lon="5.88419">
        <ele>764.38549804688</ele>
        <time>2012-07-18T13:22:08Z</time>
      </trkpt>
      <trkpt lat="46.61276" lon="5.88438">
        <ele>763.90454101562</ele>
        <time>2012-07-18T13:22:25Z</time>
      </trkpt>
      <trkpt lat="46.61291" lon="5.88444">
        <ele>763.42407226562</ele>
        <time>2012-07-18T13:22:36Z</time>
      </trkpt>
      <trkpt lat="46.6131" lon="5.88457">
        <ele>766.30810546875</ele>
        <time>2012-07-18T13:22:54Z</time>
      </trkpt>
      <trkpt lat="46.61327" lon="5.88462">
        <ele>774.9599609375</ele>
        <time>2012-07-18T13:23:13Z</time>
      </trkpt>
      <trkpt lat="46.61336" lon="5.88468">
        <ele>777.84375</ele>
        <time>2012-07-18T13:23:20Z</time>
      </trkpt>
      <trkpt lat="46.61347" lon="5.88472">
        <ele>782.169921875</ele>
        <time>2012-07-18T13:23:29Z</time>
      </trkpt>
      <trkpt lat="46.61353" lon="5.88479">
        <ele>784.09252929688</ele>
        <time>2012-07-18T13:23:35Z</time>
      </trkpt>
      <trkpt lat="46.61357" lon="5.885">
        <ele>788.41845703125</ele>
        <time>2012-07-18T13:23:47Z</time>
      </trkpt>
      <trkpt lat="46.61357" lon="5.88502">
        <ele>788.89916992188</ele>
        <time>2012-07-18T13:23:48Z</time>
      </trkpt>
      <trkpt lat="46.6136" lon="5.88517">
        <ele>790.34106445312</ele>
        <time>2012-07-18T13:24:00Z</time>
      </trkpt>
      <trkpt lat="46.61368" lon="5.8853">
        <ele>786.97631835938</ele>
        <time>2012-07-18T13:24:07Z</time>
      </trkpt>
      <trkpt lat="46.61377" lon="5.88535">
        <ele>786.01513671875</ele>
        <time>2012-07-18T13:24:13Z</time>
      </trkpt>
      <trkpt lat="46.61387" lon="5.88535">
        <ele>783.13110351562</ele>
        <time>2012-07-18T13:24:20Z</time>
      </trkpt>
      <trkpt lat="46.61411" lon="5.8853">
        <ele>780.72802734375</ele>
        <time>2012-07-18T13:24:33Z</time>
      </trkpt>
      <trkpt lat="46.61428" lon="5.88524">
        <ele>777.84375</ele>
        <time>2012-07-18T13:24:40Z</time>
      </trkpt>
      <trkpt lat="46.61448" lon="5.88532">
        <ele>773.99853515625</ele>
        <time>2012-07-18T13:24:55Z</time>
      </trkpt>
      <trkpt lat="46.61463" lon="5.88539">
        <ele>766.78881835938</ele>
        <time>2012-07-18T13:25:03Z</time>
      </trkpt>
      <trkpt lat="46.61471" lon="5.88543">
        <ele>764.8662109375</ele>
        <time>2012-07-18T13:25:09Z</time>
      </trkpt>
      <trkpt lat="46.61478" lon="5.8855">
        <ele>765.82763671875</ele>
        <time>2012-07-18T13:25:16Z</time>
      </trkpt>
      <trkpt lat="46.6148" lon="5.88556">
        <ele>767.75</ele>
        <time>2012-07-18T13:25:20Z</time>
      </trkpt>
      <trkpt lat="46.61484" lon="5.88571">
        <ele>768.23071289062</ele>
        <time>2012-07-18T13:25:30Z</time>
      </trkpt>
      <trkpt lat="46.61486" lon="5.88599">
        <ele>768.23071289062</ele>
        <time>2012-07-18T13:25:46Z</time>
      </trkpt>
      <trkpt lat="46.61484" lon="5.88603">
        <ele>767.75</ele>
        <time>2012-07-18T13:25:50Z</time>
      </trkpt>
      <trkpt lat="46.6148" lon="5.88612">
        <ele>766.30810546875</ele>
        <time>2012-07-18T13:25:55Z</time>
      </trkpt>
      <trkpt lat="46.61469" lon="5.88627">
        <ele>763.90454101562</ele>
        <time>2012-07-18T13:26:04Z</time>
      </trkpt>
      <trkpt lat="46.61463" lon="5.88629">
        <ele>762.46264648438</ele>
        <time>2012-07-18T13:26:07Z</time>
      </trkpt>
      <trkpt lat="46.61454" lon="5.88627">
        <ele>759.09814453125</ele>
        <time>2012-07-18T13:26:13Z</time>
      </trkpt>
      <trkpt lat="46.61452" lon="5.88623">
        <ele>758.61743164062</ele>
        <time>2012-07-18T13:26:18Z</time>
      </trkpt>
      <trkpt lat="46.61445" lon="5.8862">
        <ele>760.5400390625</ele>
        <time>2012-07-18T13:26:22Z</time>
      </trkpt>
      <trkpt lat="46.61443" lon="5.8862">
        <ele>762.46264648438</ele>
        <time>2012-07-18T13:26:40Z</time>
      </trkpt>
      <trkpt lat="46.61443" lon="5.8862">
        <ele>762.46264648438</ele>
        <time>2012-07-18T13:26:40Z</time>
      </trkpt>
    </trkseg>
  </trk>
</gpx>